<?xml version="1.0" encoding="UTF-8" standalone="no" ?>
<gpx xmlns="http://www.topografix.com/GPX/1/1" xmlns:xsi="http://www.w3.org/2001/XMLSchema-instance" xsi:schemaLocation="http://www.topografix.com/GPX/1/1 http://www.topografix.com/GPX/1/1/gpx.xsd" version="1.1" creator="VisuGPX - https://www.visugpx.com">
  <metadata>
    <name>2a Etapa. Llerona - Caldes de Montbui</name>
    <desc><![CDATA[Variant Segona etapa SAV-Montserrat]]></desc>
  </metadata>
  <wpt lat="41.63525" lon="2.22719">
    <ele>183</ele>
    <name><![CDATA[Esmorzar]]></name>
    <type><![CDATA[Generic]]></type>
  </wpt>
  <wpt lat="41.64938" lon="2.28946">
    <ele>192</ele>
    <name><![CDATA[1 km]]></name>
  </wpt>
  <wpt lat="41.64832" lon="2.27796">
    <ele>202</ele>
    <name><![CDATA[2 km]]></name>
  </wpt>
  <wpt lat="41.64306" lon="2.26913">
    <ele>230</ele>
    <name><![CDATA[3 km]]></name>
  </wpt>
  <wpt lat="41.6428" lon="2.25858">
    <ele>195</ele>
    <name><![CDATA[4 km]]></name>
  </wpt>
  <wpt lat="41.64883" lon="2.25187">
    <ele>197</ele>
    <name><![CDATA[5 km]]></name>
  </wpt>
  <wpt lat="41.64278" lon="2.24417">
    <ele>170</ele>
    <name><![CDATA[6 km]]></name>
  </wpt>
  <wpt lat="41.63727" lon="2.2364">
    <ele>157</ele>
    <name><![CDATA[7 km]]></name>
  </wpt>
  <wpt lat="41.63248" lon="2.23149">
    <ele>174</ele>
    <name><![CDATA[8 km]]></name>
  </wpt>
  <wpt lat="41.63651" lon="2.2219">
    <ele>196</ele>
    <name><![CDATA[9 km]]></name>
  </wpt>
  <wpt lat="41.63824" lon="2.21064">
    <ele>230</ele>
    <name><![CDATA[10 km]]></name>
  </wpt>
  <wpt lat="41.64107" lon="2.20167">
    <ele>259</ele>
    <name><![CDATA[11 km]]></name>
  </wpt>
  <wpt lat="41.63551" lon="2.19473">
    <ele>275</ele>
    <name><![CDATA[12 km]]></name>
  </wpt>
  <wpt lat="41.62867" lon="2.18884">
    <ele>273</ele>
    <name><![CDATA[13 km]]></name>
  </wpt>
  <wpt lat="41.62716" lon="2.17828">
    <ele>205</ele>
    <name><![CDATA[14 km]]></name>
  </wpt>
  <trk>
    <name><![CDATA[2a etapa Final on GPSies.com]]></name>
    <trkseg>
      <trkpt lat="41.64863" lon="2.29772">
        <ele>216</ele>
        <time>2017-02-04T13:25:49Z</time>
      </trkpt>
      <trkpt lat="41.64863" lon="2.29772">
        <ele>216</ele>
        <time>2017-02-04T13:25:49Z</time>
      </trkpt>
      <trkpt lat="41.64876" lon="2.29769">
        <ele>215</ele>
        <time>2017-02-04T13:26:02Z</time>
      </trkpt>
      <trkpt lat="41.64893" lon="2.29757">
        <ele>214</ele>
        <time>2017-02-04T13:26:22Z</time>
      </trkpt>
      <trkpt lat="41.64916" lon="2.29755">
        <ele>214</ele>
        <time>2017-02-04T13:26:44Z</time>
      </trkpt>
      <trkpt lat="41.64918" lon="2.29755">
        <ele>214</ele>
        <time>2017-02-04T13:26:47Z</time>
      </trkpt>
      <trkpt lat="41.64926" lon="2.29755">
        <ele>214</ele>
        <time>2017-02-04T13:26:55Z</time>
      </trkpt>
      <trkpt lat="41.64927" lon="2.29755">
        <ele>214</ele>
        <time>2017-02-04T13:26:56Z</time>
      </trkpt>
      <trkpt lat="41.64928" lon="2.29755">
        <ele>214</ele>
        <time>2017-02-04T13:26:57Z</time>
      </trkpt>
      <trkpt lat="41.64944" lon="2.29754">
        <ele>215</ele>
        <time>2017-02-04T13:27:13Z</time>
      </trkpt>
      <trkpt lat="41.64946" lon="2.29754">
        <ele>215</ele>
        <time>2017-02-04T13:27:15Z</time>
      </trkpt>
      <trkpt lat="41.64947" lon="2.29754">
        <ele>215</ele>
        <time>2017-02-04T13:27:16Z</time>
      </trkpt>
      <trkpt lat="41.64962" lon="2.29755">
        <ele>215</ele>
        <time>2017-02-04T13:27:31Z</time>
      </trkpt>
      <trkpt lat="41.64981" lon="2.29754">
        <ele>216</ele>
        <time>2017-02-04T13:27:50Z</time>
      </trkpt>
      <trkpt lat="41.64996" lon="2.29753">
        <ele>216</ele>
        <time>2017-02-04T13:28:05Z</time>
      </trkpt>
      <trkpt lat="41.64998" lon="2.29753">
        <ele>216</ele>
        <time>2017-02-04T13:28:06Z</time>
      </trkpt>
      <trkpt lat="41.64999" lon="2.29753">
        <ele>216</ele>
        <time>2017-02-04T13:28:08Z</time>
      </trkpt>
      <trkpt lat="41.65001" lon="2.29753">
        <ele>215</ele>
        <time>2017-02-04T13:28:10Z</time>
      </trkpt>
      <trkpt lat="41.65003" lon="2.29753">
        <ele>215</ele>
        <time>2017-02-04T13:28:12Z</time>
      </trkpt>
      <trkpt lat="41.65004" lon="2.29753">
        <ele>215</ele>
        <time>2017-02-04T13:28:13Z</time>
      </trkpt>
      <trkpt lat="41.65005" lon="2.29752">
        <ele>215</ele>
        <time>2017-02-04T13:28:15Z</time>
      </trkpt>
      <trkpt lat="41.65007" lon="2.29752">
        <ele>215</ele>
        <time>2017-02-04T13:28:16Z</time>
      </trkpt>
      <trkpt lat="41.65025" lon="2.29754">
        <ele>215</ele>
        <time>2017-02-04T13:28:34Z</time>
      </trkpt>
      <trkpt lat="41.6504" lon="2.29753">
        <ele>214</ele>
        <time>2017-02-04T13:28:49Z</time>
      </trkpt>
      <trkpt lat="41.65056" lon="2.2975">
        <ele>213</ele>
        <time>2017-02-04T13:29:05Z</time>
      </trkpt>
      <trkpt lat="41.65066" lon="2.29747">
        <ele>213</ele>
        <time>2017-02-04T13:29:16Z</time>
      </trkpt>
      <trkpt lat="41.65068" lon="2.29746">
        <ele>212</ele>
        <time>2017-02-04T13:29:18Z</time>
      </trkpt>
      <trkpt lat="41.6507" lon="2.29744">
        <ele>212</ele>
        <time>2017-02-04T13:29:20Z</time>
      </trkpt>
      <trkpt lat="41.65071" lon="2.29743">
        <ele>212</ele>
        <time>2017-02-04T13:29:22Z</time>
      </trkpt>
      <trkpt lat="41.65072" lon="2.29741">
        <ele>212</ele>
        <time>2017-02-04T13:29:23Z</time>
      </trkpt>
      <trkpt lat="41.65073" lon="2.29732">
        <ele>212</ele>
        <time>2017-02-04T13:29:30Z</time>
      </trkpt>
      <trkpt lat="41.65073" lon="2.2973">
        <ele>212</ele>
        <time>2017-02-04T13:29:32Z</time>
      </trkpt>
      <trkpt lat="41.65071" lon="2.29716">
        <ele>211</ele>
        <time>2017-02-04T13:29:42Z</time>
      </trkpt>
      <trkpt lat="41.65064" lon="2.297">
        <ele>210</ele>
        <time>2017-02-04T13:29:56Z</time>
      </trkpt>
      <trkpt lat="41.65062" lon="2.29696">
        <ele>210</ele>
        <time>2017-02-04T13:30:00Z</time>
      </trkpt>
      <trkpt lat="41.65061" lon="2.29695">
        <ele>210</ele>
        <time>2017-02-04T13:30:01Z</time>
      </trkpt>
      <trkpt lat="41.65063" lon="2.2969">
        <ele>210</ele>
        <time>2017-02-04T13:30:05Z</time>
      </trkpt>
      <trkpt lat="41.65063" lon="2.29688">
        <ele>210</ele>
        <time>2017-02-04T13:30:06Z</time>
      </trkpt>
      <trkpt lat="41.65065" lon="2.29684">
        <ele>210</ele>
        <time>2017-02-04T13:30:09Z</time>
      </trkpt>
      <trkpt lat="41.65067" lon="2.29672">
        <ele>209</ele>
        <time>2017-02-04T13:30:19Z</time>
      </trkpt>
      <trkpt lat="41.65065" lon="2.29656">
        <ele>209</ele>
        <time>2017-02-04T13:30:31Z</time>
      </trkpt>
      <trkpt lat="41.65063" lon="2.29653">
        <ele>209</ele>
        <time>2017-02-04T13:30:34Z</time>
      </trkpt>
      <trkpt lat="41.65063" lon="2.29651">
        <ele>209</ele>
        <time>2017-02-04T13:30:35Z</time>
      </trkpt>
      <trkpt lat="41.65062" lon="2.29649">
        <ele>209</ele>
        <time>2017-02-04T13:30:37Z</time>
      </trkpt>
      <trkpt lat="41.65061" lon="2.29647">
        <ele>209</ele>
        <time>2017-02-04T13:30:39Z</time>
      </trkpt>
      <trkpt lat="41.65061" lon="2.29645">
        <ele>209</ele>
        <time>2017-02-04T13:30:40Z</time>
      </trkpt>
      <trkpt lat="41.65061" lon="2.29643">
        <ele>209</ele>
        <time>2017-02-04T13:30:42Z</time>
      </trkpt>
      <trkpt lat="41.6506" lon="2.29641">
        <ele>209</ele>
        <time>2017-02-04T13:30:43Z</time>
      </trkpt>
      <trkpt lat="41.6506" lon="2.2964">
        <ele>209</ele>
        <time>2017-02-04T13:30:45Z</time>
      </trkpt>
      <trkpt lat="41.6506" lon="2.29638">
        <ele>209</ele>
        <time>2017-02-04T13:30:46Z</time>
      </trkpt>
      <trkpt lat="41.6506" lon="2.29636">
        <ele>209</ele>
        <time>2017-02-04T13:30:48Z</time>
      </trkpt>
      <trkpt lat="41.65059" lon="2.29634">
        <ele>209</ele>
        <time>2017-02-04T13:30:49Z</time>
      </trkpt>
      <trkpt lat="41.65059" lon="2.29632">
        <ele>209</ele>
        <time>2017-02-04T13:30:51Z</time>
      </trkpt>
      <trkpt lat="41.65058" lon="2.2963">
        <ele>209</ele>
        <time>2017-02-04T13:30:52Z</time>
      </trkpt>
      <trkpt lat="41.65058" lon="2.29628">
        <ele>209</ele>
        <time>2017-02-04T13:30:54Z</time>
      </trkpt>
      <trkpt lat="41.65057" lon="2.29626">
        <ele>209</ele>
        <time>2017-02-04T13:30:55Z</time>
      </trkpt>
      <trkpt lat="41.65056" lon="2.29624">
        <ele>209</ele>
        <time>2017-02-04T13:30:57Z</time>
      </trkpt>
      <trkpt lat="41.65055" lon="2.29622">
        <ele>209</ele>
        <time>2017-02-04T13:30:59Z</time>
      </trkpt>
      <trkpt lat="41.65053" lon="2.29618">
        <ele>209</ele>
        <time>2017-02-04T13:31:03Z</time>
      </trkpt>
      <trkpt lat="41.65052" lon="2.29616">
        <ele>209</ele>
        <time>2017-02-04T13:31:05Z</time>
      </trkpt>
      <trkpt lat="41.65051" lon="2.29612">
        <ele>209</ele>
        <time>2017-02-04T13:31:08Z</time>
      </trkpt>
      <trkpt lat="41.65051" lon="2.2961">
        <ele>209</ele>
        <time>2017-02-04T13:31:09Z</time>
      </trkpt>
      <trkpt lat="41.6505" lon="2.29608">
        <ele>209</ele>
        <time>2017-02-04T13:31:10Z</time>
      </trkpt>
      <trkpt lat="41.6505" lon="2.29606">
        <ele>209</ele>
        <time>2017-02-04T13:31:13Z</time>
      </trkpt>
      <trkpt lat="41.65049" lon="2.29603">
        <ele>209</ele>
        <time>2017-02-04T13:31:14Z</time>
      </trkpt>
      <trkpt lat="41.65054" lon="2.29585">
        <ele>207</ele>
        <time>2017-02-04T13:31:29Z</time>
      </trkpt>
      <trkpt lat="41.65057" lon="2.2957">
        <ele>205</ele>
        <time>2017-02-04T13:31:41Z</time>
      </trkpt>
      <trkpt lat="41.65057" lon="2.29568">
        <ele>205</ele>
        <time>2017-02-04T13:31:42Z</time>
      </trkpt>
      <trkpt lat="41.65061" lon="2.29547">
        <ele>201</ele>
        <time>2017-02-04T13:31:58Z</time>
      </trkpt>
      <trkpt lat="41.65066" lon="2.29516">
        <ele>195</ele>
        <time>2017-02-04T13:32:22Z</time>
      </trkpt>
      <trkpt lat="41.6507" lon="2.29499">
        <ele>193</ele>
        <time>2017-02-04T13:32:35Z</time>
      </trkpt>
      <trkpt lat="41.65071" lon="2.29497">
        <ele>193</ele>
        <time>2017-02-04T13:32:37Z</time>
      </trkpt>
      <trkpt lat="41.65071" lon="2.29494">
        <ele>192</ele>
        <time>2017-02-04T13:32:39Z</time>
      </trkpt>
      <trkpt lat="41.65071" lon="2.29493">
        <ele>192</ele>
        <time>2017-02-04T13:32:40Z</time>
      </trkpt>
      <trkpt lat="41.65071" lon="2.29491">
        <ele>192</ele>
        <time>2017-02-04T13:32:42Z</time>
      </trkpt>
      <trkpt lat="41.65072" lon="2.29489">
        <ele>192</ele>
        <time>2017-02-04T13:32:43Z</time>
      </trkpt>
      <trkpt lat="41.65072" lon="2.29487">
        <ele>192</ele>
        <time>2017-02-04T13:32:44Z</time>
      </trkpt>
      <trkpt lat="41.65078" lon="2.29454">
        <ele>189</ele>
        <time>2017-02-04T13:33:10Z</time>
      </trkpt>
      <trkpt lat="41.6508" lon="2.29424">
        <ele>189</ele>
        <time>2017-02-04T13:33:32Z</time>
      </trkpt>
      <trkpt lat="41.65058" lon="2.29408">
        <ele>188</ele>
        <time>2017-02-04T13:33:58Z</time>
      </trkpt>
      <trkpt lat="41.65038" lon="2.29398">
        <ele>188</ele>
        <time>2017-02-04T13:34:19Z</time>
      </trkpt>
      <trkpt lat="41.65019" lon="2.29385">
        <ele>188</ele>
        <time>2017-02-04T13:34:40Z</time>
      </trkpt>
      <trkpt lat="41.65002" lon="2.29373">
        <ele>188</ele>
        <time>2017-02-04T13:34:59Z</time>
      </trkpt>
      <trkpt lat="41.64996" lon="2.29369">
        <ele>189</ele>
        <time>2017-02-04T13:35:06Z</time>
      </trkpt>
      <trkpt lat="41.64991" lon="2.29367">
        <ele>189</ele>
        <time>2017-02-04T13:35:12Z</time>
      </trkpt>
      <trkpt lat="41.64987" lon="2.29366">
        <ele>189</ele>
        <time>2017-02-04T13:35:16Z</time>
      </trkpt>
      <trkpt lat="41.64984" lon="2.29365">
        <ele>189</ele>
        <time>2017-02-04T13:35:19Z</time>
      </trkpt>
      <trkpt lat="41.64982" lon="2.29364">
        <ele>189</ele>
        <time>2017-02-04T13:35:21Z</time>
      </trkpt>
      <trkpt lat="41.64981" lon="2.29364">
        <ele>189</ele>
        <time>2017-02-04T13:35:22Z</time>
      </trkpt>
      <trkpt lat="41.64979" lon="2.29363">
        <ele>189</ele>
        <time>2017-02-04T13:35:24Z</time>
      </trkpt>
      <trkpt lat="41.64978" lon="2.29363">
        <ele>189</ele>
        <time>2017-02-04T13:35:25Z</time>
      </trkpt>
      <trkpt lat="41.64965" lon="2.29355">
        <ele>190</ele>
        <time>2017-02-04T13:35:39Z</time>
      </trkpt>
      <trkpt lat="41.64964" lon="2.29354">
        <ele>190</ele>
        <time>2017-02-04T13:35:40Z</time>
      </trkpt>
      <trkpt lat="41.64963" lon="2.29353">
        <ele>190</ele>
        <time>2017-02-04T13:35:42Z</time>
      </trkpt>
      <trkpt lat="41.64962" lon="2.29351">
        <ele>190</ele>
        <time>2017-02-04T13:35:43Z</time>
      </trkpt>
      <trkpt lat="41.64961" lon="2.29349">
        <ele>190</ele>
        <time>2017-02-04T13:35:45Z</time>
      </trkpt>
      <trkpt lat="41.64957" lon="2.29319">
        <ele>191</ele>
        <time>2017-02-04T13:36:08Z</time>
      </trkpt>
      <trkpt lat="41.64957" lon="2.29289">
        <ele>191</ele>
        <time>2017-02-04T13:36:30Z</time>
      </trkpt>
      <trkpt lat="41.64956" lon="2.29287">
        <ele>191</ele>
        <time>2017-02-04T13:36:32Z</time>
      </trkpt>
      <trkpt lat="41.64955" lon="2.29272">
        <ele>191</ele>
        <time>2017-02-04T13:36:43Z</time>
      </trkpt>
      <trkpt lat="41.64952" lon="2.29245">
        <ele>191</ele>
        <time>2017-02-04T13:37:03Z</time>
      </trkpt>
      <trkpt lat="41.64951" lon="2.29238">
        <ele>191</ele>
        <time>2017-02-04T13:37:09Z</time>
      </trkpt>
      <trkpt lat="41.64951" lon="2.29218">
        <ele>191</ele>
        <time>2017-02-04T13:37:24Z</time>
      </trkpt>
      <trkpt lat="41.64951" lon="2.29205">
        <ele>191</ele>
        <time>2017-02-04T13:37:34Z</time>
      </trkpt>
      <trkpt lat="41.64952" lon="2.29189">
        <ele>190</ele>
        <time>2017-02-04T13:37:45Z</time>
      </trkpt>
      <trkpt lat="41.64949" lon="2.29169">
        <ele>190</ele>
        <time>2017-02-04T13:38:01Z</time>
      </trkpt>
      <trkpt lat="41.64949" lon="2.29148">
        <ele>190</ele>
        <time>2017-02-04T13:38:17Z</time>
      </trkpt>
      <trkpt lat="41.64946" lon="2.29135">
        <ele>191</ele>
        <time>2017-02-04T13:38:27Z</time>
      </trkpt>
      <trkpt lat="41.64946" lon="2.29118">
        <ele>191</ele>
        <time>2017-02-04T13:38:39Z</time>
      </trkpt>
      <trkpt lat="41.64947" lon="2.29111">
        <ele>191</ele>
        <time>2017-02-04T13:38:45Z</time>
      </trkpt>
      <trkpt lat="41.64947" lon="2.29094">
        <ele>191</ele>
        <time>2017-02-04T13:38:57Z</time>
      </trkpt>
      <trkpt lat="41.64946" lon="2.29072">
        <ele>192</ele>
        <time>2017-02-04T13:39:14Z</time>
      </trkpt>
      <trkpt lat="41.64946" lon="2.29069">
        <ele>192</ele>
        <time>2017-02-04T13:39:17Z</time>
      </trkpt>
      <trkpt lat="41.64944" lon="2.29049">
        <ele>192</ele>
        <time>2017-02-04T13:39:32Z</time>
      </trkpt>
      <trkpt lat="41.64942" lon="2.29022">
        <ele>192</ele>
        <time>2017-02-04T13:39:52Z</time>
      </trkpt>
      <trkpt lat="41.64942" lon="2.29019">
        <ele>192</ele>
        <time>2017-02-04T13:39:54Z</time>
      </trkpt>
      <trkpt lat="41.64943" lon="2.29005">
        <ele>192</ele>
        <time>2017-02-04T13:40:05Z</time>
      </trkpt>
      <trkpt lat="41.6494" lon="2.28974">
        <ele>192</ele>
        <time>2017-02-04T13:40:28Z</time>
      </trkpt>
      <trkpt lat="41.6494" lon="2.28969">
        <ele>192</ele>
        <time>2017-02-04T13:40:31Z</time>
      </trkpt>
      <trkpt lat="41.64941" lon="2.28958">
        <ele>192</ele>
        <time>2017-02-04T13:40:39Z</time>
      </trkpt>
      <trkpt lat="41.64935" lon="2.28931">
        <ele>193</ele>
        <time>2017-02-04T13:41:01Z</time>
      </trkpt>
      <trkpt lat="41.64935" lon="2.28929">
        <ele>193</ele>
        <time>2017-02-04T13:41:02Z</time>
      </trkpt>
      <trkpt lat="41.64936" lon="2.28927">
        <ele>193</ele>
        <time>2017-02-04T13:41:04Z</time>
      </trkpt>
      <trkpt lat="41.64936" lon="2.28925">
        <ele>193</ele>
        <time>2017-02-04T13:41:05Z</time>
      </trkpt>
      <trkpt lat="41.64937" lon="2.28923">
        <ele>193</ele>
        <time>2017-02-04T13:41:07Z</time>
      </trkpt>
      <trkpt lat="41.64937" lon="2.28921">
        <ele>193</ele>
        <time>2017-02-04T13:41:08Z</time>
      </trkpt>
      <trkpt lat="41.64938" lon="2.28919">
        <ele>193</ele>
        <time>2017-02-04T13:41:10Z</time>
      </trkpt>
      <trkpt lat="41.64938" lon="2.28916">
        <ele>192</ele>
        <time>2017-02-04T13:41:12Z</time>
      </trkpt>
      <trkpt lat="41.64938" lon="2.28914">
        <ele>192</ele>
        <time>2017-02-04T13:41:14Z</time>
      </trkpt>
      <trkpt lat="41.64939" lon="2.28891">
        <ele>192</ele>
        <time>2017-02-04T13:41:31Z</time>
      </trkpt>
      <trkpt lat="41.64939" lon="2.28882">
        <ele>191</ele>
        <time>2017-02-04T13:41:38Z</time>
      </trkpt>
      <trkpt lat="41.64941" lon="2.28862">
        <ele>191</ele>
        <time>2017-02-04T13:41:53Z</time>
      </trkpt>
      <trkpt lat="41.64945" lon="2.2884">
        <ele>191</ele>
        <time>2017-02-04T13:42:10Z</time>
      </trkpt>
      <trkpt lat="41.64947" lon="2.28828">
        <ele>191</ele>
        <time>2017-02-04T13:42:19Z</time>
      </trkpt>
      <trkpt lat="41.64946" lon="2.28826">
        <ele>191</ele>
        <time>2017-02-04T13:42:20Z</time>
      </trkpt>
      <trkpt lat="41.64946" lon="2.28824">
        <ele>191</ele>
        <time>2017-02-04T13:42:22Z</time>
      </trkpt>
      <trkpt lat="41.64946" lon="2.28823">
        <ele>191</ele>
        <time>2017-02-04T13:42:23Z</time>
      </trkpt>
      <trkpt lat="41.64946" lon="2.28821">
        <ele>191</ele>
        <time>2017-02-04T13:42:24Z</time>
      </trkpt>
      <trkpt lat="41.64946" lon="2.2882">
        <ele>191</ele>
        <time>2017-02-04T13:42:25Z</time>
      </trkpt>
      <trkpt lat="41.64945" lon="2.28818">
        <ele>191</ele>
        <time>2017-02-04T13:42:27Z</time>
      </trkpt>
      <trkpt lat="41.64945" lon="2.28816">
        <ele>191</ele>
        <time>2017-02-04T13:42:28Z</time>
      </trkpt>
      <trkpt lat="41.64945" lon="2.28815">
        <ele>191</ele>
        <time>2017-02-04T13:42:29Z</time>
      </trkpt>
      <trkpt lat="41.64945" lon="2.28812">
        <ele>191</ele>
        <time>2017-02-04T13:42:31Z</time>
      </trkpt>
      <trkpt lat="41.64946" lon="2.2881">
        <ele>191</ele>
        <time>2017-02-04T13:42:33Z</time>
      </trkpt>
      <trkpt lat="41.64946" lon="2.28808">
        <ele>191</ele>
        <time>2017-02-04T13:42:34Z</time>
      </trkpt>
      <trkpt lat="41.64946" lon="2.28806">
        <ele>191</ele>
        <time>2017-02-04T13:42:36Z</time>
      </trkpt>
      <trkpt lat="41.64945" lon="2.28777">
        <ele>192</ele>
        <time>2017-02-04T13:42:57Z</time>
      </trkpt>
      <trkpt lat="41.64944" lon="2.28775">
        <ele>192</ele>
        <time>2017-02-04T13:42:59Z</time>
      </trkpt>
      <trkpt lat="41.64945" lon="2.28773">
        <ele>192</ele>
        <time>2017-02-04T13:43:01Z</time>
      </trkpt>
      <trkpt lat="41.64947" lon="2.28772">
        <ele>192</ele>
        <time>2017-02-04T13:43:02Z</time>
      </trkpt>
      <trkpt lat="41.64948" lon="2.28771">
        <ele>192</ele>
        <time>2017-02-04T13:43:04Z</time>
      </trkpt>
      <trkpt lat="41.6495" lon="2.2877">
        <ele>192</ele>
        <time>2017-02-04T13:43:06Z</time>
      </trkpt>
      <trkpt lat="41.64951" lon="2.2877">
        <ele>192</ele>
        <time>2017-02-04T13:43:07Z</time>
      </trkpt>
      <trkpt lat="41.64952" lon="2.28769">
        <ele>192</ele>
        <time>2017-02-04T13:43:09Z</time>
      </trkpt>
      <trkpt lat="41.64954" lon="2.28768">
        <ele>192</ele>
        <time>2017-02-04T13:43:10Z</time>
      </trkpt>
      <trkpt lat="41.64955" lon="2.28768">
        <ele>192</ele>
        <time>2017-02-04T13:43:11Z</time>
      </trkpt>
      <trkpt lat="41.64956" lon="2.28768">
        <ele>192</ele>
        <time>2017-02-04T13:43:13Z</time>
      </trkpt>
      <trkpt lat="41.64958" lon="2.28767">
        <ele>192</ele>
        <time>2017-02-04T13:43:14Z</time>
      </trkpt>
      <trkpt lat="41.64958" lon="2.28768">
        <ele>192</ele>
        <time>2017-02-04T13:43:15Z</time>
      </trkpt>
      <trkpt lat="41.64954" lon="2.28771">
        <ele>192</ele>
        <time>2017-02-04T13:43:20Z</time>
      </trkpt>
      <trkpt lat="41.64952" lon="2.28771">
        <ele>192</ele>
        <time>2017-02-04T13:43:21Z</time>
      </trkpt>
      <trkpt lat="41.64951" lon="2.2877">
        <ele>192</ele>
        <time>2017-02-04T13:43:22Z</time>
      </trkpt>
      <trkpt lat="41.6495" lon="2.28769">
        <ele>192</ele>
        <time>2017-02-04T13:43:24Z</time>
      </trkpt>
      <trkpt lat="41.64949" lon="2.28768">
        <ele>192</ele>
        <time>2017-02-04T13:43:25Z</time>
      </trkpt>
      <trkpt lat="41.64948" lon="2.28767">
        <ele>192</ele>
        <time>2017-02-04T13:43:27Z</time>
      </trkpt>
      <trkpt lat="41.64947" lon="2.28765">
        <ele>192</ele>
        <time>2017-02-04T13:43:28Z</time>
      </trkpt>
      <trkpt lat="41.64946" lon="2.28763">
        <ele>192</ele>
        <time>2017-02-04T13:43:30Z</time>
      </trkpt>
      <trkpt lat="41.64946" lon="2.28761">
        <ele>192</ele>
        <time>2017-02-04T13:43:31Z</time>
      </trkpt>
      <trkpt lat="41.64942" lon="2.2873">
        <ele>192</ele>
        <time>2017-02-04T13:43:55Z</time>
      </trkpt>
      <trkpt lat="41.64943" lon="2.28728">
        <ele>192</ele>
        <time>2017-02-04T13:43:57Z</time>
      </trkpt>
      <trkpt lat="41.64943" lon="2.28726">
        <ele>192</ele>
        <time>2017-02-04T13:43:58Z</time>
      </trkpt>
      <trkpt lat="41.64943" lon="2.28724">
        <ele>192</ele>
        <time>2017-02-04T13:44:00Z</time>
      </trkpt>
      <trkpt lat="41.64943" lon="2.28722">
        <ele>192</ele>
        <time>2017-02-04T13:44:01Z</time>
      </trkpt>
      <trkpt lat="41.64943" lon="2.2872">
        <ele>192</ele>
        <time>2017-02-04T13:44:02Z</time>
      </trkpt>
      <trkpt lat="41.64943" lon="2.28719">
        <ele>192</ele>
        <time>2017-02-04T13:44:03Z</time>
      </trkpt>
      <trkpt lat="41.64943" lon="2.28717">
        <ele>192</ele>
        <time>2017-02-04T13:44:05Z</time>
      </trkpt>
      <trkpt lat="41.64942" lon="2.28716">
        <ele>192</ele>
        <time>2017-02-04T13:44:06Z</time>
      </trkpt>
      <trkpt lat="41.64942" lon="2.28714">
        <ele>192</ele>
        <time>2017-02-04T13:44:07Z</time>
      </trkpt>
      <trkpt lat="41.64942" lon="2.28713">
        <ele>192</ele>
        <time>2017-02-04T13:44:08Z</time>
      </trkpt>
      <trkpt lat="41.64941" lon="2.28712">
        <ele>192</ele>
        <time>2017-02-04T13:44:09Z</time>
      </trkpt>
      <trkpt lat="41.64941" lon="2.2871">
        <ele>192</ele>
        <time>2017-02-04T13:44:10Z</time>
      </trkpt>
      <trkpt lat="41.6494" lon="2.28704">
        <ele>192</ele>
        <time>2017-02-04T13:44:15Z</time>
      </trkpt>
      <trkpt lat="41.64935" lon="2.28679">
        <ele>191</ele>
        <time>2017-02-04T13:44:34Z</time>
      </trkpt>
      <trkpt lat="41.64931" lon="2.28669">
        <ele>191</ele>
        <time>2017-02-04T13:44:43Z</time>
      </trkpt>
      <trkpt lat="41.64931" lon="2.28667">
        <ele>191</ele>
        <time>2017-02-04T13:44:45Z</time>
      </trkpt>
      <trkpt lat="41.6493" lon="2.28664">
        <ele>191</ele>
        <time>2017-02-04T13:44:46Z</time>
      </trkpt>
      <trkpt lat="41.64925" lon="2.28643">
        <ele>191</ele>
        <time>2017-02-04T13:45:04Z</time>
      </trkpt>
      <trkpt lat="41.6492" lon="2.28619">
        <ele>191</ele>
        <time>2017-02-04T13:45:21Z</time>
      </trkpt>
      <trkpt lat="41.64913" lon="2.28597">
        <ele>191</ele>
        <time>2017-02-04T13:45:39Z</time>
      </trkpt>
      <trkpt lat="41.64909" lon="2.28576">
        <ele>191</ele>
        <time>2017-02-04T13:45:56Z</time>
      </trkpt>
      <trkpt lat="41.64909" lon="2.28551">
        <ele>191</ele>
        <time>2017-02-04T13:46:15Z</time>
      </trkpt>
      <trkpt lat="41.64909" lon="2.28522">
        <ele>191</ele>
        <time>2017-02-04T13:46:36Z</time>
      </trkpt>
      <trkpt lat="41.6491" lon="2.28518">
        <ele>191</ele>
        <time>2017-02-04T13:46:39Z</time>
      </trkpt>
      <trkpt lat="41.64908" lon="2.28505">
        <ele>191</ele>
        <time>2017-02-04T13:46:49Z</time>
      </trkpt>
      <trkpt lat="41.64908" lon="2.28503">
        <ele>191</ele>
        <time>2017-02-04T13:46:51Z</time>
      </trkpt>
      <trkpt lat="41.64908" lon="2.28502">
        <ele>191</ele>
        <time>2017-02-04T13:46:52Z</time>
      </trkpt>
      <trkpt lat="41.64908" lon="2.285">
        <ele>191</ele>
        <time>2017-02-04T13:46:53Z</time>
      </trkpt>
      <trkpt lat="41.64908" lon="2.28499">
        <ele>191</ele>
        <time>2017-02-04T13:46:54Z</time>
      </trkpt>
      <trkpt lat="41.64908" lon="2.28497">
        <ele>191</ele>
        <time>2017-02-04T13:46:55Z</time>
      </trkpt>
      <trkpt lat="41.64908" lon="2.28495">
        <ele>191</ele>
        <time>2017-02-04T13:46:56Z</time>
      </trkpt>
      <trkpt lat="41.64907" lon="2.28477">
        <ele>191</ele>
        <time>2017-02-04T13:47:10Z</time>
      </trkpt>
      <trkpt lat="41.64907" lon="2.28476">
        <ele>191</ele>
        <time>2017-02-04T13:47:11Z</time>
      </trkpt>
      <trkpt lat="41.64907" lon="2.28474">
        <ele>191</ele>
        <time>2017-02-04T13:47:13Z</time>
      </trkpt>
      <trkpt lat="41.64908" lon="2.28472">
        <ele>191</ele>
        <time>2017-02-04T13:47:14Z</time>
      </trkpt>
      <trkpt lat="41.64908" lon="2.2847">
        <ele>191</ele>
        <time>2017-02-04T13:47:15Z</time>
      </trkpt>
      <trkpt lat="41.64908" lon="2.28469">
        <ele>191</ele>
        <time>2017-02-04T13:47:16Z</time>
      </trkpt>
      <trkpt lat="41.64907" lon="2.28467">
        <ele>191</ele>
        <time>2017-02-04T13:47:18Z</time>
      </trkpt>
      <trkpt lat="41.64907" lon="2.28466">
        <ele>191</ele>
        <time>2017-02-04T13:47:19Z</time>
      </trkpt>
      <trkpt lat="41.64907" lon="2.28464">
        <ele>191</ele>
        <time>2017-02-04T13:47:20Z</time>
      </trkpt>
      <trkpt lat="41.64906" lon="2.28462">
        <ele>191</ele>
        <time>2017-02-04T13:47:22Z</time>
      </trkpt>
      <trkpt lat="41.64906" lon="2.2846">
        <ele>191</ele>
        <time>2017-02-04T13:47:23Z</time>
      </trkpt>
      <trkpt lat="41.64906" lon="2.28458">
        <ele>191</ele>
        <time>2017-02-04T13:47:24Z</time>
      </trkpt>
      <trkpt lat="41.64906" lon="2.28457">
        <ele>191</ele>
        <time>2017-02-04T13:47:26Z</time>
      </trkpt>
      <trkpt lat="41.64906" lon="2.28455">
        <ele>190</ele>
        <time>2017-02-04T13:47:27Z</time>
      </trkpt>
      <trkpt lat="41.64906" lon="2.28453">
        <ele>190</ele>
        <time>2017-02-04T13:47:29Z</time>
      </trkpt>
      <trkpt lat="41.64906" lon="2.28451">
        <ele>190</ele>
        <time>2017-02-04T13:47:30Z</time>
      </trkpt>
      <trkpt lat="41.64907" lon="2.28449">
        <ele>190</ele>
        <time>2017-02-04T13:47:31Z</time>
      </trkpt>
      <trkpt lat="41.64907" lon="2.28447">
        <ele>190</ele>
        <time>2017-02-04T13:47:33Z</time>
      </trkpt>
      <trkpt lat="41.64907" lon="2.28445">
        <ele>190</ele>
        <time>2017-02-04T13:47:34Z</time>
      </trkpt>
      <trkpt lat="41.64907" lon="2.28443">
        <ele>190</ele>
        <time>2017-02-04T13:47:36Z</time>
      </trkpt>
      <trkpt lat="41.64907" lon="2.28442">
        <ele>190</ele>
        <time>2017-02-04T13:47:37Z</time>
      </trkpt>
      <trkpt lat="41.64907" lon="2.2844">
        <ele>190</ele>
        <time>2017-02-04T13:47:38Z</time>
      </trkpt>
      <trkpt lat="41.64907" lon="2.28438">
        <ele>190</ele>
        <time>2017-02-04T13:47:40Z</time>
      </trkpt>
      <trkpt lat="41.64907" lon="2.28436">
        <ele>190</ele>
        <time>2017-02-04T13:47:41Z</time>
      </trkpt>
      <trkpt lat="41.64907" lon="2.28435">
        <ele>190</ele>
        <time>2017-02-04T13:47:42Z</time>
      </trkpt>
      <trkpt lat="41.64905" lon="2.28405">
        <ele>190</ele>
        <time>2017-02-04T13:48:05Z</time>
      </trkpt>
      <trkpt lat="41.64899" lon="2.28378">
        <ele>190</ele>
        <time>2017-02-04T13:48:25Z</time>
      </trkpt>
      <trkpt lat="41.64896" lon="2.28367">
        <ele>190</ele>
        <time>2017-02-04T13:48:34Z</time>
      </trkpt>
      <trkpt lat="41.64896" lon="2.28365">
        <ele>190</ele>
        <time>2017-02-04T13:48:36Z</time>
      </trkpt>
      <trkpt lat="41.64895" lon="2.28343">
        <ele>190</ele>
        <time>2017-02-04T13:48:53Z</time>
      </trkpt>
      <trkpt lat="41.64895" lon="2.28341">
        <ele>190</ele>
        <time>2017-02-04T13:48:54Z</time>
      </trkpt>
      <trkpt lat="41.64894" lon="2.28339">
        <ele>190</ele>
        <time>2017-02-04T13:48:56Z</time>
      </trkpt>
      <trkpt lat="41.64894" lon="2.28337">
        <ele>190</ele>
        <time>2017-02-04T13:48:57Z</time>
      </trkpt>
      <trkpt lat="41.64894" lon="2.28335">
        <ele>190</ele>
        <time>2017-02-04T13:48:58Z</time>
      </trkpt>
      <trkpt lat="41.64894" lon="2.28334">
        <ele>190</ele>
        <time>2017-02-04T13:49:00Z</time>
      </trkpt>
      <trkpt lat="41.64894" lon="2.28332">
        <ele>190</ele>
        <time>2017-02-04T13:49:01Z</time>
      </trkpt>
      <trkpt lat="41.64893" lon="2.28329">
        <ele>190</ele>
        <time>2017-02-04T13:49:03Z</time>
      </trkpt>
      <trkpt lat="41.64893" lon="2.28314">
        <ele>190</ele>
        <time>2017-02-04T13:49:14Z</time>
      </trkpt>
      <trkpt lat="41.64892" lon="2.28313">
        <ele>190</ele>
        <time>2017-02-04T13:49:15Z</time>
      </trkpt>
      <trkpt lat="41.64892" lon="2.28311">
        <ele>190</ele>
        <time>2017-02-04T13:49:17Z</time>
      </trkpt>
      <trkpt lat="41.64892" lon="2.28309">
        <ele>190</ele>
        <time>2017-02-04T13:49:18Z</time>
      </trkpt>
      <trkpt lat="41.64892" lon="2.28307">
        <ele>190</ele>
        <time>2017-02-04T13:49:20Z</time>
      </trkpt>
      <trkpt lat="41.64892" lon="2.28305">
        <ele>190</ele>
        <time>2017-02-04T13:49:21Z</time>
      </trkpt>
      <trkpt lat="41.64892" lon="2.28304">
        <ele>190</ele>
        <time>2017-02-04T13:49:22Z</time>
      </trkpt>
      <trkpt lat="41.64892" lon="2.28302">
        <ele>189</ele>
        <time>2017-02-04T13:49:23Z</time>
      </trkpt>
      <trkpt lat="41.64892" lon="2.283">
        <ele>189</ele>
        <time>2017-02-04T13:49:25Z</time>
      </trkpt>
      <trkpt lat="41.64892" lon="2.28298">
        <ele>189</ele>
        <time>2017-02-04T13:49:26Z</time>
      </trkpt>
      <trkpt lat="41.64892" lon="2.28297">
        <ele>189</ele>
        <time>2017-02-04T13:49:27Z</time>
      </trkpt>
      <trkpt lat="41.64892" lon="2.28295">
        <ele>189</ele>
        <time>2017-02-04T13:49:29Z</time>
      </trkpt>
      <trkpt lat="41.64891" lon="2.28272">
        <ele>189</ele>
        <time>2017-02-04T13:49:46Z</time>
      </trkpt>
      <trkpt lat="41.64887" lon="2.28251">
        <ele>188</ele>
        <time>2017-02-04T13:50:02Z</time>
      </trkpt>
      <trkpt lat="41.64886" lon="2.2824">
        <ele>188</ele>
        <time>2017-02-04T13:50:10Z</time>
      </trkpt>
      <trkpt lat="41.64886" lon="2.28238">
        <ele>188</ele>
        <time>2017-02-04T13:50:12Z</time>
      </trkpt>
      <trkpt lat="41.64885" lon="2.28236">
        <ele>188</ele>
        <time>2017-02-04T13:50:14Z</time>
      </trkpt>
      <trkpt lat="41.64885" lon="2.28234">
        <ele>188</ele>
        <time>2017-02-04T13:50:15Z</time>
      </trkpt>
      <trkpt lat="41.64885" lon="2.28232">
        <ele>188</ele>
        <time>2017-02-04T13:50:17Z</time>
      </trkpt>
      <trkpt lat="41.64881" lon="2.28208">
        <ele>189</ele>
        <time>2017-02-04T13:50:35Z</time>
      </trkpt>
      <trkpt lat="41.6488" lon="2.28206">
        <ele>189</ele>
        <time>2017-02-04T13:50:37Z</time>
      </trkpt>
      <trkpt lat="41.6488" lon="2.28204">
        <ele>189</ele>
        <time>2017-02-04T13:50:38Z</time>
      </trkpt>
      <trkpt lat="41.64879" lon="2.28202">
        <ele>189</ele>
        <time>2017-02-04T13:50:40Z</time>
      </trkpt>
      <trkpt lat="41.64879" lon="2.282">
        <ele>189</ele>
        <time>2017-02-04T13:50:41Z</time>
      </trkpt>
      <trkpt lat="41.64879" lon="2.28198">
        <ele>189</ele>
        <time>2017-02-04T13:50:43Z</time>
      </trkpt>
      <trkpt lat="41.64879" lon="2.28196">
        <ele>189</ele>
        <time>2017-02-04T13:50:44Z</time>
      </trkpt>
      <trkpt lat="41.64878" lon="2.28172">
        <ele>190</ele>
        <time>2017-02-04T13:51:02Z</time>
      </trkpt>
      <trkpt lat="41.64877" lon="2.28137">
        <ele>191</ele>
        <time>2017-02-04T13:51:28Z</time>
      </trkpt>
      <trkpt lat="41.64874" lon="2.28112">
        <ele>191</ele>
        <time>2017-02-04T13:51:47Z</time>
      </trkpt>
      <trkpt lat="41.64874" lon="2.2811">
        <ele>191</ele>
        <time>2017-02-04T13:51:49Z</time>
      </trkpt>
      <trkpt lat="41.64873" lon="2.28106">
        <ele>191</ele>
        <time>2017-02-04T13:51:52Z</time>
      </trkpt>
      <trkpt lat="41.64873" lon="2.28104">
        <ele>191</ele>
        <time>2017-02-04T13:51:53Z</time>
      </trkpt>
      <trkpt lat="41.64873" lon="2.28102">
        <ele>191</ele>
        <time>2017-02-04T13:51:55Z</time>
      </trkpt>
      <trkpt lat="41.64873" lon="2.281">
        <ele>191</ele>
        <time>2017-02-04T13:51:56Z</time>
      </trkpt>
      <trkpt lat="41.64872" lon="2.28098">
        <ele>191</ele>
        <time>2017-02-04T13:51:58Z</time>
      </trkpt>
      <trkpt lat="41.64873" lon="2.28097">
        <ele>191</ele>
        <time>2017-02-04T13:51:59Z</time>
      </trkpt>
      <trkpt lat="41.64873" lon="2.28095">
        <ele>191</ele>
        <time>2017-02-04T13:52:00Z</time>
      </trkpt>
      <trkpt lat="41.64873" lon="2.28093">
        <ele>191</ele>
        <time>2017-02-04T13:52:02Z</time>
      </trkpt>
      <trkpt lat="41.64872" lon="2.28091">
        <ele>191</ele>
        <time>2017-02-04T13:52:03Z</time>
      </trkpt>
      <trkpt lat="41.64872" lon="2.28089">
        <ele>191</ele>
        <time>2017-02-04T13:52:05Z</time>
      </trkpt>
      <trkpt lat="41.64872" lon="2.28087">
        <ele>191</ele>
        <time>2017-02-04T13:52:06Z</time>
      </trkpt>
      <trkpt lat="41.64872" lon="2.28085">
        <ele>191</ele>
        <time>2017-02-04T13:52:08Z</time>
      </trkpt>
      <trkpt lat="41.64872" lon="2.28083">
        <ele>192</ele>
        <time>2017-02-04T13:52:09Z</time>
      </trkpt>
      <trkpt lat="41.64872" lon="2.2808">
        <ele>192</ele>
        <time>2017-02-04T13:52:12Z</time>
      </trkpt>
      <trkpt lat="41.64871" lon="2.28078">
        <ele>192</ele>
        <time>2017-02-04T13:52:13Z</time>
      </trkpt>
      <trkpt lat="41.64871" lon="2.28076">
        <ele>192</ele>
        <time>2017-02-04T13:52:14Z</time>
      </trkpt>
      <trkpt lat="41.64867" lon="2.28062">
        <ele>193</ele>
        <time>2017-02-04T13:52:26Z</time>
      </trkpt>
      <trkpt lat="41.64867" lon="2.2806">
        <ele>193</ele>
        <time>2017-02-04T13:52:27Z</time>
      </trkpt>
      <trkpt lat="41.64865" lon="2.28029">
        <ele>195</ele>
        <time>2017-02-04T13:52:50Z</time>
      </trkpt>
      <trkpt lat="41.64861" lon="2.28007">
        <ele>195</ele>
        <time>2017-02-04T13:53:08Z</time>
      </trkpt>
      <trkpt lat="41.64862" lon="2.28004">
        <ele>195</ele>
        <time>2017-02-04T13:53:09Z</time>
      </trkpt>
      <trkpt lat="41.64862" lon="2.28003">
        <ele>195</ele>
        <time>2017-02-04T13:53:11Z</time>
      </trkpt>
      <trkpt lat="41.64862" lon="2.28001">
        <ele>195</ele>
        <time>2017-02-04T13:53:12Z</time>
      </trkpt>
      <trkpt lat="41.64861" lon="2.28">
        <ele>196</ele>
        <time>2017-02-04T13:53:13Z</time>
      </trkpt>
      <trkpt lat="41.64861" lon="2.27998">
        <ele>195</ele>
        <time>2017-02-04T13:53:15Z</time>
      </trkpt>
      <trkpt lat="41.64861" lon="2.27996">
        <ele>195</ele>
        <time>2017-02-04T13:53:16Z</time>
      </trkpt>
      <trkpt lat="41.6486" lon="2.27994">
        <ele>195</ele>
        <time>2017-02-04T13:53:18Z</time>
      </trkpt>
      <trkpt lat="41.6486" lon="2.27991">
        <ele>195</ele>
        <time>2017-02-04T13:53:20Z</time>
      </trkpt>
      <trkpt lat="41.64858" lon="2.27969">
        <ele>196</ele>
        <time>2017-02-04T13:53:36Z</time>
      </trkpt>
      <trkpt lat="41.64856" lon="2.27955">
        <ele>196</ele>
        <time>2017-02-04T13:53:47Z</time>
      </trkpt>
      <trkpt lat="41.64855" lon="2.27953">
        <ele>196</ele>
        <time>2017-02-04T13:53:49Z</time>
      </trkpt>
      <trkpt lat="41.64855" lon="2.27951">
        <ele>196</ele>
        <time>2017-02-04T13:53:50Z</time>
      </trkpt>
      <trkpt lat="41.64855" lon="2.27949">
        <ele>196</ele>
        <time>2017-02-04T13:53:52Z</time>
      </trkpt>
      <trkpt lat="41.64855" lon="2.27947">
        <ele>196</ele>
        <time>2017-02-04T13:53:53Z</time>
      </trkpt>
      <trkpt lat="41.64856" lon="2.27945">
        <ele>196</ele>
        <time>2017-02-04T13:53:55Z</time>
      </trkpt>
      <trkpt lat="41.64855" lon="2.27943">
        <ele>196</ele>
        <time>2017-02-04T13:53:56Z</time>
      </trkpt>
      <trkpt lat="41.64856" lon="2.27941">
        <ele>196</ele>
        <time>2017-02-04T13:53:58Z</time>
      </trkpt>
      <trkpt lat="41.64856" lon="2.27939">
        <ele>196</ele>
        <time>2017-02-04T13:53:59Z</time>
      </trkpt>
      <trkpt lat="41.64855" lon="2.27935">
        <ele>196</ele>
        <time>2017-02-04T13:54:02Z</time>
      </trkpt>
      <trkpt lat="41.64855" lon="2.27933">
        <ele>196</ele>
        <time>2017-02-04T13:54:04Z</time>
      </trkpt>
      <trkpt lat="41.64854" lon="2.27932">
        <ele>196</ele>
        <time>2017-02-04T13:54:05Z</time>
      </trkpt>
      <trkpt lat="41.64854" lon="2.27927">
        <ele>196</ele>
        <time>2017-02-04T13:54:09Z</time>
      </trkpt>
      <trkpt lat="41.64854" lon="2.27925">
        <ele>196</ele>
        <time>2017-02-04T13:54:10Z</time>
      </trkpt>
      <trkpt lat="41.64854" lon="2.27923">
        <ele>196</ele>
        <time>2017-02-04T13:54:12Z</time>
      </trkpt>
      <trkpt lat="41.64854" lon="2.27921">
        <ele>196</ele>
        <time>2017-02-04T13:54:13Z</time>
      </trkpt>
      <trkpt lat="41.64854" lon="2.27919">
        <ele>196</ele>
        <time>2017-02-04T13:54:14Z</time>
      </trkpt>
      <trkpt lat="41.64854" lon="2.27918">
        <ele>196</ele>
        <time>2017-02-04T13:54:15Z</time>
      </trkpt>
      <trkpt lat="41.6485" lon="2.27894">
        <ele>197</ele>
        <time>2017-02-04T13:54:34Z</time>
      </trkpt>
      <trkpt lat="41.64845" lon="2.27871">
        <ele>199</ele>
        <time>2017-02-04T13:54:52Z</time>
      </trkpt>
      <trkpt lat="41.6484" lon="2.27848">
        <ele>200</ele>
        <time>2017-02-04T13:55:09Z</time>
      </trkpt>
      <trkpt lat="41.64836" lon="2.27823">
        <ele>201</ele>
        <time>2017-02-04T13:55:28Z</time>
      </trkpt>
      <trkpt lat="41.64833" lon="2.27801">
        <ele>202</ele>
        <time>2017-02-04T13:55:45Z</time>
      </trkpt>
      <trkpt lat="41.64828" lon="2.2778">
        <ele>204</ele>
        <time>2017-02-04T13:56:02Z</time>
      </trkpt>
      <trkpt lat="41.64825" lon="2.2777">
        <ele>205</ele>
        <time>2017-02-04T13:56:10Z</time>
      </trkpt>
      <trkpt lat="41.64825" lon="2.27768">
        <ele>205</ele>
        <time>2017-02-04T13:56:11Z</time>
      </trkpt>
      <trkpt lat="41.64824" lon="2.27767">
        <ele>206</ele>
        <time>2017-02-04T13:56:12Z</time>
      </trkpt>
      <trkpt lat="41.64824" lon="2.27765">
        <ele>206</ele>
        <time>2017-02-04T13:56:14Z</time>
      </trkpt>
      <trkpt lat="41.64819" lon="2.27743">
        <ele>208</ele>
        <time>2017-02-04T13:56:31Z</time>
      </trkpt>
      <trkpt lat="41.64817" lon="2.2773">
        <ele>210</ele>
        <time>2017-02-04T13:56:41Z</time>
      </trkpt>
      <trkpt lat="41.64817" lon="2.27728">
        <ele>210</ele>
        <time>2017-02-04T13:56:42Z</time>
      </trkpt>
      <trkpt lat="41.64817" lon="2.27727">
        <ele>210</ele>
        <time>2017-02-04T13:56:43Z</time>
      </trkpt>
      <trkpt lat="41.64816" lon="2.27725">
        <ele>210</ele>
        <time>2017-02-04T13:56:45Z</time>
      </trkpt>
      <trkpt lat="41.64812" lon="2.27709">
        <ele>212</ele>
        <time>2017-02-04T13:56:57Z</time>
      </trkpt>
      <trkpt lat="41.64809" lon="2.27704">
        <ele>212</ele>
        <time>2017-02-04T13:57:02Z</time>
      </trkpt>
      <trkpt lat="41.64808" lon="2.27702">
        <ele>213</ele>
        <time>2017-02-04T13:57:04Z</time>
      </trkpt>
      <trkpt lat="41.64797" lon="2.27685">
        <ele>215</ele>
        <time>2017-02-04T13:57:21Z</time>
      </trkpt>
      <trkpt lat="41.64792" lon="2.27666">
        <ele>216</ele>
        <time>2017-02-04T13:57:36Z</time>
      </trkpt>
      <trkpt lat="41.64784" lon="2.27651">
        <ele>217</ele>
        <time>2017-02-04T13:57:50Z</time>
      </trkpt>
      <trkpt lat="41.64783" lon="2.27649">
        <ele>218</ele>
        <time>2017-02-04T13:57:51Z</time>
      </trkpt>
      <trkpt lat="41.64781" lon="2.27646">
        <ele>218</ele>
        <time>2017-02-04T13:57:54Z</time>
      </trkpt>
      <trkpt lat="41.64781" lon="2.27644">
        <ele>218</ele>
        <time>2017-02-04T13:57:56Z</time>
      </trkpt>
      <trkpt lat="41.64777" lon="2.27636">
        <ele>219</ele>
        <time>2017-02-04T13:58:03Z</time>
      </trkpt>
      <trkpt lat="41.64777" lon="2.27634">
        <ele>219</ele>
        <time>2017-02-04T13:58:04Z</time>
      </trkpt>
      <trkpt lat="41.64776" lon="2.27632">
        <ele>219</ele>
        <time>2017-02-04T13:58:05Z</time>
      </trkpt>
      <trkpt lat="41.64775" lon="2.27631">
        <ele>219</ele>
        <time>2017-02-04T13:58:07Z</time>
      </trkpt>
      <trkpt lat="41.64774" lon="2.2763">
        <ele>219</ele>
        <time>2017-02-04T13:58:08Z</time>
      </trkpt>
      <trkpt lat="41.64765" lon="2.27614">
        <ele>219</ele>
        <time>2017-02-04T13:58:23Z</time>
      </trkpt>
      <trkpt lat="41.64764" lon="2.27613">
        <ele>219</ele>
        <time>2017-02-04T13:58:24Z</time>
      </trkpt>
      <trkpt lat="41.64763" lon="2.27611">
        <ele>219</ele>
        <time>2017-02-04T13:58:26Z</time>
      </trkpt>
      <trkpt lat="41.64763" lon="2.2761">
        <ele>219</ele>
        <time>2017-02-04T13:58:27Z</time>
      </trkpt>
      <trkpt lat="41.64762" lon="2.27608">
        <ele>219</ele>
        <time>2017-02-04T13:58:28Z</time>
      </trkpt>
      <trkpt lat="41.64761" lon="2.27607">
        <ele>219</ele>
        <time>2017-02-04T13:58:30Z</time>
      </trkpt>
      <trkpt lat="41.64759" lon="2.27604">
        <ele>219</ele>
        <time>2017-02-04T13:58:33Z</time>
      </trkpt>
      <trkpt lat="41.64758" lon="2.27603">
        <ele>219</ele>
        <time>2017-02-04T13:58:34Z</time>
      </trkpt>
      <trkpt lat="41.64758" lon="2.27601">
        <ele>219</ele>
        <time>2017-02-04T13:58:35Z</time>
      </trkpt>
      <trkpt lat="41.64755" lon="2.27593">
        <ele>219</ele>
        <time>2017-02-04T13:58:42Z</time>
      </trkpt>
      <trkpt lat="41.64754" lon="2.27592">
        <ele>219</ele>
        <time>2017-02-04T13:58:43Z</time>
      </trkpt>
      <trkpt lat="41.64753" lon="2.2759">
        <ele>219</ele>
        <time>2017-02-04T13:58:45Z</time>
      </trkpt>
      <trkpt lat="41.64752" lon="2.27589">
        <ele>219</ele>
        <time>2017-02-04T13:58:46Z</time>
      </trkpt>
      <trkpt lat="41.64752" lon="2.27587">
        <ele>219</ele>
        <time>2017-02-04T13:58:48Z</time>
      </trkpt>
      <trkpt lat="41.6475" lon="2.27586">
        <ele>219</ele>
        <time>2017-02-04T13:58:49Z</time>
      </trkpt>
      <trkpt lat="41.64749" lon="2.27585">
        <ele>219</ele>
        <time>2017-02-04T13:58:51Z</time>
      </trkpt>
      <trkpt lat="41.64748" lon="2.27584">
        <ele>219</ele>
        <time>2017-02-04T13:58:52Z</time>
      </trkpt>
      <trkpt lat="41.64747" lon="2.27583">
        <ele>219</ele>
        <time>2017-02-04T13:58:54Z</time>
      </trkpt>
      <trkpt lat="41.64743" lon="2.27579">
        <ele>219</ele>
        <time>2017-02-04T13:58:58Z</time>
      </trkpt>
      <trkpt lat="41.64731" lon="2.2757">
        <ele>219</ele>
        <time>2017-02-04T13:59:12Z</time>
      </trkpt>
      <trkpt lat="41.6473" lon="2.27569">
        <ele>219</ele>
        <time>2017-02-04T13:59:13Z</time>
      </trkpt>
      <trkpt lat="41.64729" lon="2.27569">
        <ele>219</ele>
        <time>2017-02-04T13:59:14Z</time>
      </trkpt>
      <trkpt lat="41.64727" lon="2.27568">
        <ele>219</ele>
        <time>2017-02-04T13:59:16Z</time>
      </trkpt>
      <trkpt lat="41.64726" lon="2.27568">
        <ele>219</ele>
        <time>2017-02-04T13:59:17Z</time>
      </trkpt>
      <trkpt lat="41.64725" lon="2.27568">
        <ele>219</ele>
        <time>2017-02-04T13:59:19Z</time>
      </trkpt>
      <trkpt lat="41.64723" lon="2.27567">
        <ele>219</ele>
        <time>2017-02-04T13:59:20Z</time>
      </trkpt>
      <trkpt lat="41.64704" lon="2.27553">
        <ele>220</ele>
        <time>2017-02-04T13:59:42Z</time>
      </trkpt>
      <trkpt lat="41.64703" lon="2.27552">
        <ele>220</ele>
        <time>2017-02-04T13:59:43Z</time>
      </trkpt>
      <trkpt lat="41.64703" lon="2.27551">
        <ele>220</ele>
        <time>2017-02-04T13:59:44Z</time>
      </trkpt>
      <trkpt lat="41.64702" lon="2.27549">
        <ele>220</ele>
        <time>2017-02-04T13:59:46Z</time>
      </trkpt>
      <trkpt lat="41.64701" lon="2.27547">
        <ele>220</ele>
        <time>2017-02-04T13:59:47Z</time>
      </trkpt>
      <trkpt lat="41.64701" lon="2.27546">
        <ele>220</ele>
        <time>2017-02-04T13:59:48Z</time>
      </trkpt>
      <trkpt lat="41.64701" lon="2.27544">
        <ele>220</ele>
        <time>2017-02-04T13:59:50Z</time>
      </trkpt>
      <trkpt lat="41.647" lon="2.27543">
        <ele>220</ele>
        <time>2017-02-04T13:59:51Z</time>
      </trkpt>
      <trkpt lat="41.647" lon="2.27541">
        <ele>220</ele>
        <time>2017-02-04T13:59:52Z</time>
      </trkpt>
      <trkpt lat="41.647" lon="2.27539">
        <ele>220</ele>
        <time>2017-02-04T13:59:54Z</time>
      </trkpt>
      <trkpt lat="41.647" lon="2.27536">
        <ele>220</ele>
        <time>2017-02-04T13:59:56Z</time>
      </trkpt>
      <trkpt lat="41.647" lon="2.27534">
        <ele>220</ele>
        <time>2017-02-04T13:59:57Z</time>
      </trkpt>
      <trkpt lat="41.647" lon="2.27533">
        <ele>219</ele>
        <time>2017-02-04T13:59:58Z</time>
      </trkpt>
      <trkpt lat="41.647" lon="2.27531">
        <ele>219</ele>
        <time>2017-02-04T14:00:00Z</time>
      </trkpt>
      <trkpt lat="41.647" lon="2.27529">
        <ele>219</ele>
        <time>2017-02-04T14:00:01Z</time>
      </trkpt>
      <trkpt lat="41.64701" lon="2.27527">
        <ele>219</ele>
        <time>2017-02-04T14:00:03Z</time>
      </trkpt>
      <trkpt lat="41.64701" lon="2.27525">
        <ele>219</ele>
        <time>2017-02-04T14:00:05Z</time>
      </trkpt>
      <trkpt lat="41.64701" lon="2.27522">
        <ele>219</ele>
        <time>2017-02-04T14:00:06Z</time>
      </trkpt>
      <trkpt lat="41.64701" lon="2.27521">
        <ele>219</ele>
        <time>2017-02-04T14:00:07Z</time>
      </trkpt>
      <trkpt lat="41.64701" lon="2.27519">
        <ele>219</ele>
        <time>2017-02-04T14:00:09Z</time>
      </trkpt>
      <trkpt lat="41.64701" lon="2.27517">
        <ele>219</ele>
        <time>2017-02-04T14:00:11Z</time>
      </trkpt>
      <trkpt lat="41.64703" lon="2.27509">
        <ele>219</ele>
        <time>2017-02-04T14:00:17Z</time>
      </trkpt>
      <trkpt lat="41.64703" lon="2.27507">
        <ele>218</ele>
        <time>2017-02-04T14:00:18Z</time>
      </trkpt>
      <trkpt lat="41.64703" lon="2.27504">
        <ele>218</ele>
        <time>2017-02-04T14:00:20Z</time>
      </trkpt>
      <trkpt lat="41.64702" lon="2.27502">
        <ele>218</ele>
        <time>2017-02-04T14:00:21Z</time>
      </trkpt>
      <trkpt lat="41.64703" lon="2.27501">
        <ele>218</ele>
        <time>2017-02-04T14:00:23Z</time>
      </trkpt>
      <trkpt lat="41.64703" lon="2.27499">
        <ele>218</ele>
        <time>2017-02-04T14:00:24Z</time>
      </trkpt>
      <trkpt lat="41.64703" lon="2.27497">
        <ele>218</ele>
        <time>2017-02-04T14:00:25Z</time>
      </trkpt>
      <trkpt lat="41.64702" lon="2.27495">
        <ele>218</ele>
        <time>2017-02-04T14:00:27Z</time>
      </trkpt>
      <trkpt lat="41.64703" lon="2.27493">
        <ele>218</ele>
        <time>2017-02-04T14:00:29Z</time>
      </trkpt>
      <trkpt lat="41.64703" lon="2.27491">
        <ele>218</ele>
        <time>2017-02-04T14:00:30Z</time>
      </trkpt>
      <trkpt lat="41.64704" lon="2.27489">
        <ele>218</ele>
        <time>2017-02-04T14:00:32Z</time>
      </trkpt>
      <trkpt lat="41.64701" lon="2.27463">
        <ele>217</ele>
        <time>2017-02-04T14:00:51Z</time>
      </trkpt>
      <trkpt lat="41.64697" lon="2.27459">
        <ele>217</ele>
        <time>2017-02-04T14:00:57Z</time>
      </trkpt>
      <trkpt lat="41.64695" lon="2.27457">
        <ele>217</ele>
        <time>2017-02-04T14:00:58Z</time>
      </trkpt>
      <trkpt lat="41.64694" lon="2.27456">
        <ele>217</ele>
        <time>2017-02-04T14:01:00Z</time>
      </trkpt>
      <trkpt lat="41.64686" lon="2.27443">
        <ele>216</ele>
        <time>2017-02-04T14:01:13Z</time>
      </trkpt>
      <trkpt lat="41.64683" lon="2.27439">
        <ele>216</ele>
        <time>2017-02-04T14:01:17Z</time>
      </trkpt>
      <trkpt lat="41.64665" lon="2.2743">
        <ele>216</ele>
        <time>2017-02-04T14:01:36Z</time>
      </trkpt>
      <trkpt lat="41.64654" lon="2.27416">
        <ele>216</ele>
        <time>2017-02-04T14:01:51Z</time>
      </trkpt>
      <trkpt lat="41.64647" lon="2.27409">
        <ele>216</ele>
        <time>2017-02-04T14:02:00Z</time>
      </trkpt>
      <trkpt lat="41.64645" lon="2.27408">
        <ele>216</ele>
        <time>2017-02-04T14:02:02Z</time>
      </trkpt>
      <trkpt lat="41.64644" lon="2.27407">
        <ele>216</ele>
        <time>2017-02-04T14:02:04Z</time>
      </trkpt>
      <trkpt lat="41.64643" lon="2.27406">
        <ele>216</ele>
        <time>2017-02-04T14:02:05Z</time>
      </trkpt>
      <trkpt lat="41.64641" lon="2.27404">
        <ele>216</ele>
        <time>2017-02-04T14:02:07Z</time>
      </trkpt>
      <trkpt lat="41.6464" lon="2.27403">
        <ele>216</ele>
        <time>2017-02-04T14:02:09Z</time>
      </trkpt>
      <trkpt lat="41.64638" lon="2.27402">
        <ele>217</ele>
        <time>2017-02-04T14:02:10Z</time>
      </trkpt>
      <trkpt lat="41.64623" lon="2.27386">
        <ele>217</ele>
        <time>2017-02-04T14:02:29Z</time>
      </trkpt>
      <trkpt lat="41.64611" lon="2.27375">
        <ele>218</ele>
        <time>2017-02-04T14:02:45Z</time>
      </trkpt>
      <trkpt lat="41.64601" lon="2.27364">
        <ele>218</ele>
        <time>2017-02-04T14:02:58Z</time>
      </trkpt>
      <trkpt lat="41.64599" lon="2.27363">
        <ele>218</ele>
        <time>2017-02-04T14:02:59Z</time>
      </trkpt>
      <trkpt lat="41.64582" lon="2.27344">
        <ele>218</ele>
        <time>2017-02-04T14:03:21Z</time>
      </trkpt>
      <trkpt lat="41.64573" lon="2.27335">
        <ele>218</ele>
        <time>2017-02-04T14:03:33Z</time>
      </trkpt>
      <trkpt lat="41.64572" lon="2.27334">
        <ele>218</ele>
        <time>2017-02-04T14:03:34Z</time>
      </trkpt>
      <trkpt lat="41.64571" lon="2.27333">
        <ele>218</ele>
        <time>2017-02-04T14:03:35Z</time>
      </trkpt>
      <trkpt lat="41.64571" lon="2.27332">
        <ele>218</ele>
        <time>2017-02-04T14:03:36Z</time>
      </trkpt>
      <trkpt lat="41.6457" lon="2.27331">
        <ele>218</ele>
        <time>2017-02-04T14:03:37Z</time>
      </trkpt>
      <trkpt lat="41.64569" lon="2.27329">
        <ele>218</ele>
        <time>2017-02-04T14:03:39Z</time>
      </trkpt>
      <trkpt lat="41.64568" lon="2.27328">
        <ele>218</ele>
        <time>2017-02-04T14:03:40Z</time>
      </trkpt>
      <trkpt lat="41.64567" lon="2.27327">
        <ele>218</ele>
        <time>2017-02-04T14:03:41Z</time>
      </trkpt>
      <trkpt lat="41.64566" lon="2.27326">
        <ele>218</ele>
        <time>2017-02-04T14:03:43Z</time>
      </trkpt>
      <trkpt lat="41.64555" lon="2.2731">
        <ele>217</ele>
        <time>2017-02-04T14:03:59Z</time>
      </trkpt>
      <trkpt lat="41.6454" lon="2.27294">
        <ele>217</ele>
        <time>2017-02-04T14:04:18Z</time>
      </trkpt>
      <trkpt lat="41.64522" lon="2.27274">
        <ele>217</ele>
        <time>2017-02-04T14:04:41Z</time>
      </trkpt>
      <trkpt lat="41.64506" lon="2.27261">
        <ele>217</ele>
        <time>2017-02-04T14:05:01Z</time>
      </trkpt>
      <trkpt lat="41.64486" lon="2.27247">
        <ele>217</ele>
        <time>2017-02-04T14:05:22Z</time>
      </trkpt>
      <trkpt lat="41.64485" lon="2.27246">
        <ele>217</ele>
        <time>2017-02-04T14:05:24Z</time>
      </trkpt>
      <trkpt lat="41.64484" lon="2.27246">
        <ele>217</ele>
        <time>2017-02-04T14:05:25Z</time>
      </trkpt>
      <trkpt lat="41.64482" lon="2.27245">
        <ele>217</ele>
        <time>2017-02-04T14:05:27Z</time>
      </trkpt>
      <trkpt lat="41.64482" lon="2.27243">
        <ele>217</ele>
        <time>2017-02-04T14:05:28Z</time>
      </trkpt>
      <trkpt lat="41.64481" lon="2.27242">
        <ele>217</ele>
        <time>2017-02-04T14:05:29Z</time>
      </trkpt>
      <trkpt lat="41.64479" lon="2.27241">
        <ele>217</ele>
        <time>2017-02-04T14:05:31Z</time>
      </trkpt>
      <trkpt lat="41.64478" lon="2.27239">
        <ele>217</ele>
        <time>2017-02-04T14:05:32Z</time>
      </trkpt>
      <trkpt lat="41.64477" lon="2.27238">
        <ele>217</ele>
        <time>2017-02-04T14:05:34Z</time>
      </trkpt>
      <trkpt lat="41.64477" lon="2.27236">
        <ele>217</ele>
        <time>2017-02-04T14:05:35Z</time>
      </trkpt>
      <trkpt lat="41.64476" lon="2.27235">
        <ele>217</ele>
        <time>2017-02-04T14:05:36Z</time>
      </trkpt>
      <trkpt lat="41.64474" lon="2.27234">
        <ele>217</ele>
        <time>2017-02-04T14:05:38Z</time>
      </trkpt>
      <trkpt lat="41.64471" lon="2.27226">
        <ele>217</ele>
        <time>2017-02-04T14:05:45Z</time>
      </trkpt>
      <trkpt lat="41.6447" lon="2.27225">
        <ele>216</ele>
        <time>2017-02-04T14:05:46Z</time>
      </trkpt>
      <trkpt lat="41.64469" lon="2.27224">
        <ele>216</ele>
        <time>2017-02-04T14:05:48Z</time>
      </trkpt>
      <trkpt lat="41.64467" lon="2.27222">
        <ele>216</ele>
        <time>2017-02-04T14:05:49Z</time>
      </trkpt>
      <trkpt lat="41.64466" lon="2.27222">
        <ele>216</ele>
        <time>2017-02-04T14:05:51Z</time>
      </trkpt>
      <trkpt lat="41.64465" lon="2.27217">
        <ele>216</ele>
        <time>2017-02-04T14:05:55Z</time>
      </trkpt>
      <trkpt lat="41.64462" lon="2.27213">
        <ele>216</ele>
        <time>2017-02-04T14:05:59Z</time>
      </trkpt>
      <trkpt lat="41.64465" lon="2.27218">
        <ele>216</ele>
        <time>2017-02-04T14:06:04Z</time>
      </trkpt>
      <trkpt lat="41.64461" lon="2.27214">
        <ele>216</ele>
        <time>2017-02-04T14:06:09Z</time>
      </trkpt>
      <trkpt lat="41.64449" lon="2.27196">
        <ele>216</ele>
        <time>2017-02-04T14:06:27Z</time>
      </trkpt>
      <trkpt lat="41.64447" lon="2.27194">
        <ele>216</ele>
        <time>2017-02-04T14:06:30Z</time>
      </trkpt>
      <trkpt lat="41.64446" lon="2.27192">
        <ele>216</ele>
        <time>2017-02-04T14:06:32Z</time>
      </trkpt>
      <trkpt lat="41.64445" lon="2.2719">
        <ele>216</ele>
        <time>2017-02-04T14:06:33Z</time>
      </trkpt>
      <trkpt lat="41.64445" lon="2.27189">
        <ele>216</ele>
        <time>2017-02-04T14:06:35Z</time>
      </trkpt>
      <trkpt lat="41.64444" lon="2.27187">
        <ele>216</ele>
        <time>2017-02-04T14:06:36Z</time>
      </trkpt>
      <trkpt lat="41.64443" lon="2.27185">
        <ele>216</ele>
        <time>2017-02-04T14:06:37Z</time>
      </trkpt>
      <trkpt lat="41.64443" lon="2.27184">
        <ele>216</ele>
        <time>2017-02-04T14:06:38Z</time>
      </trkpt>
      <trkpt lat="41.64442" lon="2.27182">
        <ele>216</ele>
        <time>2017-02-04T14:06:40Z</time>
      </trkpt>
      <trkpt lat="41.64441" lon="2.27181">
        <ele>216</ele>
        <time>2017-02-04T14:06:41Z</time>
      </trkpt>
      <trkpt lat="41.64441" lon="2.27179">
        <ele>216</ele>
        <time>2017-02-04T14:06:43Z</time>
      </trkpt>
      <trkpt lat="41.6444" lon="2.27178">
        <ele>217</ele>
        <time>2017-02-04T14:06:44Z</time>
      </trkpt>
      <trkpt lat="41.64439" lon="2.27177">
        <ele>217</ele>
        <time>2017-02-04T14:06:45Z</time>
      </trkpt>
      <trkpt lat="41.64438" lon="2.27176">
        <ele>217</ele>
        <time>2017-02-04T14:06:46Z</time>
      </trkpt>
      <trkpt lat="41.64437" lon="2.27174">
        <ele>217</ele>
        <time>2017-02-04T14:06:48Z</time>
      </trkpt>
      <trkpt lat="41.64436" lon="2.27173">
        <ele>217</ele>
        <time>2017-02-04T14:06:49Z</time>
      </trkpt>
      <trkpt lat="41.64435" lon="2.27171">
        <ele>217</ele>
        <time>2017-02-04T14:06:51Z</time>
      </trkpt>
      <trkpt lat="41.64434" lon="2.2717">
        <ele>217</ele>
        <time>2017-02-04T14:06:52Z</time>
      </trkpt>
      <trkpt lat="41.64434" lon="2.27168">
        <ele>217</ele>
        <time>2017-02-04T14:06:54Z</time>
      </trkpt>
      <trkpt lat="41.64421" lon="2.27143">
        <ele>218</ele>
        <time>2017-02-04T14:07:16Z</time>
      </trkpt>
      <trkpt lat="41.64407" lon="2.2712">
        <ele>220</ele>
        <time>2017-02-04T14:07:38Z</time>
      </trkpt>
      <trkpt lat="41.64397" lon="2.27103">
        <ele>221</ele>
        <time>2017-02-04T14:07:54Z</time>
      </trkpt>
      <trkpt lat="41.64389" lon="2.27089">
        <ele>222</ele>
        <time>2017-02-04T14:08:08Z</time>
      </trkpt>
      <trkpt lat="41.64388" lon="2.27088">
        <ele>222</ele>
        <time>2017-02-04T14:08:09Z</time>
      </trkpt>
      <trkpt lat="41.64387" lon="2.27086">
        <ele>222</ele>
        <time>2017-02-04T14:08:11Z</time>
      </trkpt>
      <trkpt lat="41.64386" lon="2.27084">
        <ele>222</ele>
        <time>2017-02-04T14:08:12Z</time>
      </trkpt>
      <trkpt lat="41.64386" lon="2.27083">
        <ele>222</ele>
        <time>2017-02-04T14:08:13Z</time>
      </trkpt>
      <trkpt lat="41.64385" lon="2.27082">
        <ele>222</ele>
        <time>2017-02-04T14:08:14Z</time>
      </trkpt>
      <trkpt lat="41.64384" lon="2.27081">
        <ele>223</ele>
        <time>2017-02-04T14:08:16Z</time>
      </trkpt>
      <trkpt lat="41.6437" lon="2.2706">
        <ele>223</ele>
        <time>2017-02-04T14:08:36Z</time>
      </trkpt>
      <trkpt lat="41.6437" lon="2.27059">
        <ele>223</ele>
        <time>2017-02-04T14:08:37Z</time>
      </trkpt>
      <trkpt lat="41.64358" lon="2.27037">
        <ele>223</ele>
        <time>2017-02-04T14:08:57Z</time>
      </trkpt>
      <trkpt lat="41.64356" lon="2.27015">
        <ele>225</ele>
        <time>2017-02-04T14:09:14Z</time>
      </trkpt>
      <trkpt lat="41.64344" lon="2.26994">
        <ele>226</ele>
        <time>2017-02-04T14:09:34Z</time>
      </trkpt>
      <trkpt lat="41.64344" lon="2.26992">
        <ele>227</ele>
        <time>2017-02-04T14:09:35Z</time>
      </trkpt>
      <trkpt lat="41.64343" lon="2.2699">
        <ele>227</ele>
        <time>2017-02-04T14:09:37Z</time>
      </trkpt>
      <trkpt lat="41.6433" lon="2.26969">
        <ele>229</ele>
        <time>2017-02-04T14:09:58Z</time>
      </trkpt>
      <trkpt lat="41.6432" lon="2.2695">
        <ele>229</ele>
        <time>2017-02-04T14:10:15Z</time>
      </trkpt>
      <trkpt lat="41.64308" lon="2.26934">
        <ele>229</ele>
        <time>2017-02-04T14:10:32Z</time>
      </trkpt>
      <trkpt lat="41.64307" lon="2.26932">
        <ele>229</ele>
        <time>2017-02-04T14:10:33Z</time>
      </trkpt>
      <trkpt lat="41.64306" lon="2.26931">
        <ele>229</ele>
        <time>2017-02-04T14:10:35Z</time>
      </trkpt>
      <trkpt lat="41.64306" lon="2.26929">
        <ele>229</ele>
        <time>2017-02-04T14:10:36Z</time>
      </trkpt>
      <trkpt lat="41.64305" lon="2.26928">
        <ele>229</ele>
        <time>2017-02-04T14:10:37Z</time>
      </trkpt>
      <trkpt lat="41.64305" lon="2.26926">
        <ele>229</ele>
        <time>2017-02-04T14:10:39Z</time>
      </trkpt>
      <trkpt lat="41.64304" lon="2.26925">
        <ele>229</ele>
        <time>2017-02-04T14:10:40Z</time>
      </trkpt>
      <trkpt lat="41.64304" lon="2.26923">
        <ele>229</ele>
        <time>2017-02-04T14:10:41Z</time>
      </trkpt>
      <trkpt lat="41.64304" lon="2.2692">
        <ele>229</ele>
        <time>2017-02-04T14:10:43Z</time>
      </trkpt>
      <trkpt lat="41.64305" lon="2.26918">
        <ele>229</ele>
        <time>2017-02-04T14:10:45Z</time>
      </trkpt>
      <trkpt lat="41.64305" lon="2.26916">
        <ele>229</ele>
        <time>2017-02-04T14:10:46Z</time>
      </trkpt>
      <trkpt lat="41.64305" lon="2.26915">
        <ele>230</ele>
        <time>2017-02-04T14:10:48Z</time>
      </trkpt>
      <trkpt lat="41.64306" lon="2.26913">
        <ele>230</ele>
        <time>2017-02-04T14:10:49Z</time>
      </trkpt>
      <trkpt lat="41.64306" lon="2.26911">
        <ele>230</ele>
        <time>2017-02-04T14:10:51Z</time>
      </trkpt>
      <trkpt lat="41.64306" lon="2.26909">
        <ele>230</ele>
        <time>2017-02-04T14:10:52Z</time>
      </trkpt>
      <trkpt lat="41.64306" lon="2.26908">
        <ele>230</ele>
        <time>2017-02-04T14:10:53Z</time>
      </trkpt>
      <trkpt lat="41.64306" lon="2.26906">
        <ele>230</ele>
        <time>2017-02-04T14:10:54Z</time>
      </trkpt>
      <trkpt lat="41.64306" lon="2.26904">
        <ele>230</ele>
        <time>2017-02-04T14:10:56Z</time>
      </trkpt>
      <trkpt lat="41.64306" lon="2.26903">
        <ele>230</ele>
        <time>2017-02-04T14:10:57Z</time>
      </trkpt>
      <trkpt lat="41.64306" lon="2.26901">
        <ele>230</ele>
        <time>2017-02-04T14:10:58Z</time>
      </trkpt>
      <trkpt lat="41.64306" lon="2.26899">
        <ele>230</ele>
        <time>2017-02-04T14:11:00Z</time>
      </trkpt>
      <trkpt lat="41.64306" lon="2.26897">
        <ele>230</ele>
        <time>2017-02-04T14:11:01Z</time>
      </trkpt>
      <trkpt lat="41.64306" lon="2.26895">
        <ele>230</ele>
        <time>2017-02-04T14:11:03Z</time>
      </trkpt>
      <trkpt lat="41.64306" lon="2.26893">
        <ele>230</ele>
        <time>2017-02-04T14:11:04Z</time>
      </trkpt>
      <trkpt lat="41.64305" lon="2.26889">
        <ele>230</ele>
        <time>2017-02-04T14:11:08Z</time>
      </trkpt>
      <trkpt lat="41.64305" lon="2.26887">
        <ele>230</ele>
        <time>2017-02-04T14:11:09Z</time>
      </trkpt>
      <trkpt lat="41.64304" lon="2.26885">
        <ele>230</ele>
        <time>2017-02-04T14:11:10Z</time>
      </trkpt>
      <trkpt lat="41.64304" lon="2.26883">
        <ele>230</ele>
        <time>2017-02-04T14:11:12Z</time>
      </trkpt>
      <trkpt lat="41.64305" lon="2.26881">
        <ele>231</ele>
        <time>2017-02-04T14:11:13Z</time>
      </trkpt>
      <trkpt lat="41.64307" lon="2.26859">
        <ele>232</ele>
        <time>2017-02-04T14:11:30Z</time>
      </trkpt>
      <trkpt lat="41.64307" lon="2.26856">
        <ele>232</ele>
        <time>2017-02-04T14:11:33Z</time>
      </trkpt>
      <trkpt lat="41.64307" lon="2.26854">
        <ele>232</ele>
        <time>2017-02-04T14:11:34Z</time>
      </trkpt>
      <trkpt lat="41.64307" lon="2.26852">
        <ele>232</ele>
        <time>2017-02-04T14:11:35Z</time>
      </trkpt>
      <trkpt lat="41.64307" lon="2.2685">
        <ele>232</ele>
        <time>2017-02-04T14:11:37Z</time>
      </trkpt>
      <trkpt lat="41.64306" lon="2.26848">
        <ele>232</ele>
        <time>2017-02-04T14:11:38Z</time>
      </trkpt>
      <trkpt lat="41.64305" lon="2.26844">
        <ele>231</ele>
        <time>2017-02-04T14:11:42Z</time>
      </trkpt>
      <trkpt lat="41.64304" lon="2.26842">
        <ele>231</ele>
        <time>2017-02-04T14:11:43Z</time>
      </trkpt>
      <trkpt lat="41.64304" lon="2.2684">
        <ele>231</ele>
        <time>2017-02-04T14:11:45Z</time>
      </trkpt>
      <trkpt lat="41.64304" lon="2.26838">
        <ele>231</ele>
        <time>2017-02-04T14:11:46Z</time>
      </trkpt>
      <trkpt lat="41.64303" lon="2.26837">
        <ele>231</ele>
        <time>2017-02-04T14:11:47Z</time>
      </trkpt>
      <trkpt lat="41.64302" lon="2.26835">
        <ele>231</ele>
        <time>2017-02-04T14:11:49Z</time>
      </trkpt>
      <trkpt lat="41.64301" lon="2.26834">
        <ele>231</ele>
        <time>2017-02-04T14:11:50Z</time>
      </trkpt>
      <trkpt lat="41.64284" lon="2.26812">
        <ele>227</ele>
        <time>2017-02-04T14:12:14Z</time>
      </trkpt>
      <trkpt lat="41.64283" lon="2.26811">
        <ele>226</ele>
        <time>2017-02-04T14:12:15Z</time>
      </trkpt>
      <trkpt lat="41.64282" lon="2.2681">
        <ele>226</ele>
        <time>2017-02-04T14:12:17Z</time>
      </trkpt>
      <trkpt lat="41.64281" lon="2.26809">
        <ele>226</ele>
        <time>2017-02-04T14:12:18Z</time>
      </trkpt>
      <trkpt lat="41.64279" lon="2.26808">
        <ele>226</ele>
        <time>2017-02-04T14:12:19Z</time>
      </trkpt>
      <trkpt lat="41.64278" lon="2.26807">
        <ele>226</ele>
        <time>2017-02-04T14:12:21Z</time>
      </trkpt>
      <trkpt lat="41.64277" lon="2.26806">
        <ele>225</ele>
        <time>2017-02-04T14:12:23Z</time>
      </trkpt>
      <trkpt lat="41.64275" lon="2.26805">
        <ele>225</ele>
        <time>2017-02-04T14:12:24Z</time>
      </trkpt>
      <trkpt lat="41.64274" lon="2.26804">
        <ele>225</ele>
        <time>2017-02-04T14:12:26Z</time>
      </trkpt>
      <trkpt lat="41.64273" lon="2.26803">
        <ele>225</ele>
        <time>2017-02-04T14:12:27Z</time>
      </trkpt>
      <trkpt lat="41.64262" lon="2.26793">
        <ele>223</ele>
        <time>2017-02-04T14:12:40Z</time>
      </trkpt>
      <trkpt lat="41.64261" lon="2.2679">
        <ele>223</ele>
        <time>2017-02-04T14:12:42Z</time>
      </trkpt>
      <trkpt lat="41.64261" lon="2.26789">
        <ele>223</ele>
        <time>2017-02-04T14:12:43Z</time>
      </trkpt>
      <trkpt lat="41.64257" lon="2.26786">
        <ele>223</ele>
        <time>2017-02-04T14:12:47Z</time>
      </trkpt>
      <trkpt lat="41.64257" lon="2.26785">
        <ele>223</ele>
        <time>2017-02-04T14:12:49Z</time>
      </trkpt>
      <trkpt lat="41.64255" lon="2.26781">
        <ele>223</ele>
        <time>2017-02-04T14:12:52Z</time>
      </trkpt>
      <trkpt lat="41.64254" lon="2.26779">
        <ele>223</ele>
        <time>2017-02-04T14:12:53Z</time>
      </trkpt>
      <trkpt lat="41.64254" lon="2.26777">
        <ele>223</ele>
        <time>2017-02-04T14:12:55Z</time>
      </trkpt>
      <trkpt lat="41.64254" lon="2.26775">
        <ele>223</ele>
        <time>2017-02-04T14:12:56Z</time>
      </trkpt>
      <trkpt lat="41.64253" lon="2.26773">
        <ele>223</ele>
        <time>2017-02-04T14:12:58Z</time>
      </trkpt>
      <trkpt lat="41.64253" lon="2.26771">
        <ele>223</ele>
        <time>2017-02-04T14:12:59Z</time>
      </trkpt>
      <trkpt lat="41.64252" lon="2.2677">
        <ele>223</ele>
        <time>2017-02-04T14:13:01Z</time>
      </trkpt>
      <trkpt lat="41.64251" lon="2.26762">
        <ele>223</ele>
        <time>2017-02-04T14:13:07Z</time>
      </trkpt>
      <trkpt lat="41.64251" lon="2.2676">
        <ele>223</ele>
        <time>2017-02-04T14:13:08Z</time>
      </trkpt>
      <trkpt lat="41.6425" lon="2.26758">
        <ele>223</ele>
        <time>2017-02-04T14:13:10Z</time>
      </trkpt>
      <trkpt lat="41.6425" lon="2.26756">
        <ele>223</ele>
        <time>2017-02-04T14:13:11Z</time>
      </trkpt>
      <trkpt lat="41.6425" lon="2.26754">
        <ele>223</ele>
        <time>2017-02-04T14:13:13Z</time>
      </trkpt>
      <trkpt lat="41.64249" lon="2.26753">
        <ele>223</ele>
        <time>2017-02-04T14:13:14Z</time>
      </trkpt>
      <trkpt lat="41.64249" lon="2.26751">
        <ele>224</ele>
        <time>2017-02-04T14:13:15Z</time>
      </trkpt>
      <trkpt lat="41.64248" lon="2.2675">
        <ele>224</ele>
        <time>2017-02-04T14:13:16Z</time>
      </trkpt>
      <trkpt lat="41.64248" lon="2.26748">
        <ele>224</ele>
        <time>2017-02-04T14:13:18Z</time>
      </trkpt>
      <trkpt lat="41.64247" lon="2.26746">
        <ele>224</ele>
        <time>2017-02-04T14:13:19Z</time>
      </trkpt>
      <trkpt lat="41.64244" lon="2.26729">
        <ele>224</ele>
        <time>2017-02-04T14:13:32Z</time>
      </trkpt>
      <trkpt lat="41.6424" lon="2.26719">
        <ele>224</ele>
        <time>2017-02-04T14:13:40Z</time>
      </trkpt>
      <trkpt lat="41.64236" lon="2.26683">
        <ele>226</ele>
        <time>2017-02-04T14:14:08Z</time>
      </trkpt>
      <trkpt lat="41.64236" lon="2.2668">
        <ele>226</ele>
        <time>2017-02-04T14:14:10Z</time>
      </trkpt>
      <trkpt lat="41.64235" lon="2.26679">
        <ele>226</ele>
        <time>2017-02-04T14:14:11Z</time>
      </trkpt>
      <trkpt lat="41.64235" lon="2.26677">
        <ele>226</ele>
        <time>2017-02-04T14:14:12Z</time>
      </trkpt>
      <trkpt lat="41.64234" lon="2.26676">
        <ele>227</ele>
        <time>2017-02-04T14:14:14Z</time>
      </trkpt>
      <trkpt lat="41.64233" lon="2.26674">
        <ele>227</ele>
        <time>2017-02-04T14:14:15Z</time>
      </trkpt>
      <trkpt lat="41.64233" lon="2.26673">
        <ele>227</ele>
        <time>2017-02-04T14:14:16Z</time>
      </trkpt>
      <trkpt lat="41.64231" lon="2.26672">
        <ele>227</ele>
        <time>2017-02-04T14:14:18Z</time>
      </trkpt>
      <trkpt lat="41.6423" lon="2.26671">
        <ele>227</ele>
        <time>2017-02-04T14:14:19Z</time>
      </trkpt>
      <trkpt lat="41.64229" lon="2.2667">
        <ele>227</ele>
        <time>2017-02-04T14:14:20Z</time>
      </trkpt>
      <trkpt lat="41.64228" lon="2.26669">
        <ele>227</ele>
        <time>2017-02-04T14:14:22Z</time>
      </trkpt>
      <trkpt lat="41.64227" lon="2.26668">
        <ele>227</ele>
        <time>2017-02-04T14:14:23Z</time>
      </trkpt>
      <trkpt lat="41.64226" lon="2.26667">
        <ele>227</ele>
        <time>2017-02-04T14:14:24Z</time>
      </trkpt>
      <trkpt lat="41.64225" lon="2.26666">
        <ele>227</ele>
        <time>2017-02-04T14:14:26Z</time>
      </trkpt>
      <trkpt lat="41.64222" lon="2.26657">
        <ele>228</ele>
        <time>2017-02-04T14:14:33Z</time>
      </trkpt>
      <trkpt lat="41.64223" lon="2.26655">
        <ele>228</ele>
        <time>2017-02-04T14:14:34Z</time>
      </trkpt>
      <trkpt lat="41.64223" lon="2.26653">
        <ele>228</ele>
        <time>2017-02-04T14:14:36Z</time>
      </trkpt>
      <trkpt lat="41.64223" lon="2.26651">
        <ele>228</ele>
        <time>2017-02-04T14:14:37Z</time>
      </trkpt>
      <trkpt lat="41.64224" lon="2.26649">
        <ele>228</ele>
        <time>2017-02-04T14:14:39Z</time>
      </trkpt>
      <trkpt lat="41.64224" lon="2.26642">
        <ele>228</ele>
        <time>2017-02-04T14:14:45Z</time>
      </trkpt>
      <trkpt lat="41.64224" lon="2.2664">
        <ele>228</ele>
        <time>2017-02-04T14:14:46Z</time>
      </trkpt>
      <trkpt lat="41.64226" lon="2.26613">
        <ele>227</ele>
        <time>2017-02-04T14:15:06Z</time>
      </trkpt>
      <trkpt lat="41.64226" lon="2.26611">
        <ele>227</ele>
        <time>2017-02-04T14:15:08Z</time>
      </trkpt>
      <trkpt lat="41.64226" lon="2.2661">
        <ele>227</ele>
        <time>2017-02-04T14:15:09Z</time>
      </trkpt>
      <trkpt lat="41.64225" lon="2.26608">
        <ele>227</ele>
        <time>2017-02-04T14:15:10Z</time>
      </trkpt>
      <trkpt lat="41.64219" lon="2.26597">
        <ele>227</ele>
        <time>2017-02-04T14:15:21Z</time>
      </trkpt>
      <trkpt lat="41.64218" lon="2.26596">
        <ele>228</ele>
        <time>2017-02-04T14:15:22Z</time>
      </trkpt>
      <trkpt lat="41.64217" lon="2.26595">
        <ele>228</ele>
        <time>2017-02-04T14:15:23Z</time>
      </trkpt>
      <trkpt lat="41.64216" lon="2.26593">
        <ele>228</ele>
        <time>2017-02-04T14:15:25Z</time>
      </trkpt>
      <trkpt lat="41.64216" lon="2.26591">
        <ele>228</ele>
        <time>2017-02-04T14:15:26Z</time>
      </trkpt>
      <trkpt lat="41.64215" lon="2.26589">
        <ele>228</ele>
        <time>2017-02-04T14:15:27Z</time>
      </trkpt>
      <trkpt lat="41.64215" lon="2.26588">
        <ele>228</ele>
        <time>2017-02-04T14:15:29Z</time>
      </trkpt>
      <trkpt lat="41.64215" lon="2.26586">
        <ele>228</ele>
        <time>2017-02-04T14:15:30Z</time>
      </trkpt>
      <trkpt lat="41.64215" lon="2.26584">
        <ele>228</ele>
        <time>2017-02-04T14:15:31Z</time>
      </trkpt>
      <trkpt lat="41.64214" lon="2.26583">
        <ele>228</ele>
        <time>2017-02-04T14:15:33Z</time>
      </trkpt>
      <trkpt lat="41.64214" lon="2.26581">
        <ele>228</ele>
        <time>2017-02-04T14:15:34Z</time>
      </trkpt>
      <trkpt lat="41.64214" lon="2.26579">
        <ele>228</ele>
        <time>2017-02-04T14:15:36Z</time>
      </trkpt>
      <trkpt lat="41.64207" lon="2.26568">
        <ele>229</ele>
        <time>2017-02-04T14:15:46Z</time>
      </trkpt>
      <trkpt lat="41.64206" lon="2.26567">
        <ele>229</ele>
        <time>2017-02-04T14:15:48Z</time>
      </trkpt>
      <trkpt lat="41.64205" lon="2.26565">
        <ele>229</ele>
        <time>2017-02-04T14:15:49Z</time>
      </trkpt>
      <trkpt lat="41.64204" lon="2.26564">
        <ele>230</ele>
        <time>2017-02-04T14:15:50Z</time>
      </trkpt>
      <trkpt lat="41.64203" lon="2.26562">
        <ele>230</ele>
        <time>2017-02-04T14:15:52Z</time>
      </trkpt>
      <trkpt lat="41.642" lon="2.26555">
        <ele>231</ele>
        <time>2017-02-04T14:15:59Z</time>
      </trkpt>
      <trkpt lat="41.64199" lon="2.26553">
        <ele>231</ele>
        <time>2017-02-04T14:16:00Z</time>
      </trkpt>
      <trkpt lat="41.64199" lon="2.26551">
        <ele>231</ele>
        <time>2017-02-04T14:16:01Z</time>
      </trkpt>
      <trkpt lat="41.64198" lon="2.26549">
        <ele>231</ele>
        <time>2017-02-04T14:16:03Z</time>
      </trkpt>
      <trkpt lat="41.64198" lon="2.26548">
        <ele>231</ele>
        <time>2017-02-04T14:16:04Z</time>
      </trkpt>
      <trkpt lat="41.64197" lon="2.26546">
        <ele>231</ele>
        <time>2017-02-04T14:16:05Z</time>
      </trkpt>
      <trkpt lat="41.64197" lon="2.26545">
        <ele>231</ele>
        <time>2017-02-04T14:16:06Z</time>
      </trkpt>
      <trkpt lat="41.64194" lon="2.26541">
        <ele>232</ele>
        <time>2017-02-04T14:16:10Z</time>
      </trkpt>
      <trkpt lat="41.64194" lon="2.2654">
        <ele>232</ele>
        <time>2017-02-04T14:16:12Z</time>
      </trkpt>
      <trkpt lat="41.64194" lon="2.26538">
        <ele>232</ele>
        <time>2017-02-04T14:16:13Z</time>
      </trkpt>
      <trkpt lat="41.64194" lon="2.26537">
        <ele>232</ele>
        <time>2017-02-04T14:16:14Z</time>
      </trkpt>
      <trkpt lat="41.64194" lon="2.26535">
        <ele>232</ele>
        <time>2017-02-04T14:16:15Z</time>
      </trkpt>
      <trkpt lat="41.64196" lon="2.26519">
        <ele>232</ele>
        <time>2017-02-04T14:16:27Z</time>
      </trkpt>
      <trkpt lat="41.64195" lon="2.26518">
        <ele>232</ele>
        <time>2017-02-04T14:16:28Z</time>
      </trkpt>
      <trkpt lat="41.64196" lon="2.26516">
        <ele>231</ele>
        <time>2017-02-04T14:16:30Z</time>
      </trkpt>
      <trkpt lat="41.64196" lon="2.26515">
        <ele>231</ele>
        <time>2017-02-04T14:16:31Z</time>
      </trkpt>
      <trkpt lat="41.64196" lon="2.26513">
        <ele>231</ele>
        <time>2017-02-04T14:16:32Z</time>
      </trkpt>
      <trkpt lat="41.64197" lon="2.26511">
        <ele>231</ele>
        <time>2017-02-04T14:16:34Z</time>
      </trkpt>
      <trkpt lat="41.64197" lon="2.26509">
        <ele>231</ele>
        <time>2017-02-04T14:16:35Z</time>
      </trkpt>
      <trkpt lat="41.64198" lon="2.26507">
        <ele>231</ele>
        <time>2017-02-04T14:16:37Z</time>
      </trkpt>
      <trkpt lat="41.64198" lon="2.26505">
        <ele>230</ele>
        <time>2017-02-04T14:16:38Z</time>
      </trkpt>
      <trkpt lat="41.64199" lon="2.26494">
        <ele>230</ele>
        <time>2017-02-04T14:16:47Z</time>
      </trkpt>
      <trkpt lat="41.64199" lon="2.26491">
        <ele>230</ele>
        <time>2017-02-04T14:16:49Z</time>
      </trkpt>
      <trkpt lat="41.642" lon="2.26489">
        <ele>229</ele>
        <time>2017-02-04T14:16:50Z</time>
      </trkpt>
      <trkpt lat="41.642" lon="2.26487">
        <ele>229</ele>
        <time>2017-02-04T14:16:52Z</time>
      </trkpt>
      <trkpt lat="41.64199" lon="2.26485">
        <ele>229</ele>
        <time>2017-02-04T14:16:54Z</time>
      </trkpt>
      <trkpt lat="41.642" lon="2.26483">
        <ele>229</ele>
        <time>2017-02-04T14:16:55Z</time>
      </trkpt>
      <trkpt lat="41.642" lon="2.26481">
        <ele>229</ele>
        <time>2017-02-04T14:16:57Z</time>
      </trkpt>
      <trkpt lat="41.64201" lon="2.26479">
        <ele>229</ele>
        <time>2017-02-04T14:16:58Z</time>
      </trkpt>
      <trkpt lat="41.64201" lon="2.26476">
        <ele>229</ele>
        <time>2017-02-04T14:17:00Z</time>
      </trkpt>
      <trkpt lat="41.64201" lon="2.26474">
        <ele>229</ele>
        <time>2017-02-04T14:17:02Z</time>
      </trkpt>
      <trkpt lat="41.64201" lon="2.26472">
        <ele>229</ele>
        <time>2017-02-04T14:17:03Z</time>
      </trkpt>
      <trkpt lat="41.64201" lon="2.26471">
        <ele>228</ele>
        <time>2017-02-04T14:17:04Z</time>
      </trkpt>
      <trkpt lat="41.64202" lon="2.26469">
        <ele>228</ele>
        <time>2017-02-04T14:17:06Z</time>
      </trkpt>
      <trkpt lat="41.64207" lon="2.2645">
        <ele>228</ele>
        <time>2017-02-04T14:17:21Z</time>
      </trkpt>
      <trkpt lat="41.64208" lon="2.26442">
        <ele>227</ele>
        <time>2017-02-04T14:17:27Z</time>
      </trkpt>
      <trkpt lat="41.64209" lon="2.26439">
        <ele>227</ele>
        <time>2017-02-04T14:17:29Z</time>
      </trkpt>
      <trkpt lat="41.6421" lon="2.26437">
        <ele>227</ele>
        <time>2017-02-04T14:17:31Z</time>
      </trkpt>
      <trkpt lat="41.6421" lon="2.26436">
        <ele>227</ele>
        <time>2017-02-04T14:17:32Z</time>
      </trkpt>
      <trkpt lat="41.64211" lon="2.26434">
        <ele>227</ele>
        <time>2017-02-04T14:17:33Z</time>
      </trkpt>
      <trkpt lat="41.64213" lon="2.26431">
        <ele>226</ele>
        <time>2017-02-04T14:17:36Z</time>
      </trkpt>
      <trkpt lat="41.64213" lon="2.26429">
        <ele>226</ele>
        <time>2017-02-04T14:17:38Z</time>
      </trkpt>
      <trkpt lat="41.64213" lon="2.26428">
        <ele>226</ele>
        <time>2017-02-04T14:17:39Z</time>
      </trkpt>
      <trkpt lat="41.64222" lon="2.26396">
        <ele>221</ele>
        <time>2017-02-04T14:18:04Z</time>
      </trkpt>
      <trkpt lat="41.64233" lon="2.26369">
        <ele>216</ele>
        <time>2017-02-04T14:18:27Z</time>
      </trkpt>
      <trkpt lat="41.64243" lon="2.26332">
        <ele>213</ele>
        <time>2017-02-04T14:18:57Z</time>
      </trkpt>
      <trkpt lat="41.64252" lon="2.26289">
        <ele>213</ele>
        <time>2017-02-04T14:19:30Z</time>
      </trkpt>
      <trkpt lat="41.64255" lon="2.26245">
        <ele>211</ele>
        <time>2017-02-04T14:20:03Z</time>
      </trkpt>
      <trkpt lat="41.64252" lon="2.26207">
        <ele>210</ele>
        <time>2017-02-04T14:20:32Z</time>
      </trkpt>
      <trkpt lat="41.64244" lon="2.26172">
        <ele>210</ele>
        <time>2017-02-04T14:20:59Z</time>
      </trkpt>
      <trkpt lat="41.64231" lon="2.26133">
        <ele>209</ele>
        <time>2017-02-04T14:21:31Z</time>
      </trkpt>
      <trkpt lat="41.64218" lon="2.26108">
        <ele>207</ele>
        <time>2017-02-04T14:21:53Z</time>
      </trkpt>
      <trkpt lat="41.64205" lon="2.2608">
        <ele>204</ele>
        <time>2017-02-04T14:22:18Z</time>
      </trkpt>
      <trkpt lat="41.64194" lon="2.26052">
        <ele>202</ele>
        <time>2017-02-04T14:22:42Z</time>
      </trkpt>
      <trkpt lat="41.64191" lon="2.26017">
        <ele>202</ele>
        <time>2017-02-04T14:23:08Z</time>
      </trkpt>
      <trkpt lat="41.64193" lon="2.25974">
        <ele>200</ele>
        <time>2017-02-04T14:23:40Z</time>
      </trkpt>
      <trkpt lat="41.64205" lon="2.25937">
        <ele>198</ele>
        <time>2017-02-04T14:24:11Z</time>
      </trkpt>
      <trkpt lat="41.64225" lon="2.25906">
        <ele>194</ele>
        <time>2017-02-04T14:24:42Z</time>
      </trkpt>
      <trkpt lat="41.64242" lon="2.25883">
        <ele>193</ele>
        <time>2017-02-04T14:25:06Z</time>
      </trkpt>
      <trkpt lat="41.64266" lon="2.25864">
        <ele>194</ele>
        <time>2017-02-04T14:25:34Z</time>
      </trkpt>
      <trkpt lat="41.64288" lon="2.25854">
        <ele>195</ele>
        <time>2017-02-04T14:25:57Z</time>
      </trkpt>
      <trkpt lat="41.64302" lon="2.25839">
        <ele>195</ele>
        <time>2017-02-04T14:26:15Z</time>
      </trkpt>
      <trkpt lat="41.64302" lon="2.25837">
        <ele>195</ele>
        <time>2017-02-04T14:26:16Z</time>
      </trkpt>
      <trkpt lat="41.64303" lon="2.25836">
        <ele>195</ele>
        <time>2017-02-04T14:26:17Z</time>
      </trkpt>
      <trkpt lat="41.64303" lon="2.25835">
        <ele>196</ele>
        <time>2017-02-04T14:26:19Z</time>
      </trkpt>
      <trkpt lat="41.64304" lon="2.25833">
        <ele>196</ele>
        <time>2017-02-04T14:26:20Z</time>
      </trkpt>
      <trkpt lat="41.64308" lon="2.25804">
        <ele>198</ele>
        <time>2017-02-04T14:26:42Z</time>
      </trkpt>
      <trkpt lat="41.64308" lon="2.25793">
        <ele>199</ele>
        <time>2017-02-04T14:26:50Z</time>
      </trkpt>
      <trkpt lat="41.64305" lon="2.25774">
        <ele>201</ele>
        <time>2017-02-04T14:27:05Z</time>
      </trkpt>
      <trkpt lat="41.64303" lon="2.25768">
        <ele>202</ele>
        <time>2017-02-04T14:27:10Z</time>
      </trkpt>
      <trkpt lat="41.64302" lon="2.25766">
        <ele>202</ele>
        <time>2017-02-04T14:27:11Z</time>
      </trkpt>
      <trkpt lat="41.64297" lon="2.25748">
        <ele>204</ele>
        <time>2017-02-04T14:27:26Z</time>
      </trkpt>
      <trkpt lat="41.64296" lon="2.2573">
        <ele>207</ele>
        <time>2017-02-04T14:27:39Z</time>
      </trkpt>
      <trkpt lat="41.64303" lon="2.25702">
        <ele>210</ele>
        <time>2017-02-04T14:28:01Z</time>
      </trkpt>
      <trkpt lat="41.64316" lon="2.25681">
        <ele>212</ele>
        <time>2017-02-04T14:28:22Z</time>
      </trkpt>
      <trkpt lat="41.64317" lon="2.25679">
        <ele>212</ele>
        <time>2017-02-04T14:28:24Z</time>
      </trkpt>
      <trkpt lat="41.64318" lon="2.25678">
        <ele>212</ele>
        <time>2017-02-04T14:28:25Z</time>
      </trkpt>
      <trkpt lat="41.64319" lon="2.25677">
        <ele>212</ele>
        <time>2017-02-04T14:28:26Z</time>
      </trkpt>
      <trkpt lat="41.6432" lon="2.25676">
        <ele>212</ele>
        <time>2017-02-04T14:28:27Z</time>
      </trkpt>
      <trkpt lat="41.6432" lon="2.25675">
        <ele>212</ele>
        <time>2017-02-04T14:28:28Z</time>
      </trkpt>
      <trkpt lat="41.64335" lon="2.25657">
        <ele>214</ele>
        <time>2017-02-04T14:28:48Z</time>
      </trkpt>
      <trkpt lat="41.64356" lon="2.25643">
        <ele>216</ele>
        <time>2017-02-04T14:29:11Z</time>
      </trkpt>
      <trkpt lat="41.64384" lon="2.25638">
        <ele>217</ele>
        <time>2017-02-04T14:29:40Z</time>
      </trkpt>
      <trkpt lat="41.64406" lon="2.25643">
        <ele>218</ele>
        <time>2017-02-04T14:30:02Z</time>
      </trkpt>
      <trkpt lat="41.64425" lon="2.25632">
        <ele>220</ele>
        <time>2017-02-04T14:30:23Z</time>
      </trkpt>
      <trkpt lat="41.64437" lon="2.25627">
        <ele>221</ele>
        <time>2017-02-04T14:30:35Z</time>
      </trkpt>
      <trkpt lat="41.64438" lon="2.25627">
        <ele>221</ele>
        <time>2017-02-04T14:30:37Z</time>
      </trkpt>
      <trkpt lat="41.64462" lon="2.25628">
        <ele>222</ele>
        <time>2017-02-04T14:31:00Z</time>
      </trkpt>
      <trkpt lat="41.64466" lon="2.25629">
        <ele>223</ele>
        <time>2017-02-04T14:31:05Z</time>
      </trkpt>
      <trkpt lat="41.64483" lon="2.25628">
        <ele>223</ele>
        <time>2017-02-04T14:31:21Z</time>
      </trkpt>
      <trkpt lat="41.64512" lon="2.25624">
        <ele>222</ele>
        <time>2017-02-04T14:31:51Z</time>
      </trkpt>
      <trkpt lat="41.64545" lon="2.25615">
        <ele>220</ele>
        <time>2017-02-04T14:32:24Z</time>
      </trkpt>
      <trkpt lat="41.64577" lon="2.25604">
        <ele>220</ele>
        <time>2017-02-04T14:32:57Z</time>
      </trkpt>
      <trkpt lat="41.64605" lon="2.25593">
        <ele>220</ele>
        <time>2017-02-04T14:33:27Z</time>
      </trkpt>
      <trkpt lat="41.64626" lon="2.25586">
        <ele>221</ele>
        <time>2017-02-04T14:33:48Z</time>
      </trkpt>
      <trkpt lat="41.6463" lon="2.25572">
        <ele>220</ele>
        <time>2017-02-04T14:33:59Z</time>
      </trkpt>
      <trkpt lat="41.64631" lon="2.25571">
        <ele>220</ele>
        <time>2017-02-04T14:34:00Z</time>
      </trkpt>
      <trkpt lat="41.64631" lon="2.25569">
        <ele>220</ele>
        <time>2017-02-04T14:34:02Z</time>
      </trkpt>
      <trkpt lat="41.64636" lon="2.25549">
        <ele>219</ele>
        <time>2017-02-04T14:34:17Z</time>
      </trkpt>
      <trkpt lat="41.64639" lon="2.25546">
        <ele>219</ele>
        <time>2017-02-04T14:34:21Z</time>
      </trkpt>
      <trkpt lat="41.6464" lon="2.25545">
        <ele>219</ele>
        <time>2017-02-04T14:34:22Z</time>
      </trkpt>
      <trkpt lat="41.64641" lon="2.25543">
        <ele>219</ele>
        <time>2017-02-04T14:34:24Z</time>
      </trkpt>
      <trkpt lat="41.64642" lon="2.25542">
        <ele>219</ele>
        <time>2017-02-04T14:34:25Z</time>
      </trkpt>
      <trkpt lat="41.64643" lon="2.25541">
        <ele>219</ele>
        <time>2017-02-04T14:34:27Z</time>
      </trkpt>
      <trkpt lat="41.64644" lon="2.25539">
        <ele>219</ele>
        <time>2017-02-04T14:34:28Z</time>
      </trkpt>
      <trkpt lat="41.64645" lon="2.25538">
        <ele>219</ele>
        <time>2017-02-04T14:34:29Z</time>
      </trkpt>
      <trkpt lat="41.64665" lon="2.25525">
        <ele>219</ele>
        <time>2017-02-04T14:34:52Z</time>
      </trkpt>
      <trkpt lat="41.64688" lon="2.25507">
        <ele>217</ele>
        <time>2017-02-04T14:35:19Z</time>
      </trkpt>
      <trkpt lat="41.64697" lon="2.25478">
        <ele>214</ele>
        <time>2017-02-04T14:35:42Z</time>
      </trkpt>
      <trkpt lat="41.64701" lon="2.25449">
        <ele>211</ele>
        <time>2017-02-04T14:36:04Z</time>
      </trkpt>
      <trkpt lat="41.64714" lon="2.25421">
        <ele>208</ele>
        <time>2017-02-04T14:36:28Z</time>
      </trkpt>
      <trkpt lat="41.64733" lon="2.254">
        <ele>205</ele>
        <time>2017-02-04T14:36:53Z</time>
      </trkpt>
      <trkpt lat="41.64743" lon="2.25381">
        <ele>202</ele>
        <time>2017-02-04T14:37:10Z</time>
      </trkpt>
      <trkpt lat="41.64752" lon="2.25354">
        <ele>199</ele>
        <time>2017-02-04T14:37:32Z</time>
      </trkpt>
      <trkpt lat="41.64762" lon="2.25327">
        <ele>196</ele>
        <time>2017-02-04T14:37:55Z</time>
      </trkpt>
      <trkpt lat="41.64774" lon="2.25302">
        <ele>194</ele>
        <time>2017-02-04T14:38:18Z</time>
      </trkpt>
      <trkpt lat="41.64786" lon="2.25283">
        <ele>191</ele>
        <time>2017-02-04T14:38:36Z</time>
      </trkpt>
      <trkpt lat="41.64787" lon="2.2528">
        <ele>191</ele>
        <time>2017-02-04T14:38:38Z</time>
      </trkpt>
      <trkpt lat="41.64788" lon="2.25279">
        <ele>190</ele>
        <time>2017-02-04T14:38:40Z</time>
      </trkpt>
      <trkpt lat="41.64802" lon="2.25259">
        <ele>189</ele>
        <time>2017-02-04T14:39:00Z</time>
      </trkpt>
      <trkpt lat="41.64815" lon="2.2524">
        <ele>189</ele>
        <time>2017-02-04T14:39:20Z</time>
      </trkpt>
      <trkpt lat="41.64824" lon="2.25222">
        <ele>189</ele>
        <time>2017-02-04T14:39:36Z</time>
      </trkpt>
      <trkpt lat="41.64826" lon="2.25216">
        <ele>190</ele>
        <time>2017-02-04T14:39:41Z</time>
      </trkpt>
      <trkpt lat="41.64826" lon="2.25215">
        <ele>190</ele>
        <time>2017-02-04T14:39:42Z</time>
      </trkpt>
      <trkpt lat="41.64828" lon="2.25211">
        <ele>190</ele>
        <time>2017-02-04T14:39:45Z</time>
      </trkpt>
      <trkpt lat="41.6483" lon="2.25207">
        <ele>191</ele>
        <time>2017-02-04T14:39:49Z</time>
      </trkpt>
      <trkpt lat="41.64844" lon="2.25188">
        <ele>193</ele>
        <time>2017-02-04T14:40:09Z</time>
      </trkpt>
      <trkpt lat="41.64851" lon="2.25189">
        <ele>194</ele>
        <time>2017-02-04T14:40:16Z</time>
      </trkpt>
      <trkpt lat="41.64872" lon="2.25194">
        <ele>196</ele>
        <time>2017-02-04T14:40:37Z</time>
      </trkpt>
      <trkpt lat="41.64886" lon="2.25185">
        <ele>197</ele>
        <time>2017-02-04T14:40:53Z</time>
      </trkpt>
      <trkpt lat="41.64896" lon="2.25158">
        <ele>196</ele>
        <time>2017-02-04T14:41:15Z</time>
      </trkpt>
      <trkpt lat="41.64904" lon="2.25135">
        <ele>196</ele>
        <time>2017-02-04T14:41:34Z</time>
      </trkpt>
      <trkpt lat="41.64911" lon="2.251">
        <ele>194</ele>
        <time>2017-02-04T14:42:01Z</time>
      </trkpt>
      <trkpt lat="41.64885" lon="2.25077">
        <ele>192</ele>
        <time>2017-02-04T14:42:32Z</time>
      </trkpt>
      <trkpt lat="41.6486" lon="2.25057">
        <ele>192</ele>
        <time>2017-02-04T14:43:01Z</time>
      </trkpt>
      <trkpt lat="41.64833" lon="2.25037">
        <ele>192</ele>
        <time>2017-02-04T14:43:32Z</time>
      </trkpt>
      <trkpt lat="41.64813" lon="2.25023">
        <ele>191</ele>
        <time>2017-02-04T14:43:55Z</time>
      </trkpt>
      <trkpt lat="41.64791" lon="2.25007">
        <ele>190</ele>
        <time>2017-02-04T14:44:20Z</time>
      </trkpt>
      <trkpt lat="41.64768" lon="2.24988">
        <ele>190</ele>
        <time>2017-02-04T14:44:47Z</time>
      </trkpt>
      <trkpt lat="41.64743" lon="2.2497">
        <ele>190</ele>
        <time>2017-02-04T14:45:16Z</time>
      </trkpt>
      <trkpt lat="41.64727" lon="2.24958">
        <ele>188</ele>
        <time>2017-02-04T14:45:33Z</time>
      </trkpt>
      <trkpt lat="41.64723" lon="2.24956">
        <ele>188</ele>
        <time>2017-02-04T14:45:38Z</time>
      </trkpt>
      <trkpt lat="41.64697" lon="2.24938">
        <ele>186</ele>
        <time>2017-02-04T14:46:07Z</time>
      </trkpt>
      <trkpt lat="41.64666" lon="2.24915">
        <ele>184</ele>
        <time>2017-02-04T14:46:42Z</time>
      </trkpt>
      <trkpt lat="41.64642" lon="2.24896">
        <ele>184</ele>
        <time>2017-02-04T14:47:11Z</time>
      </trkpt>
      <trkpt lat="41.64617" lon="2.24873">
        <ele>185</ele>
        <time>2017-02-04T14:47:41Z</time>
      </trkpt>
      <trkpt lat="41.64591" lon="2.24845">
        <ele>186</ele>
        <time>2017-02-04T14:48:14Z</time>
      </trkpt>
      <trkpt lat="41.64569" lon="2.24823">
        <ele>186</ele>
        <time>2017-02-04T14:48:42Z</time>
      </trkpt>
      <trkpt lat="41.64554" lon="2.24808">
        <ele>186</ele>
        <time>2017-02-04T14:49:00Z</time>
      </trkpt>
      <trkpt lat="41.64537" lon="2.2479">
        <ele>184</ele>
        <time>2017-02-04T14:49:22Z</time>
      </trkpt>
      <trkpt lat="41.64512" lon="2.24763">
        <ele>182</ele>
        <time>2017-02-04T14:49:54Z</time>
      </trkpt>
      <trkpt lat="41.64492" lon="2.24742">
        <ele>181</ele>
        <time>2017-02-04T14:50:20Z</time>
      </trkpt>
      <trkpt lat="41.64474" lon="2.24722">
        <ele>180</ele>
        <time>2017-02-04T14:50:43Z</time>
      </trkpt>
      <trkpt lat="41.64455" lon="2.24703">
        <ele>179</ele>
        <time>2017-02-04T14:51:07Z</time>
      </trkpt>
      <trkpt lat="41.6444" lon="2.24683">
        <ele>179</ele>
        <time>2017-02-04T14:51:28Z</time>
      </trkpt>
      <trkpt lat="41.64433" lon="2.24674">
        <ele>179</ele>
        <time>2017-02-04T14:51:38Z</time>
      </trkpt>
      <trkpt lat="41.64428" lon="2.24669">
        <ele>179</ele>
        <time>2017-02-04T14:51:44Z</time>
      </trkpt>
      <trkpt lat="41.64422" lon="2.24662">
        <ele>179</ele>
        <time>2017-02-04T14:51:52Z</time>
      </trkpt>
      <trkpt lat="41.64419" lon="2.24658">
        <ele>179</ele>
        <time>2017-02-04T14:51:56Z</time>
      </trkpt>
      <trkpt lat="41.64405" lon="2.24642">
        <ele>179</ele>
        <time>2017-02-04T14:52:15Z</time>
      </trkpt>
      <trkpt lat="41.64399" lon="2.24633">
        <ele>179</ele>
        <time>2017-02-04T14:52:24Z</time>
      </trkpt>
      <trkpt lat="41.64399" lon="2.24623">
        <ele>179</ele>
        <time>2017-02-04T14:52:32Z</time>
      </trkpt>
      <trkpt lat="41.64398" lon="2.24612">
        <ele>179</ele>
        <time>2017-02-04T14:52:40Z</time>
      </trkpt>
      <trkpt lat="41.64388" lon="2.24594">
        <ele>179</ele>
        <time>2017-02-04T14:52:57Z</time>
      </trkpt>
      <trkpt lat="41.64377" lon="2.24573">
        <ele>179</ele>
        <time>2017-02-04T14:53:16Z</time>
      </trkpt>
      <trkpt lat="41.64365" lon="2.24551">
        <ele>179</ele>
        <time>2017-02-04T14:53:36Z</time>
      </trkpt>
      <trkpt lat="41.64352" lon="2.24532">
        <ele>178</ele>
        <time>2017-02-04T14:53:55Z</time>
      </trkpt>
      <trkpt lat="41.6434" lon="2.2451">
        <ele>178</ele>
        <time>2017-02-04T14:54:16Z</time>
      </trkpt>
      <trkpt lat="41.64331" lon="2.24494">
        <ele>177</ele>
        <time>2017-02-04T14:54:31Z</time>
      </trkpt>
      <trkpt lat="41.6432" lon="2.2448">
        <ele>175</ele>
        <time>2017-02-04T14:54:46Z</time>
      </trkpt>
      <trkpt lat="41.64305" lon="2.24459">
        <ele>172</ele>
        <time>2017-02-04T14:55:07Z</time>
      </trkpt>
      <trkpt lat="41.64291" lon="2.24437">
        <ele>171</ele>
        <time>2017-02-04T14:55:29Z</time>
      </trkpt>
      <trkpt lat="41.64284" lon="2.24426">
        <ele>170</ele>
        <time>2017-02-04T14:55:40Z</time>
      </trkpt>
      <trkpt lat="41.64275" lon="2.24413">
        <ele>170</ele>
        <time>2017-02-04T14:55:53Z</time>
      </trkpt>
      <trkpt lat="41.64264" lon="2.24393">
        <ele>171</ele>
        <time>2017-02-04T14:56:12Z</time>
      </trkpt>
      <trkpt lat="41.64261" lon="2.24389">
        <ele>171</ele>
        <time>2017-02-04T14:56:16Z</time>
      </trkpt>
      <trkpt lat="41.64257" lon="2.24384">
        <ele>171</ele>
        <time>2017-02-04T14:56:21Z</time>
      </trkpt>
      <trkpt lat="41.64248" lon="2.24369">
        <ele>170</ele>
        <time>2017-02-04T14:56:36Z</time>
      </trkpt>
      <trkpt lat="41.64234" lon="2.24348">
        <ele>170</ele>
        <time>2017-02-04T14:56:57Z</time>
      </trkpt>
      <trkpt lat="41.64222" lon="2.24329">
        <ele>169</ele>
        <time>2017-02-04T14:57:16Z</time>
      </trkpt>
      <trkpt lat="41.64209" lon="2.24311">
        <ele>169</ele>
        <time>2017-02-04T14:57:34Z</time>
      </trkpt>
      <trkpt lat="41.64205" lon="2.24305">
        <ele>168</ele>
        <time>2017-02-04T14:57:40Z</time>
      </trkpt>
      <trkpt lat="41.64192" lon="2.24284">
        <ele>167</ele>
        <time>2017-02-04T14:58:01Z</time>
      </trkpt>
      <trkpt lat="41.64185" lon="2.24273">
        <ele>166</ele>
        <time>2017-02-04T14:58:11Z</time>
      </trkpt>
      <trkpt lat="41.64171" lon="2.24256">
        <ele>164</ele>
        <time>2017-02-04T14:58:30Z</time>
      </trkpt>
      <trkpt lat="41.64163" lon="2.24237">
        <ele>162</ele>
        <time>2017-02-04T14:58:46Z</time>
      </trkpt>
      <trkpt lat="41.64156" lon="2.24217">
        <ele>160</ele>
        <time>2017-02-04T14:59:03Z</time>
      </trkpt>
      <trkpt lat="41.64155" lon="2.24213">
        <ele>160</ele>
        <time>2017-02-04T14:59:06Z</time>
      </trkpt>
      <trkpt lat="41.64142" lon="2.24187">
        <ele>158</ele>
        <time>2017-02-04T14:59:29Z</time>
      </trkpt>
      <trkpt lat="41.64132" lon="2.24164">
        <ele>156</ele>
        <time>2017-02-04T14:59:49Z</time>
      </trkpt>
      <trkpt lat="41.64127" lon="2.24151">
        <ele>155</ele>
        <time>2017-02-04T15:00:01Z</time>
      </trkpt>
      <trkpt lat="41.6412" lon="2.24128">
        <ele>155</ele>
        <time>2017-02-04T15:00:19Z</time>
      </trkpt>
      <trkpt lat="41.64116" lon="2.24107">
        <ele>155</ele>
        <time>2017-02-04T15:00:35Z</time>
      </trkpt>
      <trkpt lat="41.64115" lon="2.24103">
        <ele>155</ele>
        <time>2017-02-04T15:00:38Z</time>
      </trkpt>
      <trkpt lat="41.64126" lon="2.24087">
        <ele>155</ele>
        <time>2017-02-04T15:00:54Z</time>
      </trkpt>
      <trkpt lat="41.64134" lon="2.24073">
        <ele>154</ele>
        <time>2017-02-04T15:01:07Z</time>
      </trkpt>
      <trkpt lat="41.64131" lon="2.24061">
        <ele>154</ele>
        <time>2017-02-04T15:01:17Z</time>
      </trkpt>
      <trkpt lat="41.64127" lon="2.24052">
        <ele>154</ele>
        <time>2017-02-04T15:01:25Z</time>
      </trkpt>
      <trkpt lat="41.64119" lon="2.24037">
        <ele>154</ele>
        <time>2017-02-04T15:01:38Z</time>
      </trkpt>
      <trkpt lat="41.64104" lon="2.24015">
        <ele>154</ele>
        <time>2017-02-04T15:02:00Z</time>
      </trkpt>
      <trkpt lat="41.64088" lon="2.23996">
        <ele>154</ele>
        <time>2017-02-04T15:02:22Z</time>
      </trkpt>
      <trkpt lat="41.64085" lon="2.23989">
        <ele>154</ele>
        <time>2017-02-04T15:02:28Z</time>
      </trkpt>
      <trkpt lat="41.64073" lon="2.23969">
        <ele>155</ele>
        <time>2017-02-04T15:02:47Z</time>
      </trkpt>
      <trkpt lat="41.6406" lon="2.23945">
        <ele>156</ele>
        <time>2017-02-04T15:03:10Z</time>
      </trkpt>
      <trkpt lat="41.64051" lon="2.23928">
        <ele>157</ele>
        <time>2017-02-04T15:03:25Z</time>
      </trkpt>
      <trkpt lat="41.64047" lon="2.23918">
        <ele>157</ele>
        <time>2017-02-04T15:03:34Z</time>
      </trkpt>
      <trkpt lat="41.64038" lon="2.2389">
        <ele>158</ele>
        <time>2017-02-04T15:03:56Z</time>
      </trkpt>
      <trkpt lat="41.64038" lon="2.23875">
        <ele>158</ele>
        <time>2017-02-04T15:04:07Z</time>
      </trkpt>
      <trkpt lat="41.64037" lon="2.23859">
        <ele>158</ele>
        <time>2017-02-04T15:04:19Z</time>
      </trkpt>
      <trkpt lat="41.64035" lon="2.23834">
        <ele>158</ele>
        <time>2017-02-04T15:04:38Z</time>
      </trkpt>
      <trkpt lat="41.64035" lon="2.2383">
        <ele>158</ele>
        <time>2017-02-04T15:04:41Z</time>
      </trkpt>
      <trkpt lat="41.64033" lon="2.23823">
        <ele>158</ele>
        <time>2017-02-04T15:04:47Z</time>
      </trkpt>
      <trkpt lat="41.64023" lon="2.23794">
        <ele>159</ele>
        <time>2017-02-04T15:05:11Z</time>
      </trkpt>
      <trkpt lat="41.64012" lon="2.23773">
        <ele>160</ele>
        <time>2017-02-04T15:05:29Z</time>
      </trkpt>
      <trkpt lat="41.63996" lon="2.23753">
        <ele>161</ele>
        <time>2017-02-04T15:05:52Z</time>
      </trkpt>
      <trkpt lat="41.63992" lon="2.2375">
        <ele>161</ele>
        <time>2017-02-04T15:05:57Z</time>
      </trkpt>
      <trkpt lat="41.63987" lon="2.23747">
        <ele>161</ele>
        <time>2017-02-04T15:06:02Z</time>
      </trkpt>
      <trkpt lat="41.63979" lon="2.23741">
        <ele>161</ele>
        <time>2017-02-04T15:06:11Z</time>
      </trkpt>
      <trkpt lat="41.63972" lon="2.23739">
        <ele>160</ele>
        <time>2017-02-04T15:06:18Z</time>
      </trkpt>
      <trkpt lat="41.63953" lon="2.2373">
        <ele>160</ele>
        <time>2017-02-04T15:06:39Z</time>
      </trkpt>
      <trkpt lat="41.63948" lon="2.23729">
        <ele>160</ele>
        <time>2017-02-04T15:06:43Z</time>
      </trkpt>
      <trkpt lat="41.63934" lon="2.2373">
        <ele>160</ele>
        <time>2017-02-04T15:06:57Z</time>
      </trkpt>
      <trkpt lat="41.63928" lon="2.23729">
        <ele>160</ele>
        <time>2017-02-04T15:07:03Z</time>
      </trkpt>
      <trkpt lat="41.63923" lon="2.23731">
        <ele>160</ele>
        <time>2017-02-04T15:07:08Z</time>
      </trkpt>
      <trkpt lat="41.63914" lon="2.23732">
        <ele>160</ele>
        <time>2017-02-04T15:07:18Z</time>
      </trkpt>
      <trkpt lat="41.63889" lon="2.23739">
        <ele>161</ele>
        <time>2017-02-04T15:07:43Z</time>
      </trkpt>
      <trkpt lat="41.6387" lon="2.23741">
        <ele>161</ele>
        <time>2017-02-04T15:08:03Z</time>
      </trkpt>
      <trkpt lat="41.63854" lon="2.23739">
        <ele>160</ele>
        <time>2017-02-04T15:08:18Z</time>
      </trkpt>
      <trkpt lat="41.63835" lon="2.23732">
        <ele>160</ele>
        <time>2017-02-04T15:08:38Z</time>
      </trkpt>
      <trkpt lat="41.63831" lon="2.23728">
        <ele>159</ele>
        <time>2017-02-04T15:08:43Z</time>
      </trkpt>
      <trkpt lat="41.63812" lon="2.23712">
        <ele>159</ele>
        <time>2017-02-04T15:09:06Z</time>
      </trkpt>
      <trkpt lat="41.63795" lon="2.23693">
        <ele>159</ele>
        <time>2017-02-04T15:09:27Z</time>
      </trkpt>
      <trkpt lat="41.63791" lon="2.23689">
        <ele>159</ele>
        <time>2017-02-04T15:09:33Z</time>
      </trkpt>
      <trkpt lat="41.63776" lon="2.23672">
        <ele>158</ele>
        <time>2017-02-04T15:09:52Z</time>
      </trkpt>
      <trkpt lat="41.63761" lon="2.23652">
        <ele>158</ele>
        <time>2017-02-04T15:10:13Z</time>
      </trkpt>
      <trkpt lat="41.63748" lon="2.23645">
        <ele>158</ele>
        <time>2017-02-04T15:10:28Z</time>
      </trkpt>
      <trkpt lat="41.63729" lon="2.23641">
        <ele>157</ele>
        <time>2017-02-04T15:10:46Z</time>
      </trkpt>
      <trkpt lat="41.63724" lon="2.2364">
        <ele>157</ele>
        <time>2017-02-04T15:10:52Z</time>
      </trkpt>
      <trkpt lat="41.63714" lon="2.23638">
        <ele>156</ele>
        <time>2017-02-04T15:11:02Z</time>
      </trkpt>
      <trkpt lat="41.63693" lon="2.23641">
        <ele>155</ele>
        <time>2017-02-04T15:11:23Z</time>
      </trkpt>
      <trkpt lat="41.63674" lon="2.23645">
        <ele>156</ele>
        <time>2017-02-04T15:11:42Z</time>
      </trkpt>
      <trkpt lat="41.6365" lon="2.23649">
        <ele>156</ele>
        <time>2017-02-04T15:12:07Z</time>
      </trkpt>
      <trkpt lat="41.63631" lon="2.23649">
        <ele>156</ele>
        <time>2017-02-04T15:12:25Z</time>
      </trkpt>
      <trkpt lat="41.6361" lon="2.23647">
        <ele>157</ele>
        <time>2017-02-04T15:12:46Z</time>
      </trkpt>
      <trkpt lat="41.63593" lon="2.23648">
        <ele>158</ele>
        <time>2017-02-04T15:13:03Z</time>
      </trkpt>
      <trkpt lat="41.63591" lon="2.23647">
        <ele>158</ele>
        <time>2017-02-04T15:13:06Z</time>
      </trkpt>
      <trkpt lat="41.63587" lon="2.23649">
        <ele>159</ele>
        <time>2017-02-04T15:13:10Z</time>
      </trkpt>
      <trkpt lat="41.63572" lon="2.23655">
        <ele>159</ele>
        <time>2017-02-04T15:13:26Z</time>
      </trkpt>
      <trkpt lat="41.63563" lon="2.2366">
        <ele>159</ele>
        <time>2017-02-04T15:13:36Z</time>
      </trkpt>
      <trkpt lat="41.63554" lon="2.23665">
        <ele>159</ele>
        <time>2017-02-04T15:13:45Z</time>
      </trkpt>
      <trkpt lat="41.6355" lon="2.23667">
        <ele>159</ele>
        <time>2017-02-04T15:13:49Z</time>
      </trkpt>
      <trkpt lat="41.63543" lon="2.23678">
        <ele>158</ele>
        <time>2017-02-04T15:14:00Z</time>
      </trkpt>
      <trkpt lat="41.63524" lon="2.23687">
        <ele>158</ele>
        <time>2017-02-04T15:14:20Z</time>
      </trkpt>
      <trkpt lat="41.63508" lon="2.23691">
        <ele>158</ele>
        <time>2017-02-04T15:14:36Z</time>
      </trkpt>
      <trkpt lat="41.63505" lon="2.23691">
        <ele>158</ele>
        <time>2017-02-04T15:14:39Z</time>
      </trkpt>
      <trkpt lat="41.63489" lon="2.23693">
        <ele>158</ele>
        <time>2017-02-04T15:14:56Z</time>
      </trkpt>
      <trkpt lat="41.63479" lon="2.23694">
        <ele>158</ele>
        <time>2017-02-04T15:15:06Z</time>
      </trkpt>
      <trkpt lat="41.63474" lon="2.23694">
        <ele>158</ele>
        <time>2017-02-04T15:15:10Z</time>
      </trkpt>
      <trkpt lat="41.63458" lon="2.2369">
        <ele>159</ele>
        <time>2017-02-04T15:15:26Z</time>
      </trkpt>
      <trkpt lat="41.63447" lon="2.23686">
        <ele>160</ele>
        <time>2017-02-04T15:15:39Z</time>
      </trkpt>
      <trkpt lat="41.63441" lon="2.23686">
        <ele>160</ele>
        <time>2017-02-04T15:15:45Z</time>
      </trkpt>
      <trkpt lat="41.63418" lon="2.23682">
        <ele>163</ele>
        <time>2017-02-04T15:16:07Z</time>
      </trkpt>
      <trkpt lat="41.63409" lon="2.2368">
        <ele>163</ele>
        <time>2017-02-04T15:16:17Z</time>
      </trkpt>
      <trkpt lat="41.63392" lon="2.2368">
        <ele>164</ele>
        <time>2017-02-04T15:16:34Z</time>
      </trkpt>
      <trkpt lat="41.63374" lon="2.23683">
        <ele>164</ele>
        <time>2017-02-04T15:16:52Z</time>
      </trkpt>
      <trkpt lat="41.63366" lon="2.23685">
        <ele>164</ele>
        <time>2017-02-04T15:17:00Z</time>
      </trkpt>
      <trkpt lat="41.63354" lon="2.23688">
        <ele>164</ele>
        <time>2017-02-04T15:17:12Z</time>
      </trkpt>
      <trkpt lat="41.63342" lon="2.23689">
        <ele>163</ele>
        <time>2017-02-04T15:17:24Z</time>
      </trkpt>
      <trkpt lat="41.6333" lon="2.2369">
        <ele>163</ele>
        <time>2017-02-04T15:17:36Z</time>
      </trkpt>
      <trkpt lat="41.63327" lon="2.23691">
        <ele>162</ele>
        <time>2017-02-04T15:17:40Z</time>
      </trkpt>
      <trkpt lat="41.63303" lon="2.23696">
        <ele>161</ele>
        <time>2017-02-04T15:18:04Z</time>
      </trkpt>
      <trkpt lat="41.63297" lon="2.23697">
        <ele>161</ele>
        <time>2017-02-04T15:18:10Z</time>
      </trkpt>
      <trkpt lat="41.63293" lon="2.23698">
        <ele>161</ele>
        <time>2017-02-04T15:18:13Z</time>
      </trkpt>
      <trkpt lat="41.63286" lon="2.23698">
        <ele>161</ele>
        <time>2017-02-04T15:18:21Z</time>
      </trkpt>
      <trkpt lat="41.63276" lon="2.23679">
        <ele>163</ele>
        <time>2017-02-04T15:18:38Z</time>
      </trkpt>
      <trkpt lat="41.63273" lon="2.23665">
        <ele>164</ele>
        <time>2017-02-04T15:18:49Z</time>
      </trkpt>
      <trkpt lat="41.63272" lon="2.23655">
        <ele>164</ele>
        <time>2017-02-04T15:18:57Z</time>
      </trkpt>
      <trkpt lat="41.63272" lon="2.23649">
        <ele>164</ele>
        <time>2017-02-04T15:19:01Z</time>
      </trkpt>
      <trkpt lat="41.63268" lon="2.23637">
        <ele>164</ele>
        <time>2017-02-04T15:19:11Z</time>
      </trkpt>
      <trkpt lat="41.63262" lon="2.23612">
        <ele>163</ele>
        <time>2017-02-04T15:19:30Z</time>
      </trkpt>
      <trkpt lat="41.63254" lon="2.23591">
        <ele>162</ele>
        <time>2017-02-04T15:19:48Z</time>
      </trkpt>
      <trkpt lat="41.63249" lon="2.23569">
        <ele>161</ele>
        <time>2017-02-04T15:20:06Z</time>
      </trkpt>
      <trkpt lat="41.6324" lon="2.23543">
        <ele>162</ele>
        <time>2017-02-04T15:20:27Z</time>
      </trkpt>
      <trkpt lat="41.63236" lon="2.23534">
        <ele>162</ele>
        <time>2017-02-04T15:20:35Z</time>
      </trkpt>
      <trkpt lat="41.63235" lon="2.23526">
        <ele>163</ele>
        <time>2017-02-04T15:20:40Z</time>
      </trkpt>
      <trkpt lat="41.63229" lon="2.23515">
        <ele>164</ele>
        <time>2017-02-04T15:20:50Z</time>
      </trkpt>
      <trkpt lat="41.63223" lon="2.2349">
        <ele>167</ele>
        <time>2017-02-04T15:21:10Z</time>
      </trkpt>
      <trkpt lat="41.63213" lon="2.2347">
        <ele>168</ele>
        <time>2017-02-04T15:21:28Z</time>
      </trkpt>
      <trkpt lat="41.6321" lon="2.23463">
        <ele>167</ele>
        <time>2017-02-04T15:21:34Z</time>
      </trkpt>
      <trkpt lat="41.63209" lon="2.23455">
        <ele>168</ele>
        <time>2017-02-04T15:21:40Z</time>
      </trkpt>
      <trkpt lat="41.63209" lon="2.23432">
        <ele>169</ele>
        <time>2017-02-04T15:21:58Z</time>
      </trkpt>
      <trkpt lat="41.63208" lon="2.23424">
        <ele>169</ele>
        <time>2017-02-04T15:22:04Z</time>
      </trkpt>
      <trkpt lat="41.63206" lon="2.2341">
        <ele>169</ele>
        <time>2017-02-04T15:22:14Z</time>
      </trkpt>
      <trkpt lat="41.63203" lon="2.23392">
        <ele>169</ele>
        <time>2017-02-04T15:22:28Z</time>
      </trkpt>
      <trkpt lat="41.63202" lon="2.23389">
        <ele>169</ele>
        <time>2017-02-04T15:22:31Z</time>
      </trkpt>
      <trkpt lat="41.63196" lon="2.23367">
        <ele>170</ele>
        <time>2017-02-04T15:22:48Z</time>
      </trkpt>
      <trkpt lat="41.63196" lon="2.23355">
        <ele>171</ele>
        <time>2017-02-04T15:22:57Z</time>
      </trkpt>
      <trkpt lat="41.63197" lon="2.23349">
        <ele>172</ele>
        <time>2017-02-04T15:23:02Z</time>
      </trkpt>
      <trkpt lat="41.63197" lon="2.23344">
        <ele>172</ele>
        <time>2017-02-04T15:23:05Z</time>
      </trkpt>
      <trkpt lat="41.63197" lon="2.23338">
        <ele>172</ele>
        <time>2017-02-04T15:23:10Z</time>
      </trkpt>
      <trkpt lat="41.63197" lon="2.23324">
        <ele>173</ele>
        <time>2017-02-04T15:23:21Z</time>
      </trkpt>
      <trkpt lat="41.63208" lon="2.23296">
        <ele>175</ele>
        <time>2017-02-04T15:23:44Z</time>
      </trkpt>
      <trkpt lat="41.63209" lon="2.23277">
        <ele>175</ele>
        <time>2017-02-04T15:23:58Z</time>
      </trkpt>
      <trkpt lat="41.63209" lon="2.23272">
        <ele>175</ele>
        <time>2017-02-04T15:24:02Z</time>
      </trkpt>
      <trkpt lat="41.6321" lon="2.2327">
        <ele>175</ele>
        <time>2017-02-04T15:24:03Z</time>
      </trkpt>
      <trkpt lat="41.6321" lon="2.23269">
        <ele>175</ele>
        <time>2017-02-04T15:24:05Z</time>
      </trkpt>
      <trkpt lat="41.6321" lon="2.23266">
        <ele>175</ele>
        <time>2017-02-04T15:24:06Z</time>
      </trkpt>
      <trkpt lat="41.6321" lon="2.23264">
        <ele>175</ele>
        <time>2017-02-04T15:24:08Z</time>
      </trkpt>
      <trkpt lat="41.6321" lon="2.23263">
        <ele>175</ele>
        <time>2017-02-04T15:24:09Z</time>
      </trkpt>
      <trkpt lat="41.63209" lon="2.2326">
        <ele>175</ele>
        <time>2017-02-04T15:24:11Z</time>
      </trkpt>
      <trkpt lat="41.63209" lon="2.23259">
        <ele>175</ele>
        <time>2017-02-04T15:24:12Z</time>
      </trkpt>
      <trkpt lat="41.63209" lon="2.23257">
        <ele>175</ele>
        <time>2017-02-04T15:24:13Z</time>
      </trkpt>
      <trkpt lat="41.6321" lon="2.23247">
        <ele>174</ele>
        <time>2017-02-04T15:24:21Z</time>
      </trkpt>
      <trkpt lat="41.63211" lon="2.23245">
        <ele>174</ele>
        <time>2017-02-04T15:24:22Z</time>
      </trkpt>
      <trkpt lat="41.63211" lon="2.23244">
        <ele>174</ele>
        <time>2017-02-04T15:24:24Z</time>
      </trkpt>
      <trkpt lat="41.63211" lon="2.23242">
        <ele>174</ele>
        <time>2017-02-04T15:24:25Z</time>
      </trkpt>
      <trkpt lat="41.63212" lon="2.23224">
        <ele>173</ele>
        <time>2017-02-04T15:24:39Z</time>
      </trkpt>
      <trkpt lat="41.63214" lon="2.23219">
        <ele>172</ele>
        <time>2017-02-04T15:24:43Z</time>
      </trkpt>
      <trkpt lat="41.63214" lon="2.23217">
        <ele>172</ele>
        <time>2017-02-04T15:24:44Z</time>
      </trkpt>
      <trkpt lat="41.63215" lon="2.23214">
        <ele>172</ele>
        <time>2017-02-04T15:24:47Z</time>
      </trkpt>
      <trkpt lat="41.63214" lon="2.23212">
        <ele>172</ele>
        <time>2017-02-04T15:24:48Z</time>
      </trkpt>
      <trkpt lat="41.63214" lon="2.23211">
        <ele>172</ele>
        <time>2017-02-04T15:24:49Z</time>
      </trkpt>
      <trkpt lat="41.63215" lon="2.23209">
        <ele>172</ele>
        <time>2017-02-04T15:24:51Z</time>
      </trkpt>
      <trkpt lat="41.63216" lon="2.23208">
        <ele>172</ele>
        <time>2017-02-04T15:24:52Z</time>
      </trkpt>
      <trkpt lat="41.63219" lon="2.23195">
        <ele>172</ele>
        <time>2017-02-04T15:25:03Z</time>
      </trkpt>
      <trkpt lat="41.63224" lon="2.23188">
        <ele>172</ele>
        <time>2017-02-04T15:25:10Z</time>
      </trkpt>
      <trkpt lat="41.63225" lon="2.23187">
        <ele>172</ele>
        <time>2017-02-04T15:25:11Z</time>
      </trkpt>
      <trkpt lat="41.63225" lon="2.23185">
        <ele>172</ele>
        <time>2017-02-04T15:25:12Z</time>
      </trkpt>
      <trkpt lat="41.63226" lon="2.23183">
        <ele>172</ele>
        <time>2017-02-04T15:25:14Z</time>
      </trkpt>
      <trkpt lat="41.63227" lon="2.23182">
        <ele>172</ele>
        <time>2017-02-04T15:25:15Z</time>
      </trkpt>
      <trkpt lat="41.63227" lon="2.2318">
        <ele>172</ele>
        <time>2017-02-04T15:25:16Z</time>
      </trkpt>
      <trkpt lat="41.63228" lon="2.23179">
        <ele>172</ele>
        <time>2017-02-04T15:25:17Z</time>
      </trkpt>
      <trkpt lat="41.63231" lon="2.23174">
        <ele>172</ele>
        <time>2017-02-04T15:25:22Z</time>
      </trkpt>
      <trkpt lat="41.63232" lon="2.23173">
        <ele>172</ele>
        <time>2017-02-04T15:25:24Z</time>
      </trkpt>
      <trkpt lat="41.63233" lon="2.23171">
        <ele>172</ele>
        <time>2017-02-04T15:25:25Z</time>
      </trkpt>
      <trkpt lat="41.63234" lon="2.23169">
        <ele>172</ele>
        <time>2017-02-04T15:25:27Z</time>
      </trkpt>
      <trkpt lat="41.63238" lon="2.2316">
        <ele>173</ele>
        <time>2017-02-04T15:25:35Z</time>
      </trkpt>
      <trkpt lat="41.63238" lon="2.23159">
        <ele>173</ele>
        <time>2017-02-04T15:25:36Z</time>
      </trkpt>
      <trkpt lat="41.63239" lon="2.23157">
        <ele>173</ele>
        <time>2017-02-04T15:25:37Z</time>
      </trkpt>
      <trkpt lat="41.63239" lon="2.23156">
        <ele>173</ele>
        <time>2017-02-04T15:25:39Z</time>
      </trkpt>
      <trkpt lat="41.63242" lon="2.23153">
        <ele>174</ele>
        <time>2017-02-04T15:25:42Z</time>
      </trkpt>
      <trkpt lat="41.6325" lon="2.23147">
        <ele>174</ele>
        <time>2017-02-04T15:25:51Z</time>
      </trkpt>
      <trkpt lat="41.6326" lon="2.23137">
        <ele>174</ele>
        <time>2017-02-04T15:26:03Z</time>
      </trkpt>
      <trkpt lat="41.63265" lon="2.23136">
        <ele>173</ele>
        <time>2017-02-04T15:26:09Z</time>
      </trkpt>
      <trkpt lat="41.63267" lon="2.23135">
        <ele>173</ele>
        <time>2017-02-04T15:26:11Z</time>
      </trkpt>
      <trkpt lat="41.63271" lon="2.23131">
        <ele>173</ele>
        <time>2017-02-04T15:26:16Z</time>
      </trkpt>
      <trkpt lat="41.63276" lon="2.23128">
        <ele>173</ele>
        <time>2017-02-04T15:26:21Z</time>
      </trkpt>
      <trkpt lat="41.63277" lon="2.23127">
        <ele>173</ele>
        <time>2017-02-04T15:26:23Z</time>
      </trkpt>
      <trkpt lat="41.63279" lon="2.23123">
        <ele>172</ele>
        <time>2017-02-04T15:26:26Z</time>
      </trkpt>
      <trkpt lat="41.63283" lon="2.23105">
        <ele>172</ele>
        <time>2017-02-04T15:26:40Z</time>
      </trkpt>
      <trkpt lat="41.63289" lon="2.23097">
        <ele>171</ele>
        <time>2017-02-04T15:26:48Z</time>
      </trkpt>
      <trkpt lat="41.63289" lon="2.23096">
        <ele>171</ele>
        <time>2017-02-04T15:26:50Z</time>
      </trkpt>
      <trkpt lat="41.63295" lon="2.23087">
        <ele>171</ele>
        <time>2017-02-04T15:26:59Z</time>
      </trkpt>
      <trkpt lat="41.63296" lon="2.23085">
        <ele>171</ele>
        <time>2017-02-04T15:27:00Z</time>
      </trkpt>
      <trkpt lat="41.63304" lon="2.23073">
        <ele>170</ele>
        <time>2017-02-04T15:27:12Z</time>
      </trkpt>
      <trkpt lat="41.63309" lon="2.23065">
        <ele>171</ele>
        <time>2017-02-04T15:27:19Z</time>
      </trkpt>
      <trkpt lat="41.63309" lon="2.23064">
        <ele>171</ele>
        <time>2017-02-04T15:27:21Z</time>
      </trkpt>
      <trkpt lat="41.63311" lon="2.23062">
        <ele>171</ele>
        <time>2017-02-04T15:27:23Z</time>
      </trkpt>
      <trkpt lat="41.63321" lon="2.23046">
        <ele>171</ele>
        <time>2017-02-04T15:27:38Z</time>
      </trkpt>
      <trkpt lat="41.63329" lon="2.23035">
        <ele>171</ele>
        <time>2017-02-04T15:27:50Z</time>
      </trkpt>
      <trkpt lat="41.63337" lon="2.23024">
        <ele>172</ele>
        <time>2017-02-04T15:28:02Z</time>
      </trkpt>
      <trkpt lat="41.63338" lon="2.2302">
        <ele>172</ele>
        <time>2017-02-04T15:28:04Z</time>
      </trkpt>
      <trkpt lat="41.63339" lon="2.23019">
        <ele>172</ele>
        <time>2017-02-04T15:28:06Z</time>
      </trkpt>
      <trkpt lat="41.63352" lon="2.23006">
        <ele>172</ele>
        <time>2017-02-04T15:28:22Z</time>
      </trkpt>
      <trkpt lat="41.63375" lon="2.22986">
        <ele>174</ele>
        <time>2017-02-04T15:28:49Z</time>
      </trkpt>
      <trkpt lat="41.6338" lon="2.22978">
        <ele>174</ele>
        <time>2017-02-04T15:28:57Z</time>
      </trkpt>
      <trkpt lat="41.63391" lon="2.22962">
        <ele>175</ele>
        <time>2017-02-04T15:29:14Z</time>
      </trkpt>
      <trkpt lat="41.634" lon="2.22949">
        <ele>175</ele>
        <time>2017-02-04T15:29:27Z</time>
      </trkpt>
      <trkpt lat="41.63406" lon="2.2294">
        <ele>174</ele>
        <time>2017-02-04T15:29:36Z</time>
      </trkpt>
      <trkpt lat="41.63418" lon="2.22926">
        <ele>174</ele>
        <time>2017-02-04T15:29:52Z</time>
      </trkpt>
      <trkpt lat="41.63426" lon="2.22911">
        <ele>174</ele>
        <time>2017-02-04T15:30:05Z</time>
      </trkpt>
      <trkpt lat="41.63438" lon="2.22887">
        <ele>176</ele>
        <time>2017-02-04T15:30:28Z</time>
      </trkpt>
      <trkpt lat="41.63441" lon="2.22879">
        <ele>177</ele>
        <time>2017-02-04T15:30:34Z</time>
      </trkpt>
      <trkpt lat="41.63445" lon="2.22873">
        <ele>177</ele>
        <time>2017-02-04T15:30:39Z</time>
      </trkpt>
      <trkpt lat="41.63451" lon="2.22864">
        <ele>178</ele>
        <time>2017-02-04T15:30:49Z</time>
      </trkpt>
      <trkpt lat="41.63455" lon="2.22866">
        <ele>178</ele>
        <time>2017-02-04T15:30:53Z</time>
      </trkpt>
      <trkpt lat="41.6347" lon="2.22857">
        <ele>180</ele>
        <time>2017-02-04T15:31:09Z</time>
      </trkpt>
      <trkpt lat="41.63474" lon="2.22848">
        <ele>180</ele>
        <time>2017-02-04T15:31:17Z</time>
      </trkpt>
      <trkpt lat="41.6348" lon="2.22843">
        <ele>181</ele>
        <time>2017-02-04T15:31:24Z</time>
      </trkpt>
      <trkpt lat="41.63482" lon="2.2284">
        <ele>181</ele>
        <time>2017-02-04T15:31:27Z</time>
      </trkpt>
      <trkpt lat="41.63492" lon="2.22828">
        <ele>181</ele>
        <time>2017-02-04T15:31:41Z</time>
      </trkpt>
      <trkpt lat="41.63499" lon="2.22808">
        <ele>181</ele>
        <time>2017-02-04T15:31:57Z</time>
      </trkpt>
      <trkpt lat="41.63503" lon="2.22802">
        <ele>182</ele>
        <time>2017-02-04T15:32:03Z</time>
      </trkpt>
      <trkpt lat="41.63506" lon="2.22795">
        <ele>182</ele>
        <time>2017-02-04T15:32:09Z</time>
      </trkpt>
      <trkpt lat="41.63508" lon="2.22792">
        <ele>182</ele>
        <time>2017-02-04T15:32:12Z</time>
      </trkpt>
      <trkpt lat="41.63512" lon="2.22783">
        <ele>182</ele>
        <time>2017-02-04T15:32:20Z</time>
      </trkpt>
      <trkpt lat="41.63517" lon="2.22773">
        <ele>182</ele>
        <time>2017-02-04T15:32:29Z</time>
      </trkpt>
      <trkpt lat="41.63522" lon="2.22762">
        <ele>182</ele>
        <time>2017-02-04T15:32:39Z</time>
      </trkpt>
      <trkpt lat="41.63522" lon="2.2276">
        <ele>182</ele>
        <time>2017-02-04T15:32:40Z</time>
      </trkpt>
      <trkpt lat="41.63524" lon="2.22757">
        <ele>182</ele>
        <time>2017-02-04T15:32:43Z</time>
      </trkpt>
      <trkpt lat="41.63529" lon="2.22743">
        <ele>183</ele>
        <time>2017-02-04T15:32:55Z</time>
      </trkpt>
      <trkpt lat="41.63527" lon="2.22729">
        <ele>183</ele>
        <time>2017-02-04T15:33:05Z</time>
      </trkpt>
      <trkpt lat="41.63527" lon="2.22723">
        <ele>183</ele>
        <time>2017-02-04T15:33:09Z</time>
      </trkpt>
      <trkpt lat="41.63525" lon="2.22717">
        <ele>183</ele>
        <time>2017-02-04T15:33:15Z</time>
      </trkpt>
      <trkpt lat="41.63524" lon="2.22711">
        <ele>183</ele>
        <time>2017-02-04T15:33:19Z</time>
      </trkpt>
      <trkpt lat="41.63524" lon="2.2271">
        <ele>183</ele>
        <time>2017-02-04T15:33:20Z</time>
      </trkpt>
      <trkpt lat="41.63522" lon="2.22708">
        <ele>183</ele>
        <time>2017-02-04T15:33:22Z</time>
      </trkpt>
      <trkpt lat="41.63526" lon="2.22705">
        <ele>184</ele>
        <time>2017-02-04T15:33:26Z</time>
      </trkpt>
      <trkpt lat="41.63525" lon="2.22708">
        <ele>184</ele>
        <time>2017-02-04T15:33:29Z</time>
      </trkpt>
      <trkpt lat="41.63527" lon="2.22699">
        <ele>184</ele>
        <time>2017-02-04T15:33:36Z</time>
      </trkpt>
      <trkpt lat="41.63528" lon="2.22696">
        <ele>185</ele>
        <time>2017-02-04T15:33:38Z</time>
      </trkpt>
      <trkpt lat="41.6353" lon="2.22694">
        <ele>185</ele>
        <time>2017-02-04T15:33:40Z</time>
      </trkpt>
      <trkpt lat="41.6353" lon="2.22681">
        <ele>185</ele>
        <time>2017-02-04T15:33:50Z</time>
      </trkpt>
      <trkpt lat="41.6353" lon="2.22677">
        <ele>185</ele>
        <time>2017-02-04T15:33:53Z</time>
      </trkpt>
      <trkpt lat="41.63533" lon="2.22669">
        <ele>186</ele>
        <time>2017-02-04T15:34:00Z</time>
      </trkpt>
      <trkpt lat="41.63535" lon="2.22666">
        <ele>186</ele>
        <time>2017-02-04T15:34:03Z</time>
      </trkpt>
      <trkpt lat="41.63539" lon="2.22653">
        <ele>186</ele>
        <time>2017-02-04T15:34:13Z</time>
      </trkpt>
      <trkpt lat="41.63545" lon="2.22643">
        <ele>187</ele>
        <time>2017-02-04T15:34:23Z</time>
      </trkpt>
      <trkpt lat="41.63548" lon="2.22641">
        <ele>187</ele>
        <time>2017-02-04T15:34:26Z</time>
      </trkpt>
      <trkpt lat="41.63555" lon="2.22626">
        <ele>188</ele>
        <time>2017-02-04T15:34:39Z</time>
      </trkpt>
      <trkpt lat="41.63561" lon="2.22614">
        <ele>188</ele>
        <time>2017-02-04T15:34:50Z</time>
      </trkpt>
      <trkpt lat="41.63565" lon="2.22598">
        <ele>188</ele>
        <time>2017-02-04T15:35:02Z</time>
      </trkpt>
      <trkpt lat="41.63568" lon="2.22588">
        <ele>189</ele>
        <time>2017-02-04T15:35:10Z</time>
      </trkpt>
      <trkpt lat="41.63572" lon="2.22581">
        <ele>189</ele>
        <time>2017-02-04T15:35:17Z</time>
      </trkpt>
      <trkpt lat="41.63578" lon="2.22568">
        <ele>189</ele>
        <time>2017-02-04T15:35:28Z</time>
      </trkpt>
      <trkpt lat="41.63582" lon="2.22557">
        <ele>188</ele>
        <time>2017-02-04T15:35:37Z</time>
      </trkpt>
      <trkpt lat="41.6359" lon="2.22544">
        <ele>188</ele>
        <time>2017-02-04T15:35:50Z</time>
      </trkpt>
      <trkpt lat="41.63598" lon="2.22524">
        <ele>186</ele>
        <time>2017-02-04T15:36:07Z</time>
      </trkpt>
      <trkpt lat="41.63605" lon="2.22506">
        <ele>186</ele>
        <time>2017-02-04T15:36:22Z</time>
      </trkpt>
      <trkpt lat="41.63614" lon="2.22486">
        <ele>186</ele>
        <time>2017-02-04T15:36:40Z</time>
      </trkpt>
      <trkpt lat="41.63617" lon="2.22476">
        <ele>186</ele>
        <time>2017-02-04T15:36:48Z</time>
      </trkpt>
      <trkpt lat="41.63618" lon="2.22474">
        <ele>186</ele>
        <time>2017-02-04T15:36:50Z</time>
      </trkpt>
      <trkpt lat="41.63619" lon="2.22472">
        <ele>186</ele>
        <time>2017-02-04T15:36:51Z</time>
      </trkpt>
      <trkpt lat="41.63619" lon="2.22471">
        <ele>186</ele>
        <time>2017-02-04T15:36:53Z</time>
      </trkpt>
      <trkpt lat="41.6362" lon="2.22469">
        <ele>186</ele>
        <time>2017-02-04T15:36:54Z</time>
      </trkpt>
      <trkpt lat="41.63622" lon="2.22467">
        <ele>186</ele>
        <time>2017-02-04T15:36:57Z</time>
      </trkpt>
      <trkpt lat="41.63623" lon="2.22466">
        <ele>186</ele>
        <time>2017-02-04T15:36:58Z</time>
      </trkpt>
      <trkpt lat="41.63624" lon="2.22464">
        <ele>186</ele>
        <time>2017-02-04T15:37:00Z</time>
      </trkpt>
      <trkpt lat="41.63624" lon="2.22462">
        <ele>186</ele>
        <time>2017-02-04T15:37:01Z</time>
      </trkpt>
      <trkpt lat="41.63625" lon="2.22461">
        <ele>186</ele>
        <time>2017-02-04T15:37:02Z</time>
      </trkpt>
      <trkpt lat="41.63626" lon="2.2246">
        <ele>186</ele>
        <time>2017-02-04T15:37:04Z</time>
      </trkpt>
      <trkpt lat="41.63627" lon="2.22459">
        <ele>186</ele>
        <time>2017-02-04T15:37:05Z</time>
      </trkpt>
      <trkpt lat="41.63628" lon="2.22458">
        <ele>186</ele>
        <time>2017-02-04T15:37:06Z</time>
      </trkpt>
      <trkpt lat="41.63628" lon="2.22457">
        <ele>186</ele>
        <time>2017-02-04T15:37:07Z</time>
      </trkpt>
      <trkpt lat="41.63629" lon="2.22455">
        <ele>186</ele>
        <time>2017-02-04T15:37:08Z</time>
      </trkpt>
      <trkpt lat="41.6363" lon="2.22454">
        <ele>186</ele>
        <time>2017-02-04T15:37:09Z</time>
      </trkpt>
      <trkpt lat="41.6363" lon="2.22452">
        <ele>186</ele>
        <time>2017-02-04T15:37:11Z</time>
      </trkpt>
      <trkpt lat="41.63631" lon="2.2245">
        <ele>186</ele>
        <time>2017-02-04T15:37:12Z</time>
      </trkpt>
      <trkpt lat="41.63632" lon="2.2245">
        <ele>186</ele>
        <time>2017-02-04T15:37:13Z</time>
      </trkpt>
      <trkpt lat="41.63636" lon="2.22445">
        <ele>186</ele>
        <time>2017-02-04T15:37:19Z</time>
      </trkpt>
      <trkpt lat="41.63638" lon="2.22444">
        <ele>185</ele>
        <time>2017-02-04T15:37:20Z</time>
      </trkpt>
      <trkpt lat="41.63639" lon="2.22443">
        <ele>185</ele>
        <time>2017-02-04T15:37:22Z</time>
      </trkpt>
      <trkpt lat="41.6364" lon="2.22441">
        <ele>186</ele>
        <time>2017-02-04T15:37:23Z</time>
      </trkpt>
      <trkpt lat="41.63641" lon="2.2244">
        <ele>186</ele>
        <time>2017-02-04T15:37:25Z</time>
      </trkpt>
      <trkpt lat="41.63653" lon="2.22424">
        <ele>186</ele>
        <time>2017-02-04T15:37:42Z</time>
      </trkpt>
      <trkpt lat="41.63654" lon="2.22422">
        <ele>186</ele>
        <time>2017-02-04T15:37:43Z</time>
      </trkpt>
      <trkpt lat="41.63657" lon="2.2241">
        <ele>186</ele>
        <time>2017-02-04T15:37:53Z</time>
      </trkpt>
      <trkpt lat="41.63656" lon="2.22408">
        <ele>186</ele>
        <time>2017-02-04T15:37:55Z</time>
      </trkpt>
      <trkpt lat="41.63655" lon="2.22406">
        <ele>186</ele>
        <time>2017-02-04T15:37:57Z</time>
      </trkpt>
      <trkpt lat="41.63654" lon="2.22404">
        <ele>186</ele>
        <time>2017-02-04T15:37:59Z</time>
      </trkpt>
      <trkpt lat="41.63653" lon="2.22402">
        <ele>186</ele>
        <time>2017-02-04T15:38:01Z</time>
      </trkpt>
      <trkpt lat="41.63652" lon="2.22401">
        <ele>186</ele>
        <time>2017-02-04T15:38:03Z</time>
      </trkpt>
      <trkpt lat="41.63651" lon="2.22399">
        <ele>186</ele>
        <time>2017-02-04T15:38:04Z</time>
      </trkpt>
      <trkpt lat="41.6365" lon="2.22398">
        <ele>186</ele>
        <time>2017-02-04T15:38:05Z</time>
      </trkpt>
      <trkpt lat="41.63649" lon="2.22396">
        <ele>186</ele>
        <time>2017-02-04T15:38:07Z</time>
      </trkpt>
      <trkpt lat="41.63645" lon="2.22391">
        <ele>186</ele>
        <time>2017-02-04T15:38:12Z</time>
      </trkpt>
      <trkpt lat="41.63641" lon="2.22386">
        <ele>186</ele>
        <time>2017-02-04T15:38:17Z</time>
      </trkpt>
      <trkpt lat="41.6364" lon="2.22385">
        <ele>186</ele>
        <time>2017-02-04T15:38:19Z</time>
      </trkpt>
      <trkpt lat="41.6364" lon="2.22384">
        <ele>186</ele>
        <time>2017-02-04T15:38:20Z</time>
      </trkpt>
      <trkpt lat="41.63641" lon="2.22359">
        <ele>186</ele>
        <time>2017-02-04T15:38:38Z</time>
      </trkpt>
      <trkpt lat="41.63643" lon="2.22357">
        <ele>186</ele>
        <time>2017-02-04T15:38:41Z</time>
      </trkpt>
      <trkpt lat="41.63645" lon="2.22349">
        <ele>186</ele>
        <time>2017-02-04T15:38:47Z</time>
      </trkpt>
      <trkpt lat="41.63645" lon="2.22347">
        <ele>186</ele>
        <time>2017-02-04T15:38:48Z</time>
      </trkpt>
      <trkpt lat="41.63646" lon="2.22343">
        <ele>186</ele>
        <time>2017-02-04T15:38:52Z</time>
      </trkpt>
      <trkpt lat="41.63647" lon="2.22341">
        <ele>186</ele>
        <time>2017-02-04T15:38:53Z</time>
      </trkpt>
      <trkpt lat="41.63648" lon="2.2234">
        <ele>186</ele>
        <time>2017-02-04T15:38:54Z</time>
      </trkpt>
      <trkpt lat="41.6365" lon="2.22331">
        <ele>186</ele>
        <time>2017-02-04T15:39:01Z</time>
      </trkpt>
      <trkpt lat="41.63651" lon="2.2233">
        <ele>186</ele>
        <time>2017-02-04T15:39:02Z</time>
      </trkpt>
      <trkpt lat="41.63651" lon="2.22324">
        <ele>187</ele>
        <time>2017-02-04T15:39:07Z</time>
      </trkpt>
      <trkpt lat="41.63653" lon="2.22319">
        <ele>187</ele>
        <time>2017-02-04T15:39:11Z</time>
      </trkpt>
      <trkpt lat="41.63653" lon="2.22318">
        <ele>187</ele>
        <time>2017-02-04T15:39:12Z</time>
      </trkpt>
      <trkpt lat="41.63654" lon="2.22315">
        <ele>187</ele>
        <time>2017-02-04T15:39:14Z</time>
      </trkpt>
      <trkpt lat="41.63654" lon="2.22313">
        <ele>187</ele>
        <time>2017-02-04T15:39:15Z</time>
      </trkpt>
      <trkpt lat="41.63655" lon="2.22312">
        <ele>188</ele>
        <time>2017-02-04T15:39:17Z</time>
      </trkpt>
      <trkpt lat="41.63655" lon="2.2231">
        <ele>188</ele>
        <time>2017-02-04T15:39:18Z</time>
      </trkpt>
      <trkpt lat="41.63656" lon="2.22309">
        <ele>188</ele>
        <time>2017-02-04T15:39:19Z</time>
      </trkpt>
      <trkpt lat="41.63656" lon="2.22308">
        <ele>188</ele>
        <time>2017-02-04T15:39:20Z</time>
      </trkpt>
      <trkpt lat="41.63656" lon="2.22306">
        <ele>188</ele>
        <time>2017-02-04T15:39:21Z</time>
      </trkpt>
      <trkpt lat="41.63658" lon="2.22287">
        <ele>190</ele>
        <time>2017-02-04T15:39:36Z</time>
      </trkpt>
      <trkpt lat="41.63658" lon="2.22264">
        <ele>192</ele>
        <time>2017-02-04T15:39:53Z</time>
      </trkpt>
      <trkpt lat="41.63655" lon="2.22239">
        <ele>193</ele>
        <time>2017-02-04T15:40:12Z</time>
      </trkpt>
      <trkpt lat="41.63652" lon="2.22214">
        <ele>194</ele>
        <time>2017-02-04T15:40:31Z</time>
      </trkpt>
      <trkpt lat="41.63652" lon="2.22208">
        <ele>195</ele>
        <time>2017-02-04T15:40:35Z</time>
      </trkpt>
      <trkpt lat="41.63652" lon="2.22207">
        <ele>195</ele>
        <time>2017-02-04T15:40:36Z</time>
      </trkpt>
      <trkpt lat="41.63652" lon="2.22205">
        <ele>195</ele>
        <time>2017-02-04T15:40:37Z</time>
      </trkpt>
      <trkpt lat="41.63651" lon="2.22191">
        <ele>196</ele>
        <time>2017-02-04T15:40:48Z</time>
      </trkpt>
      <trkpt lat="41.63651" lon="2.2219">
        <ele>196</ele>
        <time>2017-02-04T15:40:49Z</time>
      </trkpt>
      <trkpt lat="41.63651" lon="2.22188">
        <ele>196</ele>
        <time>2017-02-04T15:40:51Z</time>
      </trkpt>
      <trkpt lat="41.63651" lon="2.22186">
        <ele>196</ele>
        <time>2017-02-04T15:40:52Z</time>
      </trkpt>
      <trkpt lat="41.63651" lon="2.22182">
        <ele>196</ele>
        <time>2017-02-04T15:40:55Z</time>
      </trkpt>
      <trkpt lat="41.63651" lon="2.2218">
        <ele>196</ele>
        <time>2017-02-04T15:40:56Z</time>
      </trkpt>
      <trkpt lat="41.6365" lon="2.22166">
        <ele>197</ele>
        <time>2017-02-04T15:41:07Z</time>
      </trkpt>
      <trkpt lat="41.6365" lon="2.22164">
        <ele>197</ele>
        <time>2017-02-04T15:41:08Z</time>
      </trkpt>
      <trkpt lat="41.6365" lon="2.22163">
        <ele>197</ele>
        <time>2017-02-04T15:41:09Z</time>
      </trkpt>
      <trkpt lat="41.6365" lon="2.22161">
        <ele>197</ele>
        <time>2017-02-04T15:41:10Z</time>
      </trkpt>
      <trkpt lat="41.6365" lon="2.22133">
        <ele>197</ele>
        <time>2017-02-04T15:41:31Z</time>
      </trkpt>
      <trkpt lat="41.63651" lon="2.22127">
        <ele>197</ele>
        <time>2017-02-04T15:41:36Z</time>
      </trkpt>
      <trkpt lat="41.63651" lon="2.22102">
        <ele>198</ele>
        <time>2017-02-04T15:41:55Z</time>
      </trkpt>
      <trkpt lat="41.63651" lon="2.221">
        <ele>199</ele>
        <time>2017-02-04T15:41:56Z</time>
      </trkpt>
      <trkpt lat="41.63651" lon="2.22098">
        <ele>199</ele>
        <time>2017-02-04T15:41:58Z</time>
      </trkpt>
      <trkpt lat="41.63651" lon="2.22096">
        <ele>199</ele>
        <time>2017-02-04T15:41:59Z</time>
      </trkpt>
      <trkpt lat="41.63651" lon="2.22095">
        <ele>199</ele>
        <time>2017-02-04T15:42:00Z</time>
      </trkpt>
      <trkpt lat="41.63651" lon="2.22092">
        <ele>199</ele>
        <time>2017-02-04T15:42:02Z</time>
      </trkpt>
      <trkpt lat="41.63651" lon="2.2209">
        <ele>199</ele>
        <time>2017-02-04T15:42:04Z</time>
      </trkpt>
      <trkpt lat="41.63652" lon="2.22088">
        <ele>199</ele>
        <time>2017-02-04T15:42:05Z</time>
      </trkpt>
      <trkpt lat="41.63652" lon="2.22087">
        <ele>199</ele>
        <time>2017-02-04T15:42:07Z</time>
      </trkpt>
      <trkpt lat="41.63654" lon="2.22071">
        <ele>200</ele>
        <time>2017-02-04T15:42:18Z</time>
      </trkpt>
      <trkpt lat="41.63656" lon="2.22068">
        <ele>200</ele>
        <time>2017-02-04T15:42:21Z</time>
      </trkpt>
      <trkpt lat="41.63657" lon="2.22067">
        <ele>200</ele>
        <time>2017-02-04T15:42:22Z</time>
      </trkpt>
      <trkpt lat="41.63657" lon="2.22066">
        <ele>200</ele>
        <time>2017-02-04T15:42:23Z</time>
      </trkpt>
      <trkpt lat="41.63658" lon="2.22064">
        <ele>200</ele>
        <time>2017-02-04T15:42:25Z</time>
      </trkpt>
      <trkpt lat="41.6366" lon="2.22063">
        <ele>200</ele>
        <time>2017-02-04T15:42:27Z</time>
      </trkpt>
      <trkpt lat="41.63661" lon="2.22062">
        <ele>200</ele>
        <time>2017-02-04T15:42:28Z</time>
      </trkpt>
      <trkpt lat="41.63661" lon="2.22061">
        <ele>200</ele>
        <time>2017-02-04T15:42:29Z</time>
      </trkpt>
      <trkpt lat="41.63662" lon="2.2206">
        <ele>200</ele>
        <time>2017-02-04T15:42:30Z</time>
      </trkpt>
      <trkpt lat="41.63663" lon="2.22059">
        <ele>200</ele>
        <time>2017-02-04T15:42:32Z</time>
      </trkpt>
      <trkpt lat="41.63664" lon="2.22058">
        <ele>200</ele>
        <time>2017-02-04T15:42:33Z</time>
      </trkpt>
      <trkpt lat="41.63666" lon="2.22056">
        <ele>200</ele>
        <time>2017-02-04T15:42:35Z</time>
      </trkpt>
      <trkpt lat="41.63667" lon="2.22055">
        <ele>201</ele>
        <time>2017-02-04T15:42:37Z</time>
      </trkpt>
      <trkpt lat="41.63678" lon="2.22035">
        <ele>202</ele>
        <time>2017-02-04T15:42:54Z</time>
      </trkpt>
      <trkpt lat="41.63678" lon="2.22033">
        <ele>202</ele>
        <time>2017-02-04T15:42:56Z</time>
      </trkpt>
      <trkpt lat="41.63678" lon="2.22031">
        <ele>202</ele>
        <time>2017-02-04T15:42:58Z</time>
      </trkpt>
      <trkpt lat="41.63678" lon="2.2203">
        <ele>202</ele>
        <time>2017-02-04T15:42:59Z</time>
      </trkpt>
      <trkpt lat="41.63679" lon="2.22028">
        <ele>202</ele>
        <time>2017-02-04T15:43:00Z</time>
      </trkpt>
      <trkpt lat="41.6368" lon="2.22027">
        <ele>202</ele>
        <time>2017-02-04T15:43:02Z</time>
      </trkpt>
      <trkpt lat="41.63681" lon="2.22022">
        <ele>202</ele>
        <time>2017-02-04T15:43:05Z</time>
      </trkpt>
      <trkpt lat="41.63681" lon="2.22021">
        <ele>202</ele>
        <time>2017-02-04T15:43:06Z</time>
      </trkpt>
      <trkpt lat="41.63681" lon="2.22019">
        <ele>202</ele>
        <time>2017-02-04T15:43:07Z</time>
      </trkpt>
      <trkpt lat="41.63682" lon="2.22018">
        <ele>202</ele>
        <time>2017-02-04T15:43:09Z</time>
      </trkpt>
      <trkpt lat="41.63682" lon="2.22016">
        <ele>202</ele>
        <time>2017-02-04T15:43:10Z</time>
      </trkpt>
      <trkpt lat="41.63683" lon="2.22014">
        <ele>203</ele>
        <time>2017-02-04T15:43:11Z</time>
      </trkpt>
      <trkpt lat="41.63683" lon="2.22012">
        <ele>203</ele>
        <time>2017-02-04T15:43:13Z</time>
      </trkpt>
      <trkpt lat="41.63689" lon="2.21993">
        <ele>204</ele>
        <time>2017-02-04T15:43:28Z</time>
      </trkpt>
      <trkpt lat="41.63691" lon="2.21981">
        <ele>204</ele>
        <time>2017-02-04T15:43:38Z</time>
      </trkpt>
      <trkpt lat="41.63692" lon="2.21979">
        <ele>204</ele>
        <time>2017-02-04T15:43:39Z</time>
      </trkpt>
      <trkpt lat="41.63692" lon="2.21978">
        <ele>204</ele>
        <time>2017-02-04T15:43:40Z</time>
      </trkpt>
      <trkpt lat="41.63692" lon="2.21976">
        <ele>204</ele>
        <time>2017-02-04T15:43:41Z</time>
      </trkpt>
      <trkpt lat="41.63693" lon="2.21975">
        <ele>204</ele>
        <time>2017-02-04T15:43:43Z</time>
      </trkpt>
      <trkpt lat="41.63694" lon="2.21959">
        <ele>204</ele>
        <time>2017-02-04T15:43:55Z</time>
      </trkpt>
      <trkpt lat="41.63697" lon="2.21934">
        <ele>205</ele>
        <time>2017-02-04T15:44:13Z</time>
      </trkpt>
      <trkpt lat="41.63699" lon="2.21913">
        <ele>206</ele>
        <time>2017-02-04T15:44:30Z</time>
      </trkpt>
      <trkpt lat="41.637" lon="2.21911">
        <ele>206</ele>
        <time>2017-02-04T15:44:31Z</time>
      </trkpt>
      <trkpt lat="41.637" lon="2.21909">
        <ele>206</ele>
        <time>2017-02-04T15:44:32Z</time>
      </trkpt>
      <trkpt lat="41.637" lon="2.21908">
        <ele>206</ele>
        <time>2017-02-04T15:44:34Z</time>
      </trkpt>
      <trkpt lat="41.63701" lon="2.21906">
        <ele>206</ele>
        <time>2017-02-04T15:44:35Z</time>
      </trkpt>
      <trkpt lat="41.63701" lon="2.21904">
        <ele>206</ele>
        <time>2017-02-04T15:44:36Z</time>
      </trkpt>
      <trkpt lat="41.63701" lon="2.21902">
        <ele>206</ele>
        <time>2017-02-04T15:44:38Z</time>
      </trkpt>
      <trkpt lat="41.63702" lon="2.219">
        <ele>206</ele>
        <time>2017-02-04T15:44:39Z</time>
      </trkpt>
      <trkpt lat="41.63703" lon="2.21899">
        <ele>206</ele>
        <time>2017-02-04T15:44:41Z</time>
      </trkpt>
      <trkpt lat="41.63703" lon="2.21897">
        <ele>206</ele>
        <time>2017-02-04T15:44:42Z</time>
      </trkpt>
      <trkpt lat="41.63704" lon="2.21887">
        <ele>206</ele>
        <time>2017-02-04T15:44:50Z</time>
      </trkpt>
      <trkpt lat="41.63704" lon="2.21885">
        <ele>206</ele>
        <time>2017-02-04T15:44:51Z</time>
      </trkpt>
      <trkpt lat="41.63706" lon="2.21887">
        <ele>206</ele>
        <time>2017-02-04T15:44:53Z</time>
      </trkpt>
      <trkpt lat="41.63706" lon="2.21884">
        <ele>206</ele>
        <time>2017-02-04T15:44:56Z</time>
      </trkpt>
      <trkpt lat="41.63706" lon="2.21882">
        <ele>206</ele>
        <time>2017-02-04T15:44:57Z</time>
      </trkpt>
      <trkpt lat="41.63707" lon="2.21878">
        <ele>206</ele>
        <time>2017-02-04T15:45:00Z</time>
      </trkpt>
      <trkpt lat="41.63707" lon="2.21877">
        <ele>206</ele>
        <time>2017-02-04T15:45:01Z</time>
      </trkpt>
      <trkpt lat="41.63708" lon="2.21875">
        <ele>206</ele>
        <time>2017-02-04T15:45:03Z</time>
      </trkpt>
      <trkpt lat="41.63708" lon="2.21873">
        <ele>206</ele>
        <time>2017-02-04T15:45:04Z</time>
      </trkpt>
      <trkpt lat="41.63713" lon="2.21856">
        <ele>207</ele>
        <time>2017-02-04T15:45:18Z</time>
      </trkpt>
      <trkpt lat="41.63715" lon="2.21841">
        <ele>207</ele>
        <time>2017-02-04T15:45:29Z</time>
      </trkpt>
      <trkpt lat="41.63716" lon="2.21839">
        <ele>207</ele>
        <time>2017-02-04T15:45:30Z</time>
      </trkpt>
      <trkpt lat="41.63716" lon="2.21838">
        <ele>207</ele>
        <time>2017-02-04T15:45:32Z</time>
      </trkpt>
      <trkpt lat="41.63719" lon="2.21826">
        <ele>207</ele>
        <time>2017-02-04T15:45:41Z</time>
      </trkpt>
      <trkpt lat="41.63719" lon="2.21824">
        <ele>207</ele>
        <time>2017-02-04T15:45:42Z</time>
      </trkpt>
      <trkpt lat="41.63719" lon="2.21823">
        <ele>207</ele>
        <time>2017-02-04T15:45:44Z</time>
      </trkpt>
      <trkpt lat="41.63721" lon="2.21814">
        <ele>207</ele>
        <time>2017-02-04T15:45:50Z</time>
      </trkpt>
      <trkpt lat="41.63721" lon="2.21813">
        <ele>207</ele>
        <time>2017-02-04T15:45:51Z</time>
      </trkpt>
      <trkpt lat="41.63724" lon="2.21791">
        <ele>208</ele>
        <time>2017-02-04T15:46:07Z</time>
      </trkpt>
      <trkpt lat="41.63726" lon="2.21778">
        <ele>209</ele>
        <time>2017-02-04T15:46:18Z</time>
      </trkpt>
      <trkpt lat="41.63726" lon="2.21777">
        <ele>209</ele>
        <time>2017-02-04T15:46:19Z</time>
      </trkpt>
      <trkpt lat="41.63726" lon="2.21775">
        <ele>209</ele>
        <time>2017-02-04T15:46:20Z</time>
      </trkpt>
      <trkpt lat="41.63732" lon="2.21754">
        <ele>210</ele>
        <time>2017-02-04T15:46:36Z</time>
      </trkpt>
      <trkpt lat="41.63735" lon="2.21737">
        <ele>211</ele>
        <time>2017-02-04T15:46:50Z</time>
      </trkpt>
      <trkpt lat="41.63737" lon="2.21732">
        <ele>211</ele>
        <time>2017-02-04T15:46:54Z</time>
      </trkpt>
      <trkpt lat="41.63737" lon="2.2173">
        <ele>211</ele>
        <time>2017-02-04T15:46:55Z</time>
      </trkpt>
      <trkpt lat="41.63737" lon="2.21728">
        <ele>211</ele>
        <time>2017-02-04T15:46:57Z</time>
      </trkpt>
      <trkpt lat="41.63737" lon="2.21726">
        <ele>211</ele>
        <time>2017-02-04T15:46:58Z</time>
      </trkpt>
      <trkpt lat="41.63737" lon="2.21724">
        <ele>211</ele>
        <time>2017-02-04T15:47:00Z</time>
      </trkpt>
      <trkpt lat="41.63742" lon="2.21706">
        <ele>212</ele>
        <time>2017-02-04T15:47:14Z</time>
      </trkpt>
      <trkpt lat="41.63741" lon="2.21704">
        <ele>212</ele>
        <time>2017-02-04T15:47:16Z</time>
      </trkpt>
      <trkpt lat="41.63732" lon="2.21684">
        <ele>213</ele>
        <time>2017-02-04T15:47:33Z</time>
      </trkpt>
      <trkpt lat="41.63731" lon="2.21682">
        <ele>213</ele>
        <time>2017-02-04T15:47:35Z</time>
      </trkpt>
      <trkpt lat="41.63731" lon="2.21681">
        <ele>213</ele>
        <time>2017-02-04T15:47:36Z</time>
      </trkpt>
      <trkpt lat="41.63729" lon="2.21678">
        <ele>213</ele>
        <time>2017-02-04T15:47:38Z</time>
      </trkpt>
      <trkpt lat="41.63729" lon="2.21677">
        <ele>213</ele>
        <time>2017-02-04T15:47:40Z</time>
      </trkpt>
      <trkpt lat="41.63729" lon="2.21675">
        <ele>213</ele>
        <time>2017-02-04T15:47:41Z</time>
      </trkpt>
      <trkpt lat="41.63729" lon="2.21674">
        <ele>213</ele>
        <time>2017-02-04T15:47:42Z</time>
      </trkpt>
      <trkpt lat="41.63728" lon="2.21672">
        <ele>213</ele>
        <time>2017-02-04T15:47:43Z</time>
      </trkpt>
      <trkpt lat="41.63728" lon="2.2167">
        <ele>213</ele>
        <time>2017-02-04T15:47:44Z</time>
      </trkpt>
      <trkpt lat="41.63725" lon="2.21647">
        <ele>213</ele>
        <time>2017-02-04T15:48:02Z</time>
      </trkpt>
      <trkpt lat="41.63726" lon="2.21629">
        <ele>213</ele>
        <time>2017-02-04T15:48:16Z</time>
      </trkpt>
      <trkpt lat="41.63726" lon="2.21628">
        <ele>213</ele>
        <time>2017-02-04T15:48:17Z</time>
      </trkpt>
      <trkpt lat="41.63726" lon="2.21626">
        <ele>213</ele>
        <time>2017-02-04T15:48:18Z</time>
      </trkpt>
      <trkpt lat="41.63726" lon="2.21624">
        <ele>213</ele>
        <time>2017-02-04T15:48:19Z</time>
      </trkpt>
      <trkpt lat="41.63727" lon="2.21623">
        <ele>213</ele>
        <time>2017-02-04T15:48:20Z</time>
      </trkpt>
      <trkpt lat="41.63727" lon="2.21621">
        <ele>213</ele>
        <time>2017-02-04T15:48:22Z</time>
      </trkpt>
      <trkpt lat="41.63727" lon="2.2162">
        <ele>213</ele>
        <time>2017-02-04T15:48:23Z</time>
      </trkpt>
      <trkpt lat="41.63728" lon="2.21618">
        <ele>213</ele>
        <time>2017-02-04T15:48:24Z</time>
      </trkpt>
      <trkpt lat="41.63728" lon="2.21617">
        <ele>213</ele>
        <time>2017-02-04T15:48:25Z</time>
      </trkpt>
      <trkpt lat="41.63728" lon="2.21615">
        <ele>213</ele>
        <time>2017-02-04T15:48:26Z</time>
      </trkpt>
      <trkpt lat="41.63729" lon="2.21614">
        <ele>213</ele>
        <time>2017-02-04T15:48:27Z</time>
      </trkpt>
      <trkpt lat="41.63729" lon="2.21612">
        <ele>213</ele>
        <time>2017-02-04T15:48:29Z</time>
      </trkpt>
      <trkpt lat="41.63729" lon="2.21611">
        <ele>213</ele>
        <time>2017-02-04T15:48:30Z</time>
      </trkpt>
      <trkpt lat="41.63729" lon="2.21609">
        <ele>213</ele>
        <time>2017-02-04T15:48:31Z</time>
      </trkpt>
      <trkpt lat="41.6373" lon="2.21608">
        <ele>213</ele>
        <time>2017-02-04T15:48:32Z</time>
      </trkpt>
      <trkpt lat="41.6373" lon="2.21606">
        <ele>214</ele>
        <time>2017-02-04T15:48:33Z</time>
      </trkpt>
      <trkpt lat="41.63735" lon="2.2158">
        <ele>215</ele>
        <time>2017-02-04T15:48:53Z</time>
      </trkpt>
      <trkpt lat="41.63737" lon="2.21568">
        <ele>215</ele>
        <time>2017-02-04T15:49:03Z</time>
      </trkpt>
      <trkpt lat="41.63738" lon="2.21566">
        <ele>215</ele>
        <time>2017-02-04T15:49:04Z</time>
      </trkpt>
      <trkpt lat="41.63741" lon="2.21547">
        <ele>216</ele>
        <time>2017-02-04T15:49:19Z</time>
      </trkpt>
      <trkpt lat="41.63742" lon="2.21545">
        <ele>216</ele>
        <time>2017-02-04T15:49:20Z</time>
      </trkpt>
      <trkpt lat="41.63742" lon="2.21544">
        <ele>216</ele>
        <time>2017-02-04T15:49:22Z</time>
      </trkpt>
      <trkpt lat="41.63743" lon="2.21542">
        <ele>216</ele>
        <time>2017-02-04T15:49:23Z</time>
      </trkpt>
      <trkpt lat="41.63743" lon="2.2154">
        <ele>216</ele>
        <time>2017-02-04T15:49:24Z</time>
      </trkpt>
      <trkpt lat="41.63743" lon="2.21539">
        <ele>216</ele>
        <time>2017-02-04T15:49:26Z</time>
      </trkpt>
      <trkpt lat="41.63744" lon="2.21537">
        <ele>216</ele>
        <time>2017-02-04T15:49:27Z</time>
      </trkpt>
      <trkpt lat="41.63744" lon="2.21535">
        <ele>216</ele>
        <time>2017-02-04T15:49:28Z</time>
      </trkpt>
      <trkpt lat="41.63744" lon="2.21534">
        <ele>216</ele>
        <time>2017-02-04T15:49:29Z</time>
      </trkpt>
      <trkpt lat="41.63745" lon="2.21533">
        <ele>216</ele>
        <time>2017-02-04T15:49:30Z</time>
      </trkpt>
      <trkpt lat="41.63745" lon="2.21531">
        <ele>216</ele>
        <time>2017-02-04T15:49:32Z</time>
      </trkpt>
      <trkpt lat="41.63746" lon="2.2153">
        <ele>216</ele>
        <time>2017-02-04T15:49:33Z</time>
      </trkpt>
      <trkpt lat="41.63747" lon="2.21528">
        <ele>216</ele>
        <time>2017-02-04T15:49:34Z</time>
      </trkpt>
      <trkpt lat="41.63747" lon="2.21526">
        <ele>216</ele>
        <time>2017-02-04T15:49:36Z</time>
      </trkpt>
      <trkpt lat="41.63747" lon="2.21525">
        <ele>216</ele>
        <time>2017-02-04T15:49:37Z</time>
      </trkpt>
      <trkpt lat="41.63748" lon="2.21523">
        <ele>216</ele>
        <time>2017-02-04T15:49:38Z</time>
      </trkpt>
      <trkpt lat="41.63749" lon="2.21521">
        <ele>216</ele>
        <time>2017-02-04T15:49:40Z</time>
      </trkpt>
      <trkpt lat="41.63756" lon="2.21497">
        <ele>215</ele>
        <time>2017-02-04T15:50:00Z</time>
      </trkpt>
      <trkpt lat="41.63756" lon="2.21472">
        <ele>214</ele>
        <time>2017-02-04T15:50:18Z</time>
      </trkpt>
      <trkpt lat="41.63751" lon="2.21444">
        <ele>213</ele>
        <time>2017-02-04T15:50:40Z</time>
      </trkpt>
      <trkpt lat="41.6375" lon="2.21436">
        <ele>213</ele>
        <time>2017-02-04T15:50:45Z</time>
      </trkpt>
      <trkpt lat="41.63751" lon="2.21434">
        <ele>213</ele>
        <time>2017-02-04T15:50:47Z</time>
      </trkpt>
      <trkpt lat="41.63751" lon="2.21432">
        <ele>213</ele>
        <time>2017-02-04T15:50:49Z</time>
      </trkpt>
      <trkpt lat="41.63758" lon="2.2141">
        <ele>213</ele>
        <time>2017-02-04T15:51:06Z</time>
      </trkpt>
      <trkpt lat="41.63763" lon="2.21382">
        <ele>215</ele>
        <time>2017-02-04T15:51:28Z</time>
      </trkpt>
      <trkpt lat="41.63755" lon="2.21359">
        <ele>217</ele>
        <time>2017-02-04T15:51:48Z</time>
      </trkpt>
      <trkpt lat="41.6375" lon="2.21345">
        <ele>217</ele>
        <time>2017-02-04T15:51:59Z</time>
      </trkpt>
      <trkpt lat="41.6375" lon="2.21326">
        <ele>218</ele>
        <time>2017-02-04T15:52:14Z</time>
      </trkpt>
      <trkpt lat="41.63754" lon="2.21313">
        <ele>219</ele>
        <time>2017-02-04T15:52:24Z</time>
      </trkpt>
      <trkpt lat="41.6376" lon="2.21297">
        <ele>221</ele>
        <time>2017-02-04T15:52:37Z</time>
      </trkpt>
      <trkpt lat="41.6376" lon="2.21294">
        <ele>221</ele>
        <time>2017-02-04T15:52:40Z</time>
      </trkpt>
      <trkpt lat="41.63761" lon="2.21292">
        <ele>222</ele>
        <time>2017-02-04T15:52:41Z</time>
      </trkpt>
      <trkpt lat="41.63762" lon="2.21277">
        <ele>223</ele>
        <time>2017-02-04T15:52:52Z</time>
      </trkpt>
      <trkpt lat="41.63762" lon="2.21276">
        <ele>223</ele>
        <time>2017-02-04T15:52:54Z</time>
      </trkpt>
      <trkpt lat="41.63763" lon="2.21253">
        <ele>224</ele>
        <time>2017-02-04T15:53:11Z</time>
      </trkpt>
      <trkpt lat="41.63764" lon="2.21239">
        <ele>224</ele>
        <time>2017-02-04T15:53:21Z</time>
      </trkpt>
      <trkpt lat="41.63764" lon="2.21235">
        <ele>224</ele>
        <time>2017-02-04T15:53:24Z</time>
      </trkpt>
      <trkpt lat="41.63765" lon="2.21233">
        <ele>224</ele>
        <time>2017-02-04T15:53:25Z</time>
      </trkpt>
      <trkpt lat="41.63765" lon="2.21232">
        <ele>224</ele>
        <time>2017-02-04T15:53:27Z</time>
      </trkpt>
      <trkpt lat="41.6377" lon="2.2121">
        <ele>224</ele>
        <time>2017-02-04T15:53:43Z</time>
      </trkpt>
      <trkpt lat="41.63774" lon="2.21201">
        <ele>224</ele>
        <time>2017-02-04T15:53:51Z</time>
      </trkpt>
      <trkpt lat="41.63774" lon="2.21199">
        <ele>224</ele>
        <time>2017-02-04T15:53:53Z</time>
      </trkpt>
      <trkpt lat="41.63775" lon="2.21198">
        <ele>224</ele>
        <time>2017-02-04T15:53:54Z</time>
      </trkpt>
      <trkpt lat="41.63776" lon="2.21196">
        <ele>224</ele>
        <time>2017-02-04T15:53:55Z</time>
      </trkpt>
      <trkpt lat="41.63776" lon="2.21195">
        <ele>224</ele>
        <time>2017-02-04T15:53:57Z</time>
      </trkpt>
      <trkpt lat="41.63777" lon="2.21193">
        <ele>224</ele>
        <time>2017-02-04T15:53:58Z</time>
      </trkpt>
      <trkpt lat="41.63777" lon="2.21191">
        <ele>224</ele>
        <time>2017-02-04T15:53:59Z</time>
      </trkpt>
      <trkpt lat="41.63778" lon="2.2119">
        <ele>224</ele>
        <time>2017-02-04T15:54:01Z</time>
      </trkpt>
      <trkpt lat="41.63778" lon="2.21188">
        <ele>224</ele>
        <time>2017-02-04T15:54:02Z</time>
      </trkpt>
      <trkpt lat="41.63782" lon="2.21179">
        <ele>224</ele>
        <time>2017-02-04T15:54:10Z</time>
      </trkpt>
      <trkpt lat="41.63789" lon="2.21168">
        <ele>225</ele>
        <time>2017-02-04T15:54:21Z</time>
      </trkpt>
      <trkpt lat="41.6379" lon="2.21167">
        <ele>225</ele>
        <time>2017-02-04T15:54:22Z</time>
      </trkpt>
      <trkpt lat="41.63791" lon="2.21165">
        <ele>225</ele>
        <time>2017-02-04T15:54:24Z</time>
      </trkpt>
      <trkpt lat="41.63797" lon="2.2115">
        <ele>226</ele>
        <time>2017-02-04T15:54:36Z</time>
      </trkpt>
      <trkpt lat="41.63804" lon="2.21134">
        <ele>226</ele>
        <time>2017-02-04T15:54:50Z</time>
      </trkpt>
      <trkpt lat="41.63809" lon="2.21124">
        <ele>227</ele>
        <time>2017-02-04T15:54:59Z</time>
      </trkpt>
      <trkpt lat="41.63809" lon="2.21123">
        <ele>227</ele>
        <time>2017-02-04T15:55:00Z</time>
      </trkpt>
      <trkpt lat="41.6381" lon="2.21121">
        <ele>227</ele>
        <time>2017-02-04T15:55:01Z</time>
      </trkpt>
      <trkpt lat="41.6381" lon="2.2112">
        <ele>227</ele>
        <time>2017-02-04T15:55:03Z</time>
      </trkpt>
      <trkpt lat="41.63811" lon="2.21119">
        <ele>227</ele>
        <time>2017-02-04T15:55:04Z</time>
      </trkpt>
      <trkpt lat="41.63814" lon="2.21117">
        <ele>227</ele>
        <time>2017-02-04T15:55:07Z</time>
      </trkpt>
      <trkpt lat="41.63814" lon="2.21115">
        <ele>227</ele>
        <time>2017-02-04T15:55:08Z</time>
      </trkpt>
      <trkpt lat="41.63817" lon="2.2111">
        <ele>227</ele>
        <time>2017-02-04T15:55:13Z</time>
      </trkpt>
      <trkpt lat="41.63818" lon="2.21108">
        <ele>227</ele>
        <time>2017-02-04T15:55:14Z</time>
      </trkpt>
      <trkpt lat="41.63823" lon="2.21091">
        <ele>228</ele>
        <time>2017-02-04T15:55:28Z</time>
      </trkpt>
      <trkpt lat="41.63824" lon="2.21075">
        <ele>229</ele>
        <time>2017-02-04T15:55:41Z</time>
      </trkpt>
      <trkpt lat="41.63824" lon="2.21072">
        <ele>230</ele>
        <time>2017-02-04T15:55:43Z</time>
      </trkpt>
      <trkpt lat="41.63824" lon="2.2107">
        <ele>230</ele>
        <time>2017-02-04T15:55:44Z</time>
      </trkpt>
      <trkpt lat="41.63824" lon="2.21069">
        <ele>230</ele>
        <time>2017-02-04T15:55:45Z</time>
      </trkpt>
      <trkpt lat="41.63824" lon="2.21065">
        <ele>230</ele>
        <time>2017-02-04T15:55:47Z</time>
      </trkpt>
      <trkpt lat="41.63824" lon="2.21064">
        <ele>230</ele>
        <time>2017-02-04T15:55:49Z</time>
      </trkpt>
      <trkpt lat="41.63829" lon="2.21042">
        <ele>232</ele>
        <time>2017-02-04T15:56:06Z</time>
      </trkpt>
      <trkpt lat="41.63834" lon="2.21021">
        <ele>234</ele>
        <time>2017-02-04T15:56:22Z</time>
      </trkpt>
      <trkpt lat="41.63836" lon="2.21014">
        <ele>234</ele>
        <time>2017-02-04T15:56:27Z</time>
      </trkpt>
      <trkpt lat="41.63836" lon="2.21013">
        <ele>234</ele>
        <time>2017-02-04T15:56:29Z</time>
      </trkpt>
      <trkpt lat="41.63837" lon="2.21011">
        <ele>234</ele>
        <time>2017-02-04T15:56:30Z</time>
      </trkpt>
      <trkpt lat="41.63838" lon="2.2101">
        <ele>234</ele>
        <time>2017-02-04T15:56:31Z</time>
      </trkpt>
      <trkpt lat="41.63838" lon="2.21008">
        <ele>235</ele>
        <time>2017-02-04T15:56:33Z</time>
      </trkpt>
      <trkpt lat="41.63838" lon="2.21005">
        <ele>235</ele>
        <time>2017-02-04T15:56:35Z</time>
      </trkpt>
      <trkpt lat="41.63837" lon="2.21003">
        <ele>235</ele>
        <time>2017-02-04T15:56:36Z</time>
      </trkpt>
      <trkpt lat="41.63837" lon="2.20998">
        <ele>235</ele>
        <time>2017-02-04T15:56:40Z</time>
      </trkpt>
      <trkpt lat="41.63837" lon="2.20995">
        <ele>235</ele>
        <time>2017-02-04T15:56:42Z</time>
      </trkpt>
      <trkpt lat="41.63837" lon="2.20994">
        <ele>235</ele>
        <time>2017-02-04T15:56:43Z</time>
      </trkpt>
      <trkpt lat="41.63837" lon="2.20992">
        <ele>235</ele>
        <time>2017-02-04T15:56:45Z</time>
      </trkpt>
      <trkpt lat="41.63837" lon="2.2099">
        <ele>235</ele>
        <time>2017-02-04T15:56:46Z</time>
      </trkpt>
      <trkpt lat="41.63837" lon="2.20988">
        <ele>235</ele>
        <time>2017-02-04T15:56:48Z</time>
      </trkpt>
      <trkpt lat="41.63837" lon="2.20986">
        <ele>235</ele>
        <time>2017-02-04T15:56:49Z</time>
      </trkpt>
      <trkpt lat="41.63837" lon="2.20984">
        <ele>235</ele>
        <time>2017-02-04T15:56:51Z</time>
      </trkpt>
      <trkpt lat="41.63832" lon="2.20966">
        <ele>235</ele>
        <time>2017-02-04T15:57:05Z</time>
      </trkpt>
      <trkpt lat="41.6383" lon="2.20944">
        <ele>235</ele>
        <time>2017-02-04T15:57:22Z</time>
      </trkpt>
      <trkpt lat="41.63832" lon="2.20937">
        <ele>236</ele>
        <time>2017-02-04T15:57:27Z</time>
      </trkpt>
      <trkpt lat="41.63833" lon="2.20936">
        <ele>236</ele>
        <time>2017-02-04T15:57:28Z</time>
      </trkpt>
      <trkpt lat="41.63834" lon="2.20933">
        <ele>236</ele>
        <time>2017-02-04T15:57:31Z</time>
      </trkpt>
      <trkpt lat="41.63835" lon="2.20932">
        <ele>236</ele>
        <time>2017-02-04T15:57:32Z</time>
      </trkpt>
      <trkpt lat="41.63844" lon="2.20917">
        <ele>237</ele>
        <time>2017-02-04T15:57:46Z</time>
      </trkpt>
      <trkpt lat="41.63851" lon="2.2091">
        <ele>238</ele>
        <time>2017-02-04T15:57:55Z</time>
      </trkpt>
      <trkpt lat="41.63852" lon="2.20909">
        <ele>238</ele>
        <time>2017-02-04T15:57:57Z</time>
      </trkpt>
      <trkpt lat="41.63853" lon="2.20908">
        <ele>238</ele>
        <time>2017-02-04T15:57:58Z</time>
      </trkpt>
      <trkpt lat="41.6386" lon="2.20903">
        <ele>239</ele>
        <time>2017-02-04T15:58:05Z</time>
      </trkpt>
      <trkpt lat="41.63861" lon="2.20903">
        <ele>239</ele>
        <time>2017-02-04T15:58:06Z</time>
      </trkpt>
      <trkpt lat="41.63862" lon="2.20903">
        <ele>239</ele>
        <time>2017-02-04T15:58:07Z</time>
      </trkpt>
      <trkpt lat="41.63869" lon="2.20899">
        <ele>240</ele>
        <time>2017-02-04T15:58:15Z</time>
      </trkpt>
      <trkpt lat="41.63872" lon="2.20899">
        <ele>240</ele>
        <time>2017-02-04T15:58:18Z</time>
      </trkpt>
      <trkpt lat="41.63877" lon="2.20894">
        <ele>240</ele>
        <time>2017-02-04T15:58:24Z</time>
      </trkpt>
      <trkpt lat="41.63892" lon="2.20884">
        <ele>241</ele>
        <time>2017-02-04T15:58:41Z</time>
      </trkpt>
      <trkpt lat="41.63913" lon="2.20873">
        <ele>241</ele>
        <time>2017-02-04T15:59:03Z</time>
      </trkpt>
      <trkpt lat="41.63917" lon="2.20873">
        <ele>242</ele>
        <time>2017-02-04T15:59:07Z</time>
      </trkpt>
      <trkpt lat="41.63918" lon="2.20873">
        <ele>242</ele>
        <time>2017-02-04T15:59:09Z</time>
      </trkpt>
      <trkpt lat="41.6392" lon="2.20872">
        <ele>242</ele>
        <time>2017-02-04T15:59:10Z</time>
      </trkpt>
      <trkpt lat="41.63924" lon="2.2087">
        <ele>242</ele>
        <time>2017-02-04T15:59:15Z</time>
      </trkpt>
      <trkpt lat="41.63949" lon="2.20863">
        <ele>242</ele>
        <time>2017-02-04T15:59:40Z</time>
      </trkpt>
      <trkpt lat="41.63966" lon="2.20855">
        <ele>242</ele>
        <time>2017-02-04T15:59:58Z</time>
      </trkpt>
      <trkpt lat="41.63986" lon="2.20847">
        <ele>242</ele>
        <time>2017-02-04T16:00:19Z</time>
      </trkpt>
      <trkpt lat="41.64002" lon="2.20832">
        <ele>242</ele>
        <time>2017-02-04T16:00:38Z</time>
      </trkpt>
      <trkpt lat="41.64005" lon="2.20829">
        <ele>242</ele>
        <time>2017-02-04T16:00:43Z</time>
      </trkpt>
      <trkpt lat="41.64007" lon="2.20827">
        <ele>243</ele>
        <time>2017-02-04T16:00:45Z</time>
      </trkpt>
      <trkpt lat="41.64008" lon="2.20826">
        <ele>243</ele>
        <time>2017-02-04T16:00:46Z</time>
      </trkpt>
      <trkpt lat="41.64009" lon="2.20826">
        <ele>243</ele>
        <time>2017-02-04T16:00:47Z</time>
      </trkpt>
      <trkpt lat="41.6401" lon="2.20824">
        <ele>243</ele>
        <time>2017-02-04T16:00:49Z</time>
      </trkpt>
      <trkpt lat="41.64011" lon="2.20823">
        <ele>243</ele>
        <time>2017-02-04T16:00:50Z</time>
      </trkpt>
      <trkpt lat="41.64012" lon="2.20822">
        <ele>243</ele>
        <time>2017-02-04T16:00:51Z</time>
      </trkpt>
      <trkpt lat="41.64015" lon="2.20819">
        <ele>244</ele>
        <time>2017-02-04T16:00:56Z</time>
      </trkpt>
      <trkpt lat="41.64016" lon="2.20818">
        <ele>244</ele>
        <time>2017-02-04T16:00:57Z</time>
      </trkpt>
      <trkpt lat="41.64018" lon="2.20817">
        <ele>244</ele>
        <time>2017-02-04T16:00:58Z</time>
      </trkpt>
      <trkpt lat="41.64019" lon="2.20816">
        <ele>244</ele>
        <time>2017-02-04T16:01:00Z</time>
      </trkpt>
      <trkpt lat="41.6402" lon="2.20815">
        <ele>244</ele>
        <time>2017-02-04T16:01:01Z</time>
      </trkpt>
      <trkpt lat="41.64021" lon="2.20814">
        <ele>245</ele>
        <time>2017-02-04T16:01:02Z</time>
      </trkpt>
      <trkpt lat="41.64022" lon="2.20813">
        <ele>245</ele>
        <time>2017-02-04T16:01:04Z</time>
      </trkpt>
      <trkpt lat="41.64023" lon="2.20812">
        <ele>245</ele>
        <time>2017-02-04T16:01:05Z</time>
      </trkpt>
      <trkpt lat="41.64024" lon="2.20811">
        <ele>245</ele>
        <time>2017-02-04T16:01:06Z</time>
      </trkpt>
      <trkpt lat="41.64024" lon="2.2081">
        <ele>245</ele>
        <time>2017-02-04T16:01:07Z</time>
      </trkpt>
      <trkpt lat="41.64025" lon="2.20809">
        <ele>245</ele>
        <time>2017-02-04T16:01:08Z</time>
      </trkpt>
      <trkpt lat="41.64042" lon="2.20799">
        <ele>247</ele>
        <time>2017-02-04T16:01:26Z</time>
      </trkpt>
      <trkpt lat="41.64057" lon="2.20793">
        <ele>247</ele>
        <time>2017-02-04T16:01:41Z</time>
      </trkpt>
      <trkpt lat="41.64057" lon="2.20793">
        <ele>247</ele>
        <time>2017-02-04T16:01:43Z</time>
      </trkpt>
      <trkpt lat="41.64066" lon="2.20781">
        <ele>248</ele>
        <time>2017-02-04T16:01:55Z</time>
      </trkpt>
      <trkpt lat="41.64081" lon="2.20765">
        <ele>249</ele>
        <time>2017-02-04T16:02:14Z</time>
      </trkpt>
      <trkpt lat="41.64081" lon="2.20763">
        <ele>249</ele>
        <time>2017-02-04T16:02:15Z</time>
      </trkpt>
      <trkpt lat="41.64082" lon="2.20762">
        <ele>249</ele>
        <time>2017-02-04T16:02:16Z</time>
      </trkpt>
      <trkpt lat="41.64083" lon="2.20761">
        <ele>249</ele>
        <time>2017-02-04T16:02:17Z</time>
      </trkpt>
      <trkpt lat="41.64084" lon="2.20759">
        <ele>249</ele>
        <time>2017-02-04T16:02:19Z</time>
      </trkpt>
      <trkpt lat="41.64085" lon="2.20758">
        <ele>249</ele>
        <time>2017-02-04T16:02:20Z</time>
      </trkpt>
      <trkpt lat="41.64086" lon="2.20756">
        <ele>250</ele>
        <time>2017-02-04T16:02:22Z</time>
      </trkpt>
      <trkpt lat="41.64086" lon="2.20755">
        <ele>250</ele>
        <time>2017-02-04T16:02:23Z</time>
      </trkpt>
      <trkpt lat="41.64087" lon="2.20754">
        <ele>250</ele>
        <time>2017-02-04T16:02:24Z</time>
      </trkpt>
      <trkpt lat="41.64089" lon="2.20743">
        <ele>251</ele>
        <time>2017-02-04T16:02:33Z</time>
      </trkpt>
      <trkpt lat="41.64089" lon="2.20741">
        <ele>251</ele>
        <time>2017-02-04T16:02:34Z</time>
      </trkpt>
      <trkpt lat="41.64089" lon="2.2074">
        <ele>251</ele>
        <time>2017-02-04T16:02:35Z</time>
      </trkpt>
      <trkpt lat="41.64089" lon="2.20738">
        <ele>251</ele>
        <time>2017-02-04T16:02:37Z</time>
      </trkpt>
      <trkpt lat="41.64089" lon="2.20736">
        <ele>251</ele>
        <time>2017-02-04T16:02:38Z</time>
      </trkpt>
      <trkpt lat="41.64087" lon="2.20725">
        <ele>251</ele>
        <time>2017-02-04T16:02:46Z</time>
      </trkpt>
      <trkpt lat="41.64088" lon="2.20724">
        <ele>252</ele>
        <time>2017-02-04T16:02:47Z</time>
      </trkpt>
      <trkpt lat="41.64088" lon="2.20723">
        <ele>252</ele>
        <time>2017-02-04T16:02:48Z</time>
      </trkpt>
      <trkpt lat="41.64088" lon="2.20721">
        <ele>252</ele>
        <time>2017-02-04T16:02:49Z</time>
      </trkpt>
      <trkpt lat="41.64088" lon="2.20717">
        <ele>252</ele>
        <time>2017-02-04T16:02:52Z</time>
      </trkpt>
      <trkpt lat="41.64088" lon="2.20716">
        <ele>252</ele>
        <time>2017-02-04T16:02:53Z</time>
      </trkpt>
      <trkpt lat="41.64087" lon="2.20714">
        <ele>252</ele>
        <time>2017-02-04T16:02:54Z</time>
      </trkpt>
      <trkpt lat="41.64087" lon="2.20713">
        <ele>252</ele>
        <time>2017-02-04T16:02:56Z</time>
      </trkpt>
      <trkpt lat="41.64087" lon="2.20711">
        <ele>252</ele>
        <time>2017-02-04T16:02:57Z</time>
      </trkpt>
      <trkpt lat="41.64085" lon="2.20685">
        <ele>255</ele>
        <time>2017-02-04T16:03:16Z</time>
      </trkpt>
      <trkpt lat="41.64086" lon="2.20672">
        <ele>256</ele>
        <time>2017-02-04T16:03:26Z</time>
      </trkpt>
      <trkpt lat="41.64086" lon="2.2067">
        <ele>256</ele>
        <time>2017-02-04T16:03:28Z</time>
      </trkpt>
      <trkpt lat="41.64086" lon="2.20668">
        <ele>256</ele>
        <time>2017-02-04T16:03:29Z</time>
      </trkpt>
      <trkpt lat="41.64087" lon="2.20667">
        <ele>257</ele>
        <time>2017-02-04T16:03:30Z</time>
      </trkpt>
      <trkpt lat="41.64087" lon="2.20665">
        <ele>257</ele>
        <time>2017-02-04T16:03:32Z</time>
      </trkpt>
      <trkpt lat="41.64087" lon="2.20664">
        <ele>257</ele>
        <time>2017-02-04T16:03:33Z</time>
      </trkpt>
      <trkpt lat="41.64086" lon="2.20656">
        <ele>257</ele>
        <time>2017-02-04T16:03:38Z</time>
      </trkpt>
      <trkpt lat="41.64085" lon="2.20655">
        <ele>257</ele>
        <time>2017-02-04T16:03:39Z</time>
      </trkpt>
      <trkpt lat="41.64085" lon="2.20653">
        <ele>257</ele>
        <time>2017-02-04T16:03:41Z</time>
      </trkpt>
      <trkpt lat="41.64084" lon="2.20652">
        <ele>257</ele>
        <time>2017-02-04T16:03:42Z</time>
      </trkpt>
      <trkpt lat="41.64084" lon="2.2065">
        <ele>257</ele>
        <time>2017-02-04T16:03:43Z</time>
      </trkpt>
      <trkpt lat="41.64084" lon="2.20648">
        <ele>257</ele>
        <time>2017-02-04T16:03:45Z</time>
      </trkpt>
      <trkpt lat="41.64083" lon="2.20642">
        <ele>257</ele>
        <time>2017-02-04T16:03:49Z</time>
      </trkpt>
      <trkpt lat="41.64083" lon="2.2064">
        <ele>257</ele>
        <time>2017-02-04T16:03:50Z</time>
      </trkpt>
      <trkpt lat="41.64083" lon="2.20639">
        <ele>258</ele>
        <time>2017-02-04T16:03:52Z</time>
      </trkpt>
      <trkpt lat="41.64082" lon="2.20637">
        <ele>258</ele>
        <time>2017-02-04T16:03:53Z</time>
      </trkpt>
      <trkpt lat="41.64082" lon="2.20635">
        <ele>258</ele>
        <time>2017-02-04T16:03:55Z</time>
      </trkpt>
      <trkpt lat="41.6408" lon="2.20611">
        <ele>259</ele>
        <time>2017-02-04T16:04:13Z</time>
      </trkpt>
      <trkpt lat="41.64081" lon="2.20587">
        <ele>259</ele>
        <time>2017-02-04T16:04:30Z</time>
      </trkpt>
      <trkpt lat="41.6408" lon="2.20581">
        <ele>259</ele>
        <time>2017-02-04T16:04:35Z</time>
      </trkpt>
      <trkpt lat="41.6408" lon="2.20578">
        <ele>259</ele>
        <time>2017-02-04T16:04:38Z</time>
      </trkpt>
      <trkpt lat="41.6408" lon="2.20576">
        <ele>259</ele>
        <time>2017-02-04T16:04:39Z</time>
      </trkpt>
      <trkpt lat="41.6408" lon="2.20572">
        <ele>259</ele>
        <time>2017-02-04T16:04:42Z</time>
      </trkpt>
      <trkpt lat="41.6408" lon="2.20564">
        <ele>259</ele>
        <time>2017-02-04T16:04:48Z</time>
      </trkpt>
      <trkpt lat="41.64079" lon="2.20562">
        <ele>259</ele>
        <time>2017-02-04T16:04:49Z</time>
      </trkpt>
      <trkpt lat="41.64077" lon="2.20533">
        <ele>260</ele>
        <time>2017-02-04T16:05:11Z</time>
      </trkpt>
      <trkpt lat="41.64078" lon="2.20515">
        <ele>260</ele>
        <time>2017-02-04T16:05:25Z</time>
      </trkpt>
      <trkpt lat="41.64078" lon="2.20513">
        <ele>260</ele>
        <time>2017-02-04T16:05:26Z</time>
      </trkpt>
      <trkpt lat="41.64077" lon="2.20498">
        <ele>260</ele>
        <time>2017-02-04T16:05:37Z</time>
      </trkpt>
      <trkpt lat="41.64077" lon="2.20496">
        <ele>260</ele>
        <time>2017-02-04T16:05:39Z</time>
      </trkpt>
      <trkpt lat="41.64076" lon="2.20494">
        <ele>260</ele>
        <time>2017-02-04T16:05:40Z</time>
      </trkpt>
      <trkpt lat="41.64076" lon="2.20493">
        <ele>260</ele>
        <time>2017-02-04T16:05:42Z</time>
      </trkpt>
      <trkpt lat="41.64076" lon="2.20491">
        <ele>260</ele>
        <time>2017-02-04T16:05:43Z</time>
      </trkpt>
      <trkpt lat="41.64076" lon="2.20489">
        <ele>260</ele>
        <time>2017-02-04T16:05:44Z</time>
      </trkpt>
      <trkpt lat="41.64076" lon="2.20487">
        <ele>259</ele>
        <time>2017-02-04T16:05:46Z</time>
      </trkpt>
      <trkpt lat="41.64076" lon="2.20486">
        <ele>260</ele>
        <time>2017-02-04T16:05:47Z</time>
      </trkpt>
      <trkpt lat="41.64075" lon="2.20484">
        <ele>260</ele>
        <time>2017-02-04T16:05:48Z</time>
      </trkpt>
      <trkpt lat="41.64075" lon="2.20483">
        <ele>259</ele>
        <time>2017-02-04T16:05:49Z</time>
      </trkpt>
      <trkpt lat="41.64075" lon="2.20481">
        <ele>259</ele>
        <time>2017-02-04T16:05:51Z</time>
      </trkpt>
      <trkpt lat="41.64075" lon="2.20479">
        <ele>259</ele>
        <time>2017-02-04T16:05:52Z</time>
      </trkpt>
      <trkpt lat="41.64074" lon="2.20477">
        <ele>259</ele>
        <time>2017-02-04T16:05:54Z</time>
      </trkpt>
      <trkpt lat="41.64074" lon="2.20475">
        <ele>259</ele>
        <time>2017-02-04T16:05:55Z</time>
      </trkpt>
      <trkpt lat="41.64074" lon="2.20472">
        <ele>259</ele>
        <time>2017-02-04T16:05:57Z</time>
      </trkpt>
      <trkpt lat="41.64074" lon="2.2047">
        <ele>259</ele>
        <time>2017-02-04T16:05:59Z</time>
      </trkpt>
      <trkpt lat="41.64073" lon="2.20469">
        <ele>259</ele>
        <time>2017-02-04T16:06:00Z</time>
      </trkpt>
      <trkpt lat="41.64073" lon="2.20467">
        <ele>259</ele>
        <time>2017-02-04T16:06:01Z</time>
      </trkpt>
      <trkpt lat="41.64072" lon="2.20465">
        <ele>259</ele>
        <time>2017-02-04T16:06:03Z</time>
      </trkpt>
      <trkpt lat="41.64072" lon="2.20464">
        <ele>259</ele>
        <time>2017-02-04T16:06:04Z</time>
      </trkpt>
      <trkpt lat="41.64072" lon="2.20462">
        <ele>259</ele>
        <time>2017-02-04T16:06:05Z</time>
      </trkpt>
      <trkpt lat="41.64072" lon="2.2046">
        <ele>259</ele>
        <time>2017-02-04T16:06:07Z</time>
      </trkpt>
      <trkpt lat="41.64072" lon="2.20458">
        <ele>259</ele>
        <time>2017-02-04T16:06:08Z</time>
      </trkpt>
      <trkpt lat="41.64072" lon="2.20434">
        <ele>259</ele>
        <time>2017-02-04T16:06:26Z</time>
      </trkpt>
      <trkpt lat="41.64072" lon="2.20433">
        <ele>259</ele>
        <time>2017-02-04T16:06:27Z</time>
      </trkpt>
      <trkpt lat="41.64072" lon="2.20431">
        <ele>259</ele>
        <time>2017-02-04T16:06:28Z</time>
      </trkpt>
      <trkpt lat="41.64072" lon="2.2043">
        <ele>259</ele>
        <time>2017-02-04T16:06:29Z</time>
      </trkpt>
      <trkpt lat="41.64073" lon="2.20428">
        <ele>259</ele>
        <time>2017-02-04T16:06:31Z</time>
      </trkpt>
      <trkpt lat="41.64073" lon="2.20425">
        <ele>259</ele>
        <time>2017-02-04T16:06:33Z</time>
      </trkpt>
      <trkpt lat="41.64073" lon="2.20424">
        <ele>259</ele>
        <time>2017-02-04T16:06:34Z</time>
      </trkpt>
      <trkpt lat="41.64073" lon="2.20422">
        <ele>259</ele>
        <time>2017-02-04T16:06:36Z</time>
      </trkpt>
      <trkpt lat="41.64073" lon="2.2042">
        <ele>259</ele>
        <time>2017-02-04T16:06:37Z</time>
      </trkpt>
      <trkpt lat="41.64073" lon="2.20418">
        <ele>259</ele>
        <time>2017-02-04T16:06:38Z</time>
      </trkpt>
      <trkpt lat="41.64073" lon="2.20416">
        <ele>259</ele>
        <time>2017-02-04T16:06:40Z</time>
      </trkpt>
      <trkpt lat="41.64074" lon="2.20414">
        <ele>259</ele>
        <time>2017-02-04T16:06:41Z</time>
      </trkpt>
      <trkpt lat="41.64074" lon="2.20412">
        <ele>259</ele>
        <time>2017-02-04T16:06:43Z</time>
      </trkpt>
      <trkpt lat="41.64074" lon="2.20411">
        <ele>259</ele>
        <time>2017-02-04T16:06:44Z</time>
      </trkpt>
      <trkpt lat="41.64074" lon="2.20409">
        <ele>259</ele>
        <time>2017-02-04T16:06:45Z</time>
      </trkpt>
      <trkpt lat="41.64074" lon="2.20407">
        <ele>259</ele>
        <time>2017-02-04T16:06:46Z</time>
      </trkpt>
      <trkpt lat="41.64074" lon="2.20405">
        <ele>259</ele>
        <time>2017-02-04T16:06:48Z</time>
      </trkpt>
      <trkpt lat="41.64074" lon="2.20403">
        <ele>259</ele>
        <time>2017-02-04T16:06:49Z</time>
      </trkpt>
      <trkpt lat="41.64074" lon="2.20402">
        <ele>259</ele>
        <time>2017-02-04T16:06:50Z</time>
      </trkpt>
      <trkpt lat="41.64074" lon="2.204">
        <ele>259</ele>
        <time>2017-02-04T16:06:52Z</time>
      </trkpt>
      <trkpt lat="41.64074" lon="2.20399">
        <ele>258</ele>
        <time>2017-02-04T16:06:53Z</time>
      </trkpt>
      <trkpt lat="41.64075" lon="2.20386">
        <ele>258</ele>
        <time>2017-02-04T16:07:02Z</time>
      </trkpt>
      <trkpt lat="41.64075" lon="2.20385">
        <ele>257</ele>
        <time>2017-02-04T16:07:04Z</time>
      </trkpt>
      <trkpt lat="41.64076" lon="2.20382">
        <ele>257</ele>
        <time>2017-02-04T16:07:06Z</time>
      </trkpt>
      <trkpt lat="41.64077" lon="2.2038">
        <ele>257</ele>
        <time>2017-02-04T16:07:07Z</time>
      </trkpt>
      <trkpt lat="41.64078" lon="2.20378">
        <ele>257</ele>
        <time>2017-02-04T16:07:09Z</time>
      </trkpt>
      <trkpt lat="41.64081" lon="2.20373">
        <ele>257</ele>
        <time>2017-02-04T16:07:14Z</time>
      </trkpt>
      <trkpt lat="41.64082" lon="2.20371">
        <ele>257</ele>
        <time>2017-02-04T16:07:16Z</time>
      </trkpt>
      <trkpt lat="41.64083" lon="2.2037">
        <ele>257</ele>
        <time>2017-02-04T16:07:17Z</time>
      </trkpt>
      <trkpt lat="41.64085" lon="2.2037">
        <ele>257</ele>
        <time>2017-02-04T16:07:18Z</time>
      </trkpt>
      <trkpt lat="41.64097" lon="2.20362">
        <ele>258</ele>
        <time>2017-02-04T16:07:32Z</time>
      </trkpt>
      <trkpt lat="41.64099" lon="2.20359">
        <ele>258</ele>
        <time>2017-02-04T16:07:35Z</time>
      </trkpt>
      <trkpt lat="41.64109" lon="2.20346">
        <ele>258</ele>
        <time>2017-02-04T16:07:49Z</time>
      </trkpt>
      <trkpt lat="41.64111" lon="2.20345">
        <ele>258</ele>
        <time>2017-02-04T16:07:51Z</time>
      </trkpt>
      <trkpt lat="41.64112" lon="2.20343">
        <ele>258</ele>
        <time>2017-02-04T16:07:52Z</time>
      </trkpt>
      <trkpt lat="41.64113" lon="2.20342">
        <ele>258</ele>
        <time>2017-02-04T16:07:54Z</time>
      </trkpt>
      <trkpt lat="41.64114" lon="2.20341">
        <ele>258</ele>
        <time>2017-02-04T16:07:56Z</time>
      </trkpt>
      <trkpt lat="41.64115" lon="2.20339">
        <ele>257</ele>
        <time>2017-02-04T16:07:57Z</time>
      </trkpt>
      <trkpt lat="41.64119" lon="2.20331">
        <ele>256</ele>
        <time>2017-02-04T16:08:04Z</time>
      </trkpt>
      <trkpt lat="41.6412" lon="2.2033">
        <ele>256</ele>
        <time>2017-02-04T16:08:06Z</time>
      </trkpt>
      <trkpt lat="41.64121" lon="2.20328">
        <ele>256</ele>
        <time>2017-02-04T16:08:07Z</time>
      </trkpt>
      <trkpt lat="41.64122" lon="2.20327">
        <ele>256</ele>
        <time>2017-02-04T16:08:08Z</time>
      </trkpt>
      <trkpt lat="41.64123" lon="2.20326">
        <ele>256</ele>
        <time>2017-02-04T16:08:10Z</time>
      </trkpt>
      <trkpt lat="41.64125" lon="2.20323">
        <ele>256</ele>
        <time>2017-02-04T16:08:13Z</time>
      </trkpt>
      <trkpt lat="41.64126" lon="2.20322">
        <ele>256</ele>
        <time>2017-02-04T16:08:14Z</time>
      </trkpt>
      <trkpt lat="41.64127" lon="2.2032">
        <ele>256</ele>
        <time>2017-02-04T16:08:16Z</time>
      </trkpt>
      <trkpt lat="41.64128" lon="2.20318">
        <ele>255</ele>
        <time>2017-02-04T16:08:18Z</time>
      </trkpt>
      <trkpt lat="41.64129" lon="2.20317">
        <ele>255</ele>
        <time>2017-02-04T16:08:19Z</time>
      </trkpt>
      <trkpt lat="41.6413" lon="2.20315">
        <ele>255</ele>
        <time>2017-02-04T16:08:21Z</time>
      </trkpt>
      <trkpt lat="41.64131" lon="2.20314">
        <ele>255</ele>
        <time>2017-02-04T16:08:22Z</time>
      </trkpt>
      <trkpt lat="41.64143" lon="2.20296">
        <ele>255</ele>
        <time>2017-02-04T16:08:40Z</time>
      </trkpt>
      <trkpt lat="41.64153" lon="2.20278">
        <ele>255</ele>
        <time>2017-02-04T16:08:57Z</time>
      </trkpt>
      <trkpt lat="41.64154" lon="2.20277">
        <ele>256</ele>
        <time>2017-02-04T16:08:58Z</time>
      </trkpt>
      <trkpt lat="41.64154" lon="2.20276">
        <ele>256</ele>
        <time>2017-02-04T16:08:59Z</time>
      </trkpt>
      <trkpt lat="41.64155" lon="2.20275">
        <ele>256</ele>
        <time>2017-02-04T16:09:00Z</time>
      </trkpt>
      <trkpt lat="41.64156" lon="2.20274">
        <ele>256</ele>
        <time>2017-02-04T16:09:01Z</time>
      </trkpt>
      <trkpt lat="41.64156" lon="2.20273">
        <ele>256</ele>
        <time>2017-02-04T16:09:02Z</time>
      </trkpt>
      <trkpt lat="41.64157" lon="2.20271">
        <ele>257</ele>
        <time>2017-02-04T16:09:03Z</time>
      </trkpt>
      <trkpt lat="41.64157" lon="2.2027">
        <ele>257</ele>
        <time>2017-02-04T16:09:04Z</time>
      </trkpt>
      <trkpt lat="41.64158" lon="2.20269">
        <ele>257</ele>
        <time>2017-02-04T16:09:06Z</time>
      </trkpt>
      <trkpt lat="41.64163" lon="2.20262">
        <ele>258</ele>
        <time>2017-02-04T16:09:13Z</time>
      </trkpt>
      <trkpt lat="41.64164" lon="2.20261">
        <ele>258</ele>
        <time>2017-02-04T16:09:14Z</time>
      </trkpt>
      <trkpt lat="41.64164" lon="2.2026">
        <ele>258</ele>
        <time>2017-02-04T16:09:15Z</time>
      </trkpt>
      <trkpt lat="41.64165" lon="2.20258">
        <ele>258</ele>
        <time>2017-02-04T16:09:16Z</time>
      </trkpt>
      <trkpt lat="41.64164" lon="2.20257">
        <ele>258</ele>
        <time>2017-02-04T16:09:17Z</time>
      </trkpt>
      <trkpt lat="41.64164" lon="2.20255">
        <ele>258</ele>
        <time>2017-02-04T16:09:19Z</time>
      </trkpt>
      <trkpt lat="41.64164" lon="2.20253">
        <ele>258</ele>
        <time>2017-02-04T16:09:20Z</time>
      </trkpt>
      <trkpt lat="41.64162" lon="2.2024">
        <ele>258</ele>
        <time>2017-02-04T16:09:30Z</time>
      </trkpt>
      <trkpt lat="41.64162" lon="2.20238">
        <ele>258</ele>
        <time>2017-02-04T16:09:31Z</time>
      </trkpt>
      <trkpt lat="41.64154" lon="2.20222">
        <ele>258</ele>
        <time>2017-02-04T16:09:46Z</time>
      </trkpt>
      <trkpt lat="41.64153" lon="2.20221">
        <ele>258</ele>
        <time>2017-02-04T16:09:47Z</time>
      </trkpt>
      <trkpt lat="41.64143" lon="2.20212">
        <ele>257</ele>
        <time>2017-02-04T16:09:59Z</time>
      </trkpt>
      <trkpt lat="41.64139" lon="2.20206">
        <ele>257</ele>
        <time>2017-02-04T16:10:05Z</time>
      </trkpt>
      <trkpt lat="41.64138" lon="2.20205">
        <ele>257</ele>
        <time>2017-02-04T16:10:07Z</time>
      </trkpt>
      <trkpt lat="41.64136" lon="2.20203">
        <ele>257</ele>
        <time>2017-02-04T16:10:08Z</time>
      </trkpt>
      <trkpt lat="41.64132" lon="2.20197">
        <ele>257</ele>
        <time>2017-02-04T16:10:14Z</time>
      </trkpt>
      <trkpt lat="41.64132" lon="2.20196">
        <ele>257</ele>
        <time>2017-02-04T16:10:16Z</time>
      </trkpt>
      <trkpt lat="41.64131" lon="2.20194">
        <ele>257</ele>
        <time>2017-02-04T16:10:17Z</time>
      </trkpt>
      <trkpt lat="41.6413" lon="2.20193">
        <ele>257</ele>
        <time>2017-02-04T16:10:18Z</time>
      </trkpt>
      <trkpt lat="41.64129" lon="2.20192">
        <ele>257</ele>
        <time>2017-02-04T16:10:20Z</time>
      </trkpt>
      <trkpt lat="41.64117" lon="2.20181">
        <ele>258</ele>
        <time>2017-02-04T16:10:34Z</time>
      </trkpt>
      <trkpt lat="41.64115" lon="2.20179">
        <ele>258</ele>
        <time>2017-02-04T16:10:36Z</time>
      </trkpt>
      <trkpt lat="41.64107" lon="2.20168">
        <ele>259</ele>
        <time>2017-02-04T16:10:48Z</time>
      </trkpt>
      <trkpt lat="41.64103" lon="2.20161">
        <ele>260</ele>
        <time>2017-02-04T16:10:55Z</time>
      </trkpt>
      <trkpt lat="41.64102" lon="2.2016">
        <ele>260</ele>
        <time>2017-02-04T16:10:56Z</time>
      </trkpt>
      <trkpt lat="41.64101" lon="2.20159">
        <ele>260</ele>
        <time>2017-02-04T16:10:57Z</time>
      </trkpt>
      <trkpt lat="41.64094" lon="2.20144">
        <ele>262</ele>
        <time>2017-02-04T16:11:10Z</time>
      </trkpt>
      <trkpt lat="41.6409" lon="2.20124">
        <ele>264</ele>
        <time>2017-02-04T16:11:26Z</time>
      </trkpt>
      <trkpt lat="41.6409" lon="2.20122">
        <ele>265</ele>
        <time>2017-02-04T16:11:27Z</time>
      </trkpt>
      <trkpt lat="41.6409" lon="2.2012">
        <ele>265</ele>
        <time>2017-02-04T16:11:29Z</time>
      </trkpt>
      <trkpt lat="41.64089" lon="2.20111">
        <ele>266</ele>
        <time>2017-02-04T16:11:36Z</time>
      </trkpt>
      <trkpt lat="41.64089" lon="2.20109">
        <ele>266</ele>
        <time>2017-02-04T16:11:37Z</time>
      </trkpt>
      <trkpt lat="41.64089" lon="2.20107">
        <ele>266</ele>
        <time>2017-02-04T16:11:38Z</time>
      </trkpt>
      <trkpt lat="41.64089" lon="2.20103">
        <ele>267</ele>
        <time>2017-02-04T16:11:41Z</time>
      </trkpt>
      <trkpt lat="41.64088" lon="2.20102">
        <ele>267</ele>
        <time>2017-02-04T16:11:43Z</time>
      </trkpt>
      <trkpt lat="41.64088" lon="2.201">
        <ele>267</ele>
        <time>2017-02-04T16:11:44Z</time>
      </trkpt>
      <trkpt lat="41.64087" lon="2.20099">
        <ele>267</ele>
        <time>2017-02-04T16:11:45Z</time>
      </trkpt>
      <trkpt lat="41.64087" lon="2.20097">
        <ele>267</ele>
        <time>2017-02-04T16:11:46Z</time>
      </trkpt>
      <trkpt lat="41.64086" lon="2.20095">
        <ele>267</ele>
        <time>2017-02-04T16:11:48Z</time>
      </trkpt>
      <trkpt lat="41.64086" lon="2.20094">
        <ele>267</ele>
        <time>2017-02-04T16:11:49Z</time>
      </trkpt>
      <trkpt lat="41.64085" lon="2.20093">
        <ele>268</ele>
        <time>2017-02-04T16:11:50Z</time>
      </trkpt>
      <trkpt lat="41.64085" lon="2.20092">
        <ele>268</ele>
        <time>2017-02-04T16:11:51Z</time>
      </trkpt>
      <trkpt lat="41.6408" lon="2.20072">
        <ele>269</ele>
        <time>2017-02-04T16:12:07Z</time>
      </trkpt>
      <trkpt lat="41.6408" lon="2.2007">
        <ele>269</ele>
        <time>2017-02-04T16:12:08Z</time>
      </trkpt>
      <trkpt lat="41.6408" lon="2.20068">
        <ele>270</ele>
        <time>2017-02-04T16:12:09Z</time>
      </trkpt>
      <trkpt lat="41.6408" lon="2.20067">
        <ele>270</ele>
        <time>2017-02-04T16:12:10Z</time>
      </trkpt>
      <trkpt lat="41.64079" lon="2.20066">
        <ele>270</ele>
        <time>2017-02-04T16:12:12Z</time>
      </trkpt>
      <trkpt lat="41.64079" lon="2.20064">
        <ele>270</ele>
        <time>2017-02-04T16:12:13Z</time>
      </trkpt>
      <trkpt lat="41.64078" lon="2.20063">
        <ele>270</ele>
        <time>2017-02-04T16:12:14Z</time>
      </trkpt>
      <trkpt lat="41.64077" lon="2.20061">
        <ele>270</ele>
        <time>2017-02-04T16:12:15Z</time>
      </trkpt>
      <trkpt lat="41.64076" lon="2.20057">
        <ele>270</ele>
        <time>2017-02-04T16:12:19Z</time>
      </trkpt>
      <trkpt lat="41.64076" lon="2.20055">
        <ele>271</ele>
        <time>2017-02-04T16:12:20Z</time>
      </trkpt>
      <trkpt lat="41.64076" lon="2.20053">
        <ele>271</ele>
        <time>2017-02-04T16:12:22Z</time>
      </trkpt>
      <trkpt lat="41.64076" lon="2.20051">
        <ele>271</ele>
        <time>2017-02-04T16:12:23Z</time>
      </trkpt>
      <trkpt lat="41.64075" lon="2.20049">
        <ele>271</ele>
        <time>2017-02-04T16:12:24Z</time>
      </trkpt>
      <trkpt lat="41.64071" lon="2.20033">
        <ele>272</ele>
        <time>2017-02-04T16:12:37Z</time>
      </trkpt>
      <trkpt lat="41.64068" lon="2.20027">
        <ele>272</ele>
        <time>2017-02-04T16:12:43Z</time>
      </trkpt>
      <trkpt lat="41.64067" lon="2.20026">
        <ele>272</ele>
        <time>2017-02-04T16:12:44Z</time>
      </trkpt>
      <trkpt lat="41.64067" lon="2.20024">
        <ele>272</ele>
        <time>2017-02-04T16:12:45Z</time>
      </trkpt>
      <trkpt lat="41.64065" lon="2.20022">
        <ele>272</ele>
        <time>2017-02-04T16:12:47Z</time>
      </trkpt>
      <trkpt lat="41.64064" lon="2.20021">
        <ele>273</ele>
        <time>2017-02-04T16:12:49Z</time>
      </trkpt>
      <trkpt lat="41.64061" lon="2.20017">
        <ele>273</ele>
        <time>2017-02-04T16:12:54Z</time>
      </trkpt>
      <trkpt lat="41.64056" lon="2.20001">
        <ele>273</ele>
        <time>2017-02-04T16:13:06Z</time>
      </trkpt>
      <trkpt lat="41.64055" lon="2.19999">
        <ele>274</ele>
        <time>2017-02-04T16:13:07Z</time>
      </trkpt>
      <trkpt lat="41.64055" lon="2.19998">
        <ele>274</ele>
        <time>2017-02-04T16:13:09Z</time>
      </trkpt>
      <trkpt lat="41.64054" lon="2.19997">
        <ele>274</ele>
        <time>2017-02-04T16:13:10Z</time>
      </trkpt>
      <trkpt lat="41.64053" lon="2.19996">
        <ele>274</ele>
        <time>2017-02-04T16:13:12Z</time>
      </trkpt>
      <trkpt lat="41.64052" lon="2.19994">
        <ele>274</ele>
        <time>2017-02-04T16:13:13Z</time>
      </trkpt>
      <trkpt lat="41.64051" lon="2.19993">
        <ele>274</ele>
        <time>2017-02-04T16:13:14Z</time>
      </trkpt>
      <trkpt lat="41.6405" lon="2.19992">
        <ele>274</ele>
        <time>2017-02-04T16:13:16Z</time>
      </trkpt>
      <trkpt lat="41.64048" lon="2.19991">
        <ele>274</ele>
        <time>2017-02-04T16:13:17Z</time>
      </trkpt>
      <trkpt lat="41.64047" lon="2.1999">
        <ele>274</ele>
        <time>2017-02-04T16:13:19Z</time>
      </trkpt>
      <trkpt lat="41.64046" lon="2.19989">
        <ele>274</ele>
        <time>2017-02-04T16:13:20Z</time>
      </trkpt>
      <trkpt lat="41.64045" lon="2.19987">
        <ele>274</ele>
        <time>2017-02-04T16:13:21Z</time>
      </trkpt>
      <trkpt lat="41.64044" lon="2.19986">
        <ele>274</ele>
        <time>2017-02-04T16:13:23Z</time>
      </trkpt>
      <trkpt lat="41.64043" lon="2.19985">
        <ele>274</ele>
        <time>2017-02-04T16:13:24Z</time>
      </trkpt>
      <trkpt lat="41.64043" lon="2.19983">
        <ele>275</ele>
        <time>2017-02-04T16:13:25Z</time>
      </trkpt>
      <trkpt lat="41.64042" lon="2.19982">
        <ele>275</ele>
        <time>2017-02-04T16:13:27Z</time>
      </trkpt>
      <trkpt lat="41.64042" lon="2.1998">
        <ele>275</ele>
        <time>2017-02-04T16:13:28Z</time>
      </trkpt>
      <trkpt lat="41.64041" lon="2.19975">
        <ele>275</ele>
        <time>2017-02-04T16:13:32Z</time>
      </trkpt>
      <trkpt lat="41.64041" lon="2.19973">
        <ele>275</ele>
        <time>2017-02-04T16:13:33Z</time>
      </trkpt>
      <trkpt lat="41.6404" lon="2.19972">
        <ele>275</ele>
        <time>2017-02-04T16:13:34Z</time>
      </trkpt>
      <trkpt lat="41.6404" lon="2.1997">
        <ele>275</ele>
        <time>2017-02-04T16:13:36Z</time>
      </trkpt>
      <trkpt lat="41.64039" lon="2.19969">
        <ele>275</ele>
        <time>2017-02-04T16:13:37Z</time>
      </trkpt>
      <trkpt lat="41.64039" lon="2.19968">
        <ele>275</ele>
        <time>2017-02-04T16:13:38Z</time>
      </trkpt>
      <trkpt lat="41.64038" lon="2.19967">
        <ele>275</ele>
        <time>2017-02-04T16:13:39Z</time>
      </trkpt>
      <trkpt lat="41.6403" lon="2.19946">
        <ele>276</ele>
        <time>2017-02-04T16:13:56Z</time>
      </trkpt>
      <trkpt lat="41.64027" lon="2.19942">
        <ele>277</ele>
        <time>2017-02-04T16:14:00Z</time>
      </trkpt>
      <trkpt lat="41.64024" lon="2.19934">
        <ele>277</ele>
        <time>2017-02-04T16:14:07Z</time>
      </trkpt>
      <trkpt lat="41.64023" lon="2.19932">
        <ele>277</ele>
        <time>2017-02-04T16:14:09Z</time>
      </trkpt>
      <trkpt lat="41.64022" lon="2.19931">
        <ele>277</ele>
        <time>2017-02-04T16:14:10Z</time>
      </trkpt>
      <trkpt lat="41.6402" lon="2.19929">
        <ele>277</ele>
        <time>2017-02-04T16:14:13Z</time>
      </trkpt>
      <trkpt lat="41.64016" lon="2.19927">
        <ele>277</ele>
        <time>2017-02-04T16:14:17Z</time>
      </trkpt>
      <trkpt lat="41.64016" lon="2.19926">
        <ele>277</ele>
        <time>2017-02-04T16:14:18Z</time>
      </trkpt>
      <trkpt lat="41.64015" lon="2.19924">
        <ele>277</ele>
        <time>2017-02-04T16:14:19Z</time>
      </trkpt>
      <trkpt lat="41.64014" lon="2.19923">
        <ele>277</ele>
        <time>2017-02-04T16:14:20Z</time>
      </trkpt>
      <trkpt lat="41.64014" lon="2.19921">
        <ele>277</ele>
        <time>2017-02-04T16:14:22Z</time>
      </trkpt>
      <trkpt lat="41.64012" lon="2.1992">
        <ele>277</ele>
        <time>2017-02-04T16:14:23Z</time>
      </trkpt>
      <trkpt lat="41.64011" lon="2.19918">
        <ele>277</ele>
        <time>2017-02-04T16:14:25Z</time>
      </trkpt>
      <trkpt lat="41.6401" lon="2.19916">
        <ele>277</ele>
        <time>2017-02-04T16:14:27Z</time>
      </trkpt>
      <trkpt lat="41.64005" lon="2.19901">
        <ele>278</ele>
        <time>2017-02-04T16:14:39Z</time>
      </trkpt>
      <trkpt lat="41.64004" lon="2.199">
        <ele>278</ele>
        <time>2017-02-04T16:14:40Z</time>
      </trkpt>
      <trkpt lat="41.64003" lon="2.19899">
        <ele>278</ele>
        <time>2017-02-04T16:14:41Z</time>
      </trkpt>
      <trkpt lat="41.64003" lon="2.19898">
        <ele>278</ele>
        <time>2017-02-04T16:14:42Z</time>
      </trkpt>
      <trkpt lat="41.64001" lon="2.19892">
        <ele>278</ele>
        <time>2017-02-04T16:14:48Z</time>
      </trkpt>
      <trkpt lat="41.64" lon="2.19891">
        <ele>278</ele>
        <time>2017-02-04T16:14:49Z</time>
      </trkpt>
      <trkpt lat="41.63999" lon="2.1989">
        <ele>278</ele>
        <time>2017-02-04T16:14:50Z</time>
      </trkpt>
      <trkpt lat="41.63992" lon="2.19894">
        <ele>278</ele>
        <time>2017-02-04T16:14:58Z</time>
      </trkpt>
      <trkpt lat="41.63988" lon="2.19898">
        <ele>277</ele>
        <time>2017-02-04T16:15:02Z</time>
      </trkpt>
      <trkpt lat="41.63987" lon="2.19899">
        <ele>277</ele>
        <time>2017-02-04T16:15:04Z</time>
      </trkpt>
      <trkpt lat="41.63981" lon="2.19908">
        <ele>276</ele>
        <time>2017-02-04T16:15:13Z</time>
      </trkpt>
      <trkpt lat="41.6398" lon="2.1991">
        <ele>276</ele>
        <time>2017-02-04T16:15:15Z</time>
      </trkpt>
      <trkpt lat="41.63978" lon="2.19911">
        <ele>276</ele>
        <time>2017-02-04T16:15:17Z</time>
      </trkpt>
      <trkpt lat="41.63977" lon="2.19913">
        <ele>276</ele>
        <time>2017-02-04T16:15:19Z</time>
      </trkpt>
      <trkpt lat="41.63976" lon="2.19915">
        <ele>276</ele>
        <time>2017-02-04T16:15:20Z</time>
      </trkpt>
      <trkpt lat="41.63974" lon="2.19916">
        <ele>276</ele>
        <time>2017-02-04T16:15:22Z</time>
      </trkpt>
      <trkpt lat="41.63963" lon="2.19919">
        <ele>275</ele>
        <time>2017-02-04T16:15:34Z</time>
      </trkpt>
      <trkpt lat="41.63948" lon="2.19922">
        <ele>275</ele>
        <time>2017-02-04T16:15:49Z</time>
      </trkpt>
      <trkpt lat="41.63946" lon="2.19922">
        <ele>275</ele>
        <time>2017-02-04T16:15:51Z</time>
      </trkpt>
      <trkpt lat="41.63927" lon="2.19907">
        <ele>275</ele>
        <time>2017-02-04T16:16:12Z</time>
      </trkpt>
      <trkpt lat="41.63913" lon="2.19892">
        <ele>275</ele>
        <time>2017-02-04T16:16:31Z</time>
      </trkpt>
      <trkpt lat="41.63911" lon="2.19889">
        <ele>275</ele>
        <time>2017-02-04T16:16:34Z</time>
      </trkpt>
      <trkpt lat="41.6391" lon="2.19888">
        <ele>276</ele>
        <time>2017-02-04T16:16:35Z</time>
      </trkpt>
      <trkpt lat="41.63898" lon="2.19873">
        <ele>276</ele>
        <time>2017-02-04T16:16:51Z</time>
      </trkpt>
      <trkpt lat="41.63895" lon="2.19871">
        <ele>276</ele>
        <time>2017-02-04T16:16:55Z</time>
      </trkpt>
      <trkpt lat="41.63894" lon="2.1987">
        <ele>276</ele>
        <time>2017-02-04T16:16:56Z</time>
      </trkpt>
      <trkpt lat="41.63888" lon="2.19864">
        <ele>276</ele>
        <time>2017-02-04T16:17:04Z</time>
      </trkpt>
      <trkpt lat="41.63887" lon="2.19862">
        <ele>276</ele>
        <time>2017-02-04T16:17:05Z</time>
      </trkpt>
      <trkpt lat="41.63873" lon="2.19845">
        <ele>277</ele>
        <time>2017-02-04T16:17:24Z</time>
      </trkpt>
      <trkpt lat="41.63865" lon="2.19826">
        <ele>277</ele>
        <time>2017-02-04T16:17:40Z</time>
      </trkpt>
      <trkpt lat="41.63865" lon="2.19824">
        <ele>277</ele>
        <time>2017-02-04T16:17:42Z</time>
      </trkpt>
      <trkpt lat="41.63865" lon="2.19819">
        <ele>277</ele>
        <time>2017-02-04T16:17:46Z</time>
      </trkpt>
      <trkpt lat="41.63866" lon="2.19807">
        <ele>277</ele>
        <time>2017-02-04T16:17:55Z</time>
      </trkpt>
      <trkpt lat="41.63866" lon="2.19804">
        <ele>278</ele>
        <time>2017-02-04T16:17:57Z</time>
      </trkpt>
      <trkpt lat="41.63867" lon="2.19802">
        <ele>278</ele>
        <time>2017-02-04T16:17:58Z</time>
      </trkpt>
      <trkpt lat="41.63867" lon="2.19801">
        <ele>278</ele>
        <time>2017-02-04T16:17:59Z</time>
      </trkpt>
      <trkpt lat="41.63867" lon="2.198">
        <ele>278</ele>
        <time>2017-02-04T16:18:00Z</time>
      </trkpt>
      <trkpt lat="41.63867" lon="2.19798">
        <ele>278</ele>
        <time>2017-02-04T16:18:01Z</time>
      </trkpt>
      <trkpt lat="41.6387" lon="2.1978">
        <ele>278</ele>
        <time>2017-02-04T16:18:16Z</time>
      </trkpt>
      <trkpt lat="41.63872" lon="2.1975">
        <ele>280</ele>
        <time>2017-02-04T16:18:38Z</time>
      </trkpt>
      <trkpt lat="41.63868" lon="2.1973">
        <ele>282</ele>
        <time>2017-02-04T16:18:54Z</time>
      </trkpt>
      <trkpt lat="41.63868" lon="2.19728">
        <ele>282</ele>
        <time>2017-02-04T16:18:55Z</time>
      </trkpt>
      <trkpt lat="41.63867" lon="2.19724">
        <ele>282</ele>
        <time>2017-02-04T16:18:58Z</time>
      </trkpt>
      <trkpt lat="41.63867" lon="2.19698">
        <ele>283</ele>
        <time>2017-02-04T16:19:17Z</time>
      </trkpt>
      <trkpt lat="41.63865" lon="2.1968">
        <ele>284</ele>
        <time>2017-02-04T16:19:31Z</time>
      </trkpt>
      <trkpt lat="41.63863" lon="2.19663">
        <ele>284</ele>
        <time>2017-02-04T16:19:44Z</time>
      </trkpt>
      <trkpt lat="41.63862" lon="2.19655">
        <ele>284</ele>
        <time>2017-02-04T16:19:50Z</time>
      </trkpt>
      <trkpt lat="41.63862" lon="2.19654">
        <ele>284</ele>
        <time>2017-02-04T16:19:51Z</time>
      </trkpt>
      <trkpt lat="41.63861" lon="2.19652">
        <ele>284</ele>
        <time>2017-02-04T16:19:53Z</time>
      </trkpt>
      <trkpt lat="41.63857" lon="2.19634">
        <ele>283</ele>
        <time>2017-02-04T16:20:07Z</time>
      </trkpt>
      <trkpt lat="41.63856" lon="2.19627">
        <ele>283</ele>
        <time>2017-02-04T16:20:12Z</time>
      </trkpt>
      <trkpt lat="41.63856" lon="2.19626">
        <ele>283</ele>
        <time>2017-02-04T16:20:13Z</time>
      </trkpt>
      <trkpt lat="41.63838" lon="2.19616">
        <ele>284</ele>
        <time>2017-02-04T16:20:32Z</time>
      </trkpt>
      <trkpt lat="41.63836" lon="2.19614">
        <ele>284</ele>
        <time>2017-02-04T16:20:35Z</time>
      </trkpt>
      <trkpt lat="41.6383" lon="2.19608">
        <ele>283</ele>
        <time>2017-02-04T16:20:43Z</time>
      </trkpt>
      <trkpt lat="41.63827" lon="2.19606">
        <ele>284</ele>
        <time>2017-02-04T16:20:46Z</time>
      </trkpt>
      <trkpt lat="41.63826" lon="2.19605">
        <ele>284</ele>
        <time>2017-02-04T16:20:47Z</time>
      </trkpt>
      <trkpt lat="41.63822" lon="2.19602">
        <ele>284</ele>
        <time>2017-02-04T16:20:52Z</time>
      </trkpt>
      <trkpt lat="41.6382" lon="2.19601">
        <ele>284</ele>
        <time>2017-02-04T16:20:54Z</time>
      </trkpt>
      <trkpt lat="41.63819" lon="2.19601">
        <ele>284</ele>
        <time>2017-02-04T16:20:55Z</time>
      </trkpt>
      <trkpt lat="41.63818" lon="2.196">
        <ele>284</ele>
        <time>2017-02-04T16:20:56Z</time>
      </trkpt>
      <trkpt lat="41.63815" lon="2.19599">
        <ele>284</ele>
        <time>2017-02-04T16:20:59Z</time>
      </trkpt>
      <trkpt lat="41.63793" lon="2.19583">
        <ele>284</ele>
        <time>2017-02-04T16:21:24Z</time>
      </trkpt>
      <trkpt lat="41.63791" lon="2.1958">
        <ele>283</ele>
        <time>2017-02-04T16:21:27Z</time>
      </trkpt>
      <trkpt lat="41.63778" lon="2.19564">
        <ele>283</ele>
        <time>2017-02-04T16:21:45Z</time>
      </trkpt>
      <trkpt lat="41.63766" lon="2.19548">
        <ele>282</ele>
        <time>2017-02-04T16:22:02Z</time>
      </trkpt>
      <trkpt lat="41.6375" lon="2.19532">
        <ele>282</ele>
        <time>2017-02-04T16:22:22Z</time>
      </trkpt>
      <trkpt lat="41.63748" lon="2.1953">
        <ele>283</ele>
        <time>2017-02-04T16:22:24Z</time>
      </trkpt>
      <trkpt lat="41.63747" lon="2.19529">
        <ele>283</ele>
        <time>2017-02-04T16:22:25Z</time>
      </trkpt>
      <trkpt lat="41.6373" lon="2.1952">
        <ele>283</ele>
        <time>2017-02-04T16:22:44Z</time>
      </trkpt>
      <trkpt lat="41.63727" lon="2.19519">
        <ele>283</ele>
        <time>2017-02-04T16:22:47Z</time>
      </trkpt>
      <trkpt lat="41.63725" lon="2.19519">
        <ele>283</ele>
        <time>2017-02-04T16:22:49Z</time>
      </trkpt>
      <trkpt lat="41.63724" lon="2.19518">
        <ele>283</ele>
        <time>2017-02-04T16:22:50Z</time>
      </trkpt>
      <trkpt lat="41.63706" lon="2.19516">
        <ele>284</ele>
        <time>2017-02-04T16:23:08Z</time>
      </trkpt>
      <trkpt lat="41.63688" lon="2.19521">
        <ele>283</ele>
        <time>2017-02-04T16:23:26Z</time>
      </trkpt>
      <trkpt lat="41.63687" lon="2.1952">
        <ele>283</ele>
        <time>2017-02-04T16:23:27Z</time>
      </trkpt>
      <trkpt lat="41.63672" lon="2.19518">
        <ele>281</ele>
        <time>2017-02-04T16:23:42Z</time>
      </trkpt>
      <trkpt lat="41.63653" lon="2.19513">
        <ele>279</ele>
        <time>2017-02-04T16:24:02Z</time>
      </trkpt>
      <trkpt lat="41.63633" lon="2.19505">
        <ele>277</ele>
        <time>2017-02-04T16:24:23Z</time>
      </trkpt>
      <trkpt lat="41.63632" lon="2.19504">
        <ele>277</ele>
        <time>2017-02-04T16:24:24Z</time>
      </trkpt>
      <trkpt lat="41.63631" lon="2.19504">
        <ele>277</ele>
        <time>2017-02-04T16:24:25Z</time>
      </trkpt>
      <trkpt lat="41.6363" lon="2.19503">
        <ele>277</ele>
        <time>2017-02-04T16:24:26Z</time>
      </trkpt>
      <trkpt lat="41.63629" lon="2.19503">
        <ele>277</ele>
        <time>2017-02-04T16:24:27Z</time>
      </trkpt>
      <trkpt lat="41.63627" lon="2.19502">
        <ele>276</ele>
        <time>2017-02-04T16:24:29Z</time>
      </trkpt>
      <trkpt lat="41.63619" lon="2.19499">
        <ele>276</ele>
        <time>2017-02-04T16:24:38Z</time>
      </trkpt>
      <trkpt lat="41.63601" lon="2.19492">
        <ele>275</ele>
        <time>2017-02-04T16:24:56Z</time>
      </trkpt>
      <trkpt lat="41.63585" lon="2.19484">
        <ele>274</ele>
        <time>2017-02-04T16:25:14Z</time>
      </trkpt>
      <trkpt lat="41.63568" lon="2.19476">
        <ele>274</ele>
        <time>2017-02-04T16:25:32Z</time>
      </trkpt>
      <trkpt lat="41.63567" lon="2.19475">
        <ele>274</ele>
        <time>2017-02-04T16:25:33Z</time>
      </trkpt>
      <trkpt lat="41.63559" lon="2.19474">
        <ele>274</ele>
        <time>2017-02-04T16:25:41Z</time>
      </trkpt>
      <trkpt lat="41.63557" lon="2.19474">
        <ele>274</ele>
        <time>2017-02-04T16:25:42Z</time>
      </trkpt>
      <trkpt lat="41.63556" lon="2.19474">
        <ele>274</ele>
        <time>2017-02-04T16:25:44Z</time>
      </trkpt>
      <trkpt lat="41.63555" lon="2.19473">
        <ele>275</ele>
        <time>2017-02-04T16:25:45Z</time>
      </trkpt>
      <trkpt lat="41.63553" lon="2.19473">
        <ele>275</ele>
        <time>2017-02-04T16:25:47Z</time>
      </trkpt>
      <trkpt lat="41.63548" lon="2.19472">
        <ele>275</ele>
        <time>2017-02-04T16:25:52Z</time>
      </trkpt>
      <trkpt lat="41.63543" lon="2.19471">
        <ele>275</ele>
        <time>2017-02-04T16:25:57Z</time>
      </trkpt>
      <trkpt lat="41.63542" lon="2.19471">
        <ele>275</ele>
        <time>2017-02-04T16:25:58Z</time>
      </trkpt>
      <trkpt lat="41.6354" lon="2.19471">
        <ele>275</ele>
        <time>2017-02-04T16:26:00Z</time>
      </trkpt>
      <trkpt lat="41.63519" lon="2.19466">
        <ele>276</ele>
        <time>2017-02-04T16:26:21Z</time>
      </trkpt>
      <trkpt lat="41.63501" lon="2.19456">
        <ele>276</ele>
        <time>2017-02-04T16:26:40Z</time>
      </trkpt>
      <trkpt lat="41.63491" lon="2.19453">
        <ele>277</ele>
        <time>2017-02-04T16:26:51Z</time>
      </trkpt>
      <trkpt lat="41.6349" lon="2.19453">
        <ele>277</ele>
        <time>2017-02-04T16:26:52Z</time>
      </trkpt>
      <trkpt lat="41.63488" lon="2.19453">
        <ele>277</ele>
        <time>2017-02-04T16:26:54Z</time>
      </trkpt>
      <trkpt lat="41.63472" lon="2.19452">
        <ele>278</ele>
        <time>2017-02-04T16:27:10Z</time>
      </trkpt>
      <trkpt lat="41.63471" lon="2.19453">
        <ele>278</ele>
        <time>2017-02-04T16:27:11Z</time>
      </trkpt>
      <trkpt lat="41.63469" lon="2.19453">
        <ele>278</ele>
        <time>2017-02-04T16:27:13Z</time>
      </trkpt>
      <trkpt lat="41.63467" lon="2.19453">
        <ele>278</ele>
        <time>2017-02-04T16:27:14Z</time>
      </trkpt>
      <trkpt lat="41.63466" lon="2.19453">
        <ele>278</ele>
        <time>2017-02-04T16:27:16Z</time>
      </trkpt>
      <trkpt lat="41.63465" lon="2.19453">
        <ele>278</ele>
        <time>2017-02-04T16:27:17Z</time>
      </trkpt>
      <trkpt lat="41.6344" lon="2.19453">
        <ele>279</ele>
        <time>2017-02-04T16:27:42Z</time>
      </trkpt>
      <trkpt lat="41.63439" lon="2.19453">
        <ele>279</ele>
        <time>2017-02-04T16:27:43Z</time>
      </trkpt>
      <trkpt lat="41.63438" lon="2.19453">
        <ele>279</ele>
        <time>2017-02-04T16:27:44Z</time>
      </trkpt>
      <trkpt lat="41.63436" lon="2.19452">
        <ele>279</ele>
        <time>2017-02-04T16:27:46Z</time>
      </trkpt>
      <trkpt lat="41.63434" lon="2.19452">
        <ele>279</ele>
        <time>2017-02-04T16:27:48Z</time>
      </trkpt>
      <trkpt lat="41.63433" lon="2.19452">
        <ele>279</ele>
        <time>2017-02-04T16:27:49Z</time>
      </trkpt>
      <trkpt lat="41.63425" lon="2.19449">
        <ele>280</ele>
        <time>2017-02-04T16:27:58Z</time>
      </trkpt>
      <trkpt lat="41.63421" lon="2.19449">
        <ele>280</ele>
        <time>2017-02-04T16:28:01Z</time>
      </trkpt>
      <trkpt lat="41.63414" lon="2.19447">
        <ele>281</ele>
        <time>2017-02-04T16:28:09Z</time>
      </trkpt>
      <trkpt lat="41.63412" lon="2.19446">
        <ele>281</ele>
        <time>2017-02-04T16:28:11Z</time>
      </trkpt>
      <trkpt lat="41.6341" lon="2.19446">
        <ele>281</ele>
        <time>2017-02-04T16:28:13Z</time>
      </trkpt>
      <trkpt lat="41.63396" lon="2.19442">
        <ele>281</ele>
        <time>2017-02-04T16:28:27Z</time>
      </trkpt>
      <trkpt lat="41.63394" lon="2.19442">
        <ele>281</ele>
        <time>2017-02-04T16:28:29Z</time>
      </trkpt>
      <trkpt lat="41.63388" lon="2.1944">
        <ele>281</ele>
        <time>2017-02-04T16:28:35Z</time>
      </trkpt>
      <trkpt lat="41.63374" lon="2.19436">
        <ele>281</ele>
        <time>2017-02-04T16:28:49Z</time>
      </trkpt>
      <trkpt lat="41.63361" lon="2.19431">
        <ele>281</ele>
        <time>2017-02-04T16:29:03Z</time>
      </trkpt>
      <trkpt lat="41.63358" lon="2.19431">
        <ele>282</ele>
        <time>2017-02-04T16:29:06Z</time>
      </trkpt>
      <trkpt lat="41.63357" lon="2.19431">
        <ele>282</ele>
        <time>2017-02-04T16:29:07Z</time>
      </trkpt>
      <trkpt lat="41.63356" lon="2.19431">
        <ele>282</ele>
        <time>2017-02-04T16:29:08Z</time>
      </trkpt>
      <trkpt lat="41.63355" lon="2.19431">
        <ele>282</ele>
        <time>2017-02-04T16:29:09Z</time>
      </trkpt>
      <trkpt lat="41.63353" lon="2.19431">
        <ele>282</ele>
        <time>2017-02-04T16:29:11Z</time>
      </trkpt>
      <trkpt lat="41.6335" lon="2.19431">
        <ele>282</ele>
        <time>2017-02-04T16:29:14Z</time>
      </trkpt>
      <trkpt lat="41.63349" lon="2.19431">
        <ele>282</ele>
        <time>2017-02-04T16:29:15Z</time>
      </trkpt>
      <trkpt lat="41.63348" lon="2.19431">
        <ele>282</ele>
        <time>2017-02-04T16:29:16Z</time>
      </trkpt>
      <trkpt lat="41.63347" lon="2.1943">
        <ele>282</ele>
        <time>2017-02-04T16:29:18Z</time>
      </trkpt>
      <trkpt lat="41.63345" lon="2.1943">
        <ele>282</ele>
        <time>2017-02-04T16:29:19Z</time>
      </trkpt>
      <trkpt lat="41.63334" lon="2.19425">
        <ele>282</ele>
        <time>2017-02-04T16:29:30Z</time>
      </trkpt>
      <trkpt lat="41.63321" lon="2.1942">
        <ele>282</ele>
        <time>2017-02-04T16:29:44Z</time>
      </trkpt>
      <trkpt lat="41.63319" lon="2.19419">
        <ele>283</ele>
        <time>2017-02-04T16:29:47Z</time>
      </trkpt>
      <trkpt lat="41.63316" lon="2.19417">
        <ele>283</ele>
        <time>2017-02-04T16:29:50Z</time>
      </trkpt>
      <trkpt lat="41.63314" lon="2.19417">
        <ele>283</ele>
        <time>2017-02-04T16:29:52Z</time>
      </trkpt>
      <trkpt lat="41.63313" lon="2.19416">
        <ele>283</ele>
        <time>2017-02-04T16:29:53Z</time>
      </trkpt>
      <trkpt lat="41.63304" lon="2.19408">
        <ele>283</ele>
        <time>2017-02-04T16:30:04Z</time>
      </trkpt>
      <trkpt lat="41.63301" lon="2.19405">
        <ele>283</ele>
        <time>2017-02-04T16:30:08Z</time>
      </trkpt>
      <trkpt lat="41.6329" lon="2.19396">
        <ele>283</ele>
        <time>2017-02-04T16:30:20Z</time>
      </trkpt>
      <trkpt lat="41.63288" lon="2.19392">
        <ele>283</ele>
        <time>2017-02-04T16:30:23Z</time>
      </trkpt>
      <trkpt lat="41.6328" lon="2.19383">
        <ele>283</ele>
        <time>2017-02-04T16:30:35Z</time>
      </trkpt>
      <trkpt lat="41.63271" lon="2.19373">
        <ele>282</ele>
        <time>2017-02-04T16:30:46Z</time>
      </trkpt>
      <trkpt lat="41.6327" lon="2.19372">
        <ele>282</ele>
        <time>2017-02-04T16:30:47Z</time>
      </trkpt>
      <trkpt lat="41.63269" lon="2.19371">
        <ele>282</ele>
        <time>2017-02-04T16:30:49Z</time>
      </trkpt>
      <trkpt lat="41.63263" lon="2.19363">
        <ele>281</ele>
        <time>2017-02-04T16:30:57Z</time>
      </trkpt>
      <trkpt lat="41.63256" lon="2.19357">
        <ele>280</ele>
        <time>2017-02-04T16:31:05Z</time>
      </trkpt>
      <trkpt lat="41.63255" lon="2.19355">
        <ele>280</ele>
        <time>2017-02-04T16:31:07Z</time>
      </trkpt>
      <trkpt lat="41.63252" lon="2.19353">
        <ele>279</ele>
        <time>2017-02-04T16:31:10Z</time>
      </trkpt>
      <trkpt lat="41.6325" lon="2.19351">
        <ele>279</ele>
        <time>2017-02-04T16:31:13Z</time>
      </trkpt>
      <trkpt lat="41.63248" lon="2.1935">
        <ele>279</ele>
        <time>2017-02-04T16:31:14Z</time>
      </trkpt>
      <trkpt lat="41.63245" lon="2.19348">
        <ele>279</ele>
        <time>2017-02-04T16:31:18Z</time>
      </trkpt>
      <trkpt lat="41.63244" lon="2.19347">
        <ele>279</ele>
        <time>2017-02-04T16:31:19Z</time>
      </trkpt>
      <trkpt lat="41.63242" lon="2.19346">
        <ele>278</ele>
        <time>2017-02-04T16:31:22Z</time>
      </trkpt>
      <trkpt lat="41.63236" lon="2.1934">
        <ele>278</ele>
        <time>2017-02-04T16:31:29Z</time>
      </trkpt>
      <trkpt lat="41.63233" lon="2.19338">
        <ele>278</ele>
        <time>2017-02-04T16:31:33Z</time>
      </trkpt>
      <trkpt lat="41.63229" lon="2.19333">
        <ele>277</ele>
        <time>2017-02-04T16:31:38Z</time>
      </trkpt>
      <trkpt lat="41.63216" lon="2.19321">
        <ele>277</ele>
        <time>2017-02-04T16:31:54Z</time>
      </trkpt>
      <trkpt lat="41.63206" lon="2.19313">
        <ele>276</ele>
        <time>2017-02-04T16:32:05Z</time>
      </trkpt>
      <trkpt lat="41.63204" lon="2.19312">
        <ele>276</ele>
        <time>2017-02-04T16:32:07Z</time>
      </trkpt>
      <trkpt lat="41.63203" lon="2.19311">
        <ele>276</ele>
        <time>2017-02-04T16:32:09Z</time>
      </trkpt>
      <trkpt lat="41.63194" lon="2.19305">
        <ele>275</ele>
        <time>2017-02-04T16:32:19Z</time>
      </trkpt>
      <trkpt lat="41.63185" lon="2.193">
        <ele>275</ele>
        <time>2017-02-04T16:32:28Z</time>
      </trkpt>
      <trkpt lat="41.63184" lon="2.193">
        <ele>275</ele>
        <time>2017-02-04T16:32:30Z</time>
      </trkpt>
      <trkpt lat="41.63181" lon="2.19299">
        <ele>275</ele>
        <time>2017-02-04T16:32:32Z</time>
      </trkpt>
      <trkpt lat="41.63174" lon="2.19298">
        <ele>274</ele>
        <time>2017-02-04T16:32:40Z</time>
      </trkpt>
      <trkpt lat="41.63173" lon="2.19297">
        <ele>274</ele>
        <time>2017-02-04T16:32:41Z</time>
      </trkpt>
      <trkpt lat="41.6317" lon="2.19297">
        <ele>274</ele>
        <time>2017-02-04T16:32:43Z</time>
      </trkpt>
      <trkpt lat="41.63159" lon="2.19295">
        <ele>273</ele>
        <time>2017-02-04T16:32:54Z</time>
      </trkpt>
      <trkpt lat="41.63154" lon="2.19296">
        <ele>273</ele>
        <time>2017-02-04T16:33:00Z</time>
      </trkpt>
      <trkpt lat="41.63153" lon="2.19296">
        <ele>273</ele>
        <time>2017-02-04T16:33:01Z</time>
      </trkpt>
      <trkpt lat="41.63152" lon="2.19296">
        <ele>273</ele>
        <time>2017-02-04T16:33:02Z</time>
      </trkpt>
      <trkpt lat="41.63147" lon="2.19293">
        <ele>272</ele>
        <time>2017-02-04T16:33:07Z</time>
      </trkpt>
      <trkpt lat="41.63141" lon="2.19291">
        <ele>272</ele>
        <time>2017-02-04T16:33:14Z</time>
      </trkpt>
      <trkpt lat="41.63139" lon="2.19291">
        <ele>271</ele>
        <time>2017-02-04T16:33:15Z</time>
      </trkpt>
      <trkpt lat="41.63137" lon="2.19291">
        <ele>271</ele>
        <time>2017-02-04T16:33:17Z</time>
      </trkpt>
      <trkpt lat="41.63134" lon="2.1929">
        <ele>271</ele>
        <time>2017-02-04T16:33:20Z</time>
      </trkpt>
      <trkpt lat="41.63133" lon="2.1929">
        <ele>271</ele>
        <time>2017-02-04T16:33:22Z</time>
      </trkpt>
      <trkpt lat="41.63132" lon="2.19289">
        <ele>271</ele>
        <time>2017-02-04T16:33:23Z</time>
      </trkpt>
      <trkpt lat="41.6313" lon="2.19288">
        <ele>271</ele>
        <time>2017-02-04T16:33:25Z</time>
      </trkpt>
      <trkpt lat="41.63129" lon="2.19288">
        <ele>271</ele>
        <time>2017-02-04T16:33:26Z</time>
      </trkpt>
      <trkpt lat="41.63127" lon="2.19288">
        <ele>271</ele>
        <time>2017-02-04T16:33:28Z</time>
      </trkpt>
      <trkpt lat="41.63125" lon="2.19288">
        <ele>271</ele>
        <time>2017-02-04T16:33:30Z</time>
      </trkpt>
      <trkpt lat="41.63117" lon="2.19286">
        <ele>270</ele>
        <time>2017-02-04T16:33:39Z</time>
      </trkpt>
      <trkpt lat="41.63115" lon="2.19285">
        <ele>270</ele>
        <time>2017-02-04T16:33:40Z</time>
      </trkpt>
      <trkpt lat="41.63113" lon="2.19285">
        <ele>270</ele>
        <time>2017-02-04T16:33:42Z</time>
      </trkpt>
      <trkpt lat="41.63112" lon="2.19284">
        <ele>270</ele>
        <time>2017-02-04T16:33:44Z</time>
      </trkpt>
      <trkpt lat="41.6311" lon="2.19283">
        <ele>270</ele>
        <time>2017-02-04T16:33:45Z</time>
      </trkpt>
      <trkpt lat="41.63103" lon="2.1928">
        <ele>268</ele>
        <time>2017-02-04T16:33:53Z</time>
      </trkpt>
      <trkpt lat="41.63101" lon="2.19279">
        <ele>268</ele>
        <time>2017-02-04T16:33:55Z</time>
      </trkpt>
      <trkpt lat="41.631" lon="2.19278">
        <ele>268</ele>
        <time>2017-02-04T16:33:57Z</time>
      </trkpt>
      <trkpt lat="41.63098" lon="2.19276">
        <ele>268</ele>
        <time>2017-02-04T16:33:58Z</time>
      </trkpt>
      <trkpt lat="41.63097" lon="2.19275">
        <ele>267</ele>
        <time>2017-02-04T16:33:59Z</time>
      </trkpt>
      <trkpt lat="41.63096" lon="2.19274">
        <ele>267</ele>
        <time>2017-02-04T16:34:01Z</time>
      </trkpt>
      <trkpt lat="41.63092" lon="2.19271">
        <ele>266</ele>
        <time>2017-02-04T16:34:06Z</time>
      </trkpt>
      <trkpt lat="41.63088" lon="2.19258">
        <ele>265</ele>
        <time>2017-02-04T16:34:17Z</time>
      </trkpt>
      <trkpt lat="41.63088" lon="2.1925">
        <ele>264</ele>
        <time>2017-02-04T16:34:23Z</time>
      </trkpt>
      <trkpt lat="41.63088" lon="2.19248">
        <ele>264</ele>
        <time>2017-02-04T16:34:24Z</time>
      </trkpt>
      <trkpt lat="41.63089" lon="2.19246">
        <ele>264</ele>
        <time>2017-02-04T16:34:26Z</time>
      </trkpt>
      <trkpt lat="41.63089" lon="2.19244">
        <ele>264</ele>
        <time>2017-02-04T16:34:27Z</time>
      </trkpt>
      <trkpt lat="41.6309" lon="2.19241">
        <ele>264</ele>
        <time>2017-02-04T16:34:29Z</time>
      </trkpt>
      <trkpt lat="41.6309" lon="2.19239">
        <ele>264</ele>
        <time>2017-02-04T16:34:31Z</time>
      </trkpt>
      <trkpt lat="41.63091" lon="2.19237">
        <ele>264</ele>
        <time>2017-02-04T16:34:33Z</time>
      </trkpt>
      <trkpt lat="41.63092" lon="2.19234">
        <ele>264</ele>
        <time>2017-02-04T16:34:35Z</time>
      </trkpt>
      <trkpt lat="41.63093" lon="2.19232">
        <ele>264</ele>
        <time>2017-02-04T16:34:36Z</time>
      </trkpt>
      <trkpt lat="41.63094" lon="2.1923">
        <ele>264</ele>
        <time>2017-02-04T16:34:38Z</time>
      </trkpt>
      <trkpt lat="41.63101" lon="2.19207">
        <ele>265</ele>
        <time>2017-02-04T16:34:57Z</time>
      </trkpt>
      <trkpt lat="41.63101" lon="2.19206">
        <ele>265</ele>
        <time>2017-02-04T16:34:58Z</time>
      </trkpt>
      <trkpt lat="41.63101" lon="2.19204">
        <ele>265</ele>
        <time>2017-02-04T16:34:59Z</time>
      </trkpt>
      <trkpt lat="41.63105" lon="2.19181">
        <ele>267</ele>
        <time>2017-02-04T16:35:17Z</time>
      </trkpt>
      <trkpt lat="41.63103" lon="2.19159">
        <ele>269</ele>
        <time>2017-02-04T16:35:33Z</time>
      </trkpt>
      <trkpt lat="41.63093" lon="2.19148">
        <ele>270</ele>
        <time>2017-02-04T16:35:46Z</time>
      </trkpt>
      <trkpt lat="41.63077" lon="2.19138">
        <ele>270</ele>
        <time>2017-02-04T16:36:04Z</time>
      </trkpt>
      <trkpt lat="41.63061" lon="2.1912">
        <ele>271</ele>
        <time>2017-02-04T16:36:24Z</time>
      </trkpt>
      <trkpt lat="41.6306" lon="2.19119">
        <ele>271</ele>
        <time>2017-02-04T16:36:26Z</time>
      </trkpt>
      <trkpt lat="41.63044" lon="2.19104">
        <ele>271</ele>
        <time>2017-02-04T16:36:46Z</time>
      </trkpt>
      <trkpt lat="41.63032" lon="2.19093">
        <ele>271</ele>
        <time>2017-02-04T16:37:00Z</time>
      </trkpt>
      <trkpt lat="41.63018" lon="2.19078">
        <ele>270</ele>
        <time>2017-02-04T16:37:18Z</time>
      </trkpt>
      <trkpt lat="41.63003" lon="2.19059">
        <ele>270</ele>
        <time>2017-02-04T16:37:39Z</time>
      </trkpt>
      <trkpt lat="41.62997" lon="2.19047">
        <ele>271</ele>
        <time>2017-02-04T16:37:50Z</time>
      </trkpt>
      <trkpt lat="41.62995" lon="2.19042">
        <ele>272</ele>
        <time>2017-02-04T16:37:54Z</time>
      </trkpt>
      <trkpt lat="41.62994" lon="2.19041">
        <ele>272</ele>
        <time>2017-02-04T16:37:55Z</time>
      </trkpt>
      <trkpt lat="41.62981" lon="2.19025">
        <ele>272</ele>
        <time>2017-02-04T16:38:13Z</time>
      </trkpt>
      <trkpt lat="41.62975" lon="2.19018">
        <ele>272</ele>
        <time>2017-02-04T16:38:20Z</time>
      </trkpt>
      <trkpt lat="41.62974" lon="2.19017">
        <ele>272</ele>
        <time>2017-02-04T16:38:21Z</time>
      </trkpt>
      <trkpt lat="41.62974" lon="2.19016">
        <ele>272</ele>
        <time>2017-02-04T16:38:22Z</time>
      </trkpt>
      <trkpt lat="41.62966" lon="2.19007">
        <ele>272</ele>
        <time>2017-02-04T16:38:33Z</time>
      </trkpt>
      <trkpt lat="41.62951" lon="2.18989">
        <ele>272</ele>
        <time>2017-02-04T16:38:53Z</time>
      </trkpt>
      <trkpt lat="41.62937" lon="2.18973">
        <ele>272</ele>
        <time>2017-02-04T16:39:11Z</time>
      </trkpt>
      <trkpt lat="41.6293" lon="2.18963">
        <ele>273</ele>
        <time>2017-02-04T16:39:22Z</time>
      </trkpt>
      <trkpt lat="41.62929" lon="2.18962">
        <ele>273</ele>
        <time>2017-02-04T16:39:23Z</time>
      </trkpt>
      <trkpt lat="41.62928" lon="2.18961">
        <ele>273</ele>
        <time>2017-02-04T16:39:24Z</time>
      </trkpt>
      <trkpt lat="41.62927" lon="2.1896">
        <ele>273</ele>
        <time>2017-02-04T16:39:25Z</time>
      </trkpt>
      <trkpt lat="41.62923" lon="2.18956">
        <ele>274</ele>
        <time>2017-02-04T16:39:30Z</time>
      </trkpt>
      <trkpt lat="41.62922" lon="2.18955">
        <ele>274</ele>
        <time>2017-02-04T16:39:31Z</time>
      </trkpt>
      <trkpt lat="41.62921" lon="2.18955">
        <ele>274</ele>
        <time>2017-02-04T16:39:32Z</time>
      </trkpt>
      <trkpt lat="41.62921" lon="2.18954">
        <ele>274</ele>
        <time>2017-02-04T16:39:33Z</time>
      </trkpt>
      <trkpt lat="41.62913" lon="2.18944">
        <ele>275</ele>
        <time>2017-02-04T16:39:44Z</time>
      </trkpt>
      <trkpt lat="41.629" lon="2.18929">
        <ele>275</ele>
        <time>2017-02-04T16:40:01Z</time>
      </trkpt>
      <trkpt lat="41.6289" lon="2.18913">
        <ele>274</ele>
        <time>2017-02-04T16:40:17Z</time>
      </trkpt>
      <trkpt lat="41.62887" lon="2.18907">
        <ele>274</ele>
        <time>2017-02-04T16:40:22Z</time>
      </trkpt>
      <trkpt lat="41.62886" lon="2.18906">
        <ele>274</ele>
        <time>2017-02-04T16:40:24Z</time>
      </trkpt>
      <trkpt lat="41.62884" lon="2.18903">
        <ele>274</ele>
        <time>2017-02-04T16:40:26Z</time>
      </trkpt>
      <trkpt lat="41.62881" lon="2.189">
        <ele>274</ele>
        <time>2017-02-04T16:40:30Z</time>
      </trkpt>
      <trkpt lat="41.6288" lon="2.18897">
        <ele>273</ele>
        <time>2017-02-04T16:40:32Z</time>
      </trkpt>
      <trkpt lat="41.62867" lon="2.18884">
        <ele>273</ele>
        <time>2017-02-04T16:40:48Z</time>
      </trkpt>
      <trkpt lat="41.62865" lon="2.18883">
        <ele>273</ele>
        <time>2017-02-04T16:40:51Z</time>
      </trkpt>
      <trkpt lat="41.62864" lon="2.18881">
        <ele>273</ele>
        <time>2017-02-04T16:40:52Z</time>
      </trkpt>
      <trkpt lat="41.62863" lon="2.18879">
        <ele>273</ele>
        <time>2017-02-04T16:40:54Z</time>
      </trkpt>
      <trkpt lat="41.62862" lon="2.18877">
        <ele>273</ele>
        <time>2017-02-04T16:40:56Z</time>
      </trkpt>
      <trkpt lat="41.62855" lon="2.18868">
        <ele>273</ele>
        <time>2017-02-04T16:41:05Z</time>
      </trkpt>
      <trkpt lat="41.62855" lon="2.18865">
        <ele>273</ele>
        <time>2017-02-04T16:41:08Z</time>
      </trkpt>
      <trkpt lat="41.62854" lon="2.18864">
        <ele>273</ele>
        <time>2017-02-04T16:41:09Z</time>
      </trkpt>
      <trkpt lat="41.62851" lon="2.18861">
        <ele>273</ele>
        <time>2017-02-04T16:41:12Z</time>
      </trkpt>
      <trkpt lat="41.6285" lon="2.18856">
        <ele>273</ele>
        <time>2017-02-04T16:41:16Z</time>
      </trkpt>
      <trkpt lat="41.6285" lon="2.18851">
        <ele>273</ele>
        <time>2017-02-04T16:41:20Z</time>
      </trkpt>
      <trkpt lat="41.62849" lon="2.18848">
        <ele>272</ele>
        <time>2017-02-04T16:41:22Z</time>
      </trkpt>
      <trkpt lat="41.62849" lon="2.18846">
        <ele>272</ele>
        <time>2017-02-04T16:41:24Z</time>
      </trkpt>
      <trkpt lat="41.62847" lon="2.18841">
        <ele>272</ele>
        <time>2017-02-04T16:41:28Z</time>
      </trkpt>
      <trkpt lat="41.62837" lon="2.18826">
        <ele>271</ele>
        <time>2017-02-04T16:41:43Z</time>
      </trkpt>
      <trkpt lat="41.62834" lon="2.18817">
        <ele>271</ele>
        <time>2017-02-04T16:41:50Z</time>
      </trkpt>
      <trkpt lat="41.62834" lon="2.18815">
        <ele>271</ele>
        <time>2017-02-04T16:41:52Z</time>
      </trkpt>
      <trkpt lat="41.6282" lon="2.18795">
        <ele>267</ele>
        <time>2017-02-04T16:42:12Z</time>
      </trkpt>
      <trkpt lat="41.62814" lon="2.18789">
        <ele>266</ele>
        <time>2017-02-04T16:42:20Z</time>
      </trkpt>
      <trkpt lat="41.62811" lon="2.18785">
        <ele>265</ele>
        <time>2017-02-04T16:42:24Z</time>
      </trkpt>
      <trkpt lat="41.6281" lon="2.18784">
        <ele>265</ele>
        <time>2017-02-04T16:42:25Z</time>
      </trkpt>
      <trkpt lat="41.62809" lon="2.18783">
        <ele>264</ele>
        <time>2017-02-04T16:42:26Z</time>
      </trkpt>
      <trkpt lat="41.62809" lon="2.18782">
        <ele>264</ele>
        <time>2017-02-04T16:42:27Z</time>
      </trkpt>
      <trkpt lat="41.62808" lon="2.18781">
        <ele>264</ele>
        <time>2017-02-04T16:42:28Z</time>
      </trkpt>
      <trkpt lat="41.62807" lon="2.1878">
        <ele>264</ele>
        <time>2017-02-04T16:42:29Z</time>
      </trkpt>
      <trkpt lat="41.62806" lon="2.18779">
        <ele>264</ele>
        <time>2017-02-04T16:42:31Z</time>
      </trkpt>
      <trkpt lat="41.628" lon="2.18776">
        <ele>263</ele>
        <time>2017-02-04T16:42:37Z</time>
      </trkpt>
      <trkpt lat="41.62792" lon="2.18771">
        <ele>262</ele>
        <time>2017-02-04T16:42:46Z</time>
      </trkpt>
      <trkpt lat="41.6279" lon="2.1877">
        <ele>262</ele>
        <time>2017-02-04T16:42:48Z</time>
      </trkpt>
      <trkpt lat="41.62788" lon="2.1877">
        <ele>262</ele>
        <time>2017-02-04T16:42:50Z</time>
      </trkpt>
      <trkpt lat="41.62783" lon="2.18771">
        <ele>262</ele>
        <time>2017-02-04T16:42:55Z</time>
      </trkpt>
      <trkpt lat="41.62781" lon="2.1877">
        <ele>262</ele>
        <time>2017-02-04T16:42:57Z</time>
      </trkpt>
      <trkpt lat="41.6278" lon="2.1877">
        <ele>262</ele>
        <time>2017-02-04T16:42:58Z</time>
      </trkpt>
      <trkpt lat="41.62779" lon="2.1877">
        <ele>262</ele>
        <time>2017-02-04T16:42:59Z</time>
      </trkpt>
      <trkpt lat="41.62778" lon="2.18769">
        <ele>262</ele>
        <time>2017-02-04T16:43:00Z</time>
      </trkpt>
      <trkpt lat="41.62776" lon="2.18767">
        <ele>262</ele>
        <time>2017-02-04T16:43:03Z</time>
      </trkpt>
      <trkpt lat="41.62767" lon="2.18762">
        <ele>260</ele>
        <time>2017-02-04T16:43:12Z</time>
      </trkpt>
      <trkpt lat="41.62765" lon="2.1876">
        <ele>260</ele>
        <time>2017-02-04T16:43:15Z</time>
      </trkpt>
      <trkpt lat="41.62757" lon="2.18757">
        <ele>259</ele>
        <time>2017-02-04T16:43:24Z</time>
      </trkpt>
      <trkpt lat="41.62734" lon="2.18734">
        <ele>258</ele>
        <time>2017-02-04T16:43:52Z</time>
      </trkpt>
      <trkpt lat="41.62733" lon="2.18733">
        <ele>258</ele>
        <time>2017-02-04T16:43:54Z</time>
      </trkpt>
      <trkpt lat="41.62726" lon="2.18725">
        <ele>259</ele>
        <time>2017-02-04T16:44:02Z</time>
      </trkpt>
      <trkpt lat="41.62726" lon="2.18723">
        <ele>259</ele>
        <time>2017-02-04T16:44:04Z</time>
      </trkpt>
      <trkpt lat="41.62726" lon="2.18721">
        <ele>259</ele>
        <time>2017-02-04T16:44:06Z</time>
      </trkpt>
      <trkpt lat="41.62727" lon="2.18719">
        <ele>259</ele>
        <time>2017-02-04T16:44:07Z</time>
      </trkpt>
      <trkpt lat="41.62728" lon="2.18717">
        <ele>259</ele>
        <time>2017-02-04T16:44:09Z</time>
      </trkpt>
      <trkpt lat="41.62734" lon="2.18692">
        <ele>260</ele>
        <time>2017-02-04T16:44:29Z</time>
      </trkpt>
      <trkpt lat="41.62737" lon="2.18665">
        <ele>260</ele>
        <time>2017-02-04T16:44:49Z</time>
      </trkpt>
      <trkpt lat="41.62741" lon="2.18649">
        <ele>259</ele>
        <time>2017-02-04T16:45:02Z</time>
      </trkpt>
      <trkpt lat="41.62741" lon="2.18639">
        <ele>259</ele>
        <time>2017-02-04T16:45:09Z</time>
      </trkpt>
      <trkpt lat="41.62743" lon="2.18617">
        <ele>257</ele>
        <time>2017-02-04T16:45:26Z</time>
      </trkpt>
      <trkpt lat="41.6274" lon="2.18597">
        <ele>255</ele>
        <time>2017-02-04T16:45:41Z</time>
      </trkpt>
      <trkpt lat="41.62739" lon="2.18596">
        <ele>255</ele>
        <time>2017-02-04T16:45:42Z</time>
      </trkpt>
      <trkpt lat="41.62735" lon="2.18586">
        <ele>254</ele>
        <time>2017-02-04T16:45:51Z</time>
      </trkpt>
      <trkpt lat="41.62729" lon="2.18572">
        <ele>253</ele>
        <time>2017-02-04T16:46:03Z</time>
      </trkpt>
      <trkpt lat="41.62728" lon="2.18556">
        <ele>251</ele>
        <time>2017-02-04T16:46:15Z</time>
      </trkpt>
      <trkpt lat="41.62727" lon="2.1854">
        <ele>248</ele>
        <time>2017-02-04T16:46:27Z</time>
      </trkpt>
      <trkpt lat="41.62725" lon="2.18527">
        <ele>246</ele>
        <time>2017-02-04T16:46:37Z</time>
      </trkpt>
      <trkpt lat="41.62725" lon="2.18511">
        <ele>244</ele>
        <time>2017-02-04T16:46:49Z</time>
      </trkpt>
      <trkpt lat="41.62726" lon="2.18508">
        <ele>244</ele>
        <time>2017-02-04T16:46:51Z</time>
      </trkpt>
      <trkpt lat="41.62725" lon="2.18503">
        <ele>244</ele>
        <time>2017-02-04T16:46:55Z</time>
      </trkpt>
      <trkpt lat="41.62724" lon="2.1849">
        <ele>242</ele>
        <time>2017-02-04T16:47:05Z</time>
      </trkpt>
      <trkpt lat="41.62722" lon="2.18479">
        <ele>241</ele>
        <time>2017-02-04T16:47:13Z</time>
      </trkpt>
      <trkpt lat="41.62719" lon="2.18472">
        <ele>240</ele>
        <time>2017-02-04T16:47:19Z</time>
      </trkpt>
      <trkpt lat="41.62717" lon="2.18461">
        <ele>239</ele>
        <time>2017-02-04T16:47:27Z</time>
      </trkpt>
      <trkpt lat="41.62715" lon="2.18451">
        <ele>237</ele>
        <time>2017-02-04T16:47:35Z</time>
      </trkpt>
      <trkpt lat="41.62714" lon="2.18446">
        <ele>236</ele>
        <time>2017-02-04T16:47:39Z</time>
      </trkpt>
      <trkpt lat="41.62713" lon="2.1844">
        <ele>236</ele>
        <time>2017-02-04T16:47:44Z</time>
      </trkpt>
      <trkpt lat="41.62713" lon="2.18425">
        <ele>234</ele>
        <time>2017-02-04T16:47:55Z</time>
      </trkpt>
      <trkpt lat="41.62712" lon="2.18411">
        <ele>232</ele>
        <time>2017-02-04T16:48:06Z</time>
      </trkpt>
      <trkpt lat="41.62711" lon="2.18394">
        <ele>231</ele>
        <time>2017-02-04T16:48:18Z</time>
      </trkpt>
      <trkpt lat="41.62708" lon="2.18386">
        <ele>230</ele>
        <time>2017-02-04T16:48:25Z</time>
      </trkpt>
      <trkpt lat="41.62707" lon="2.18367">
        <ele>229</ele>
        <time>2017-02-04T16:48:39Z</time>
      </trkpt>
      <trkpt lat="41.62706" lon="2.18348">
        <ele>227</ele>
        <time>2017-02-04T16:48:53Z</time>
      </trkpt>
      <trkpt lat="41.62704" lon="2.18344">
        <ele>226</ele>
        <time>2017-02-04T16:48:56Z</time>
      </trkpt>
      <trkpt lat="41.62704" lon="2.18339">
        <ele>226</ele>
        <time>2017-02-04T16:49:00Z</time>
      </trkpt>
      <trkpt lat="41.62702" lon="2.18324">
        <ele>223</ele>
        <time>2017-02-04T16:49:11Z</time>
      </trkpt>
      <trkpt lat="41.62699" lon="2.18308">
        <ele>221</ele>
        <time>2017-02-04T16:49:24Z</time>
      </trkpt>
      <trkpt lat="41.62701" lon="2.18301">
        <ele>220</ele>
        <time>2017-02-04T16:49:29Z</time>
      </trkpt>
      <trkpt lat="41.62701" lon="2.1827">
        <ele>214</ele>
        <time>2017-02-04T16:49:52Z</time>
      </trkpt>
      <trkpt lat="41.627" lon="2.18263">
        <ele>213</ele>
        <time>2017-02-04T16:49:58Z</time>
      </trkpt>
      <trkpt lat="41.62699" lon="2.18256">
        <ele>212</ele>
        <time>2017-02-04T16:50:03Z</time>
      </trkpt>
      <trkpt lat="41.62698" lon="2.18246">
        <ele>210</ele>
        <time>2017-02-04T16:50:11Z</time>
      </trkpt>
      <trkpt lat="41.62701" lon="2.18236">
        <ele>209</ele>
        <time>2017-02-04T16:50:18Z</time>
      </trkpt>
      <trkpt lat="41.62702" lon="2.18232">
        <ele>209</ele>
        <time>2017-02-04T16:50:22Z</time>
      </trkpt>
      <trkpt lat="41.62699" lon="2.18209">
        <ele>206</ele>
        <time>2017-02-04T16:50:39Z</time>
      </trkpt>
      <trkpt lat="41.62699" lon="2.18208">
        <ele>206</ele>
        <time>2017-02-04T16:50:40Z</time>
      </trkpt>
      <trkpt lat="41.62699" lon="2.18193">
        <ele>205</ele>
        <time>2017-02-04T16:50:52Z</time>
      </trkpt>
      <trkpt lat="41.62698" lon="2.18188">
        <ele>204</ele>
        <time>2017-02-04T16:50:55Z</time>
      </trkpt>
      <trkpt lat="41.62699" lon="2.18172">
        <ele>203</ele>
        <time>2017-02-04T16:51:07Z</time>
      </trkpt>
      <trkpt lat="41.627" lon="2.18169">
        <ele>203</ele>
        <time>2017-02-04T16:51:10Z</time>
      </trkpt>
      <trkpt lat="41.62702" lon="2.18158">
        <ele>202</ele>
        <time>2017-02-04T16:51:18Z</time>
      </trkpt>
      <trkpt lat="41.62701" lon="2.18152">
        <ele>202</ele>
        <time>2017-02-04T16:51:23Z</time>
      </trkpt>
      <trkpt lat="41.627" lon="2.18148">
        <ele>202</ele>
        <time>2017-02-04T16:51:26Z</time>
      </trkpt>
      <trkpt lat="41.62699" lon="2.1814">
        <ele>201</ele>
        <time>2017-02-04T16:51:32Z</time>
      </trkpt>
      <trkpt lat="41.62698" lon="2.18133">
        <ele>201</ele>
        <time>2017-02-04T16:51:38Z</time>
      </trkpt>
      <trkpt lat="41.62691" lon="2.18116">
        <ele>200</ele>
        <time>2017-02-04T16:51:52Z</time>
      </trkpt>
      <trkpt lat="41.62685" lon="2.18105">
        <ele>200</ele>
        <time>2017-02-04T16:52:02Z</time>
      </trkpt>
      <trkpt lat="41.62688" lon="2.18104">
        <ele>200</ele>
        <time>2017-02-04T16:52:05Z</time>
      </trkpt>
      <trkpt lat="41.62689" lon="2.181">
        <ele>199</ele>
        <time>2017-02-04T16:52:09Z</time>
      </trkpt>
      <trkpt lat="41.62693" lon="2.1809">
        <ele>199</ele>
        <time>2017-02-04T16:52:17Z</time>
      </trkpt>
      <trkpt lat="41.62701" lon="2.18073">
        <ele>198</ele>
        <time>2017-02-04T16:52:32Z</time>
      </trkpt>
      <trkpt lat="41.62709" lon="2.18058">
        <ele>198</ele>
        <time>2017-02-04T16:52:45Z</time>
      </trkpt>
      <trkpt lat="41.62712" lon="2.18054">
        <ele>197</ele>
        <time>2017-02-04T16:52:50Z</time>
      </trkpt>
      <trkpt lat="41.62715" lon="2.18048">
        <ele>197</ele>
        <time>2017-02-04T16:52:55Z</time>
      </trkpt>
      <trkpt lat="41.62725" lon="2.18036">
        <ele>197</ele>
        <time>2017-02-04T16:53:08Z</time>
      </trkpt>
      <trkpt lat="41.62725" lon="2.18034">
        <ele>197</ele>
        <time>2017-02-04T16:53:10Z</time>
      </trkpt>
      <trkpt lat="41.62726" lon="2.18028">
        <ele>197</ele>
        <time>2017-02-04T16:53:14Z</time>
      </trkpt>
      <trkpt lat="41.62726" lon="2.18012">
        <ele>197</ele>
        <time>2017-02-04T16:53:26Z</time>
      </trkpt>
      <trkpt lat="41.62723" lon="2.17991">
        <ele>197</ele>
        <time>2017-02-04T16:53:42Z</time>
      </trkpt>
      <trkpt lat="41.62721" lon="2.17967">
        <ele>198</ele>
        <time>2017-02-04T16:54:01Z</time>
      </trkpt>
      <trkpt lat="41.62719" lon="2.17947">
        <ele>199</ele>
        <time>2017-02-04T16:54:16Z</time>
      </trkpt>
      <trkpt lat="41.62719" lon="2.17942">
        <ele>200</ele>
        <time>2017-02-04T16:54:19Z</time>
      </trkpt>
      <trkpt lat="41.62723" lon="2.17924">
        <ele>201</ele>
        <time>2017-02-04T16:54:33Z</time>
      </trkpt>
      <trkpt lat="41.62724" lon="2.17921">
        <ele>201</ele>
        <time>2017-02-04T16:54:35Z</time>
      </trkpt>
      <trkpt lat="41.62726" lon="2.17913">
        <ele>203</ele>
        <time>2017-02-04T16:54:42Z</time>
      </trkpt>
      <trkpt lat="41.62729" lon="2.17905">
        <ele>204</ele>
        <time>2017-02-04T16:54:49Z</time>
      </trkpt>
      <trkpt lat="41.62724" lon="2.17888">
        <ele>205</ele>
        <time>2017-02-04T16:55:02Z</time>
      </trkpt>
      <trkpt lat="41.62716" lon="2.1786">
        <ele>206</ele>
        <time>2017-02-04T16:55:24Z</time>
      </trkpt>
      <trkpt lat="41.62714" lon="2.17844">
        <ele>205</ele>
        <time>2017-02-04T16:55:36Z</time>
      </trkpt>
      <trkpt lat="41.62716" lon="2.17833">
        <ele>205</ele>
        <time>2017-02-04T16:55:45Z</time>
      </trkpt>
      <trkpt lat="41.62717" lon="2.17805">
        <ele>206</ele>
        <time>2017-02-04T16:56:06Z</time>
      </trkpt>
      <trkpt lat="41.62718" lon="2.17784">
        <ele>207</ele>
        <time>2017-02-04T16:56:22Z</time>
      </trkpt>
      <trkpt lat="41.62719" lon="2.17773">
        <ele>208</ele>
        <time>2017-02-04T16:56:30Z</time>
      </trkpt>
      <trkpt lat="41.62721" lon="2.17745">
        <ele>209</ele>
        <time>2017-02-04T16:56:51Z</time>
      </trkpt>
      <trkpt lat="41.62724" lon="2.17722">
        <ele>210</ele>
        <time>2017-02-04T16:57:09Z</time>
      </trkpt>
      <trkpt lat="41.62725" lon="2.17715">
        <ele>210</ele>
        <time>2017-02-04T16:57:14Z</time>
      </trkpt>
      <trkpt lat="41.62724" lon="2.17691">
        <ele>212</ele>
        <time>2017-02-04T16:57:32Z</time>
      </trkpt>
      <trkpt lat="41.62723" lon="2.17684">
        <ele>212</ele>
        <time>2017-02-04T16:57:37Z</time>
      </trkpt>
      <trkpt lat="41.62725" lon="2.17669">
        <ele>213</ele>
        <time>2017-02-04T16:57:49Z</time>
      </trkpt>
      <trkpt lat="41.62726" lon="2.17664">
        <ele>213</ele>
        <time>2017-02-04T16:57:52Z</time>
      </trkpt>
      <trkpt lat="41.62729" lon="2.17636">
        <ele>214</ele>
        <time>2017-02-04T16:58:13Z</time>
      </trkpt>
      <trkpt lat="41.6273" lon="2.17626">
        <ele>214</ele>
        <time>2017-02-04T16:58:21Z</time>
      </trkpt>
      <trkpt lat="41.6273" lon="2.17617">
        <ele>215</ele>
        <time>2017-02-04T16:58:28Z</time>
      </trkpt>
      <trkpt lat="41.62731" lon="2.17609">
        <ele>215</ele>
        <time>2017-02-04T16:58:34Z</time>
      </trkpt>
      <trkpt lat="41.62733" lon="2.17602">
        <ele>215</ele>
        <time>2017-02-04T16:58:40Z</time>
      </trkpt>
      <trkpt lat="41.62734" lon="2.176">
        <ele>215</ele>
        <time>2017-02-04T16:58:41Z</time>
      </trkpt>
      <trkpt lat="41.62734" lon="2.17598">
        <ele>215</ele>
        <time>2017-02-04T16:58:43Z</time>
      </trkpt>
      <trkpt lat="41.62738" lon="2.17595">
        <ele>215</ele>
        <time>2017-02-04T16:58:47Z</time>
      </trkpt>
      <trkpt lat="41.62739" lon="2.17594">
        <ele>215</ele>
        <time>2017-02-04T16:58:48Z</time>
      </trkpt>
      <trkpt lat="41.62739" lon="2.17592">
        <ele>215</ele>
        <time>2017-02-04T16:58:50Z</time>
      </trkpt>
      <trkpt lat="41.62739" lon="2.17589">
        <ele>215</ele>
        <time>2017-02-04T16:58:52Z</time>
      </trkpt>
      <trkpt lat="41.62739" lon="2.17587">
        <ele>215</ele>
        <time>2017-02-04T16:58:53Z</time>
      </trkpt>
      <trkpt lat="41.6274" lon="2.17575">
        <ele>215</ele>
        <time>2017-02-04T16:59:02Z</time>
      </trkpt>
      <trkpt lat="41.62741" lon="2.17573">
        <ele>215</ele>
        <time>2017-02-04T16:59:04Z</time>
      </trkpt>
      <trkpt lat="41.62742" lon="2.17572">
        <ele>215</ele>
        <time>2017-02-04T16:59:05Z</time>
      </trkpt>
      <trkpt lat="41.62742" lon="2.1757">
        <ele>215</ele>
        <time>2017-02-04T16:59:07Z</time>
      </trkpt>
      <trkpt lat="41.62742" lon="2.17568">
        <ele>215</ele>
        <time>2017-02-04T16:59:08Z</time>
      </trkpt>
      <trkpt lat="41.62743" lon="2.17567">
        <ele>215</ele>
        <time>2017-02-04T16:59:09Z</time>
      </trkpt>
      <trkpt lat="41.62743" lon="2.17565">
        <ele>215</ele>
        <time>2017-02-04T16:59:11Z</time>
      </trkpt>
      <trkpt lat="41.62743" lon="2.17563">
        <ele>215</ele>
        <time>2017-02-04T16:59:12Z</time>
      </trkpt>
      <trkpt lat="41.62746" lon="2.17547">
        <ele>216</ele>
        <time>2017-02-04T16:59:25Z</time>
      </trkpt>
      <trkpt lat="41.62746" lon="2.17541">
        <ele>216</ele>
        <time>2017-02-04T16:59:29Z</time>
      </trkpt>
      <trkpt lat="41.62746" lon="2.17539">
        <ele>216</ele>
        <time>2017-02-04T16:59:30Z</time>
      </trkpt>
      <trkpt lat="41.62747" lon="2.17536">
        <ele>216</ele>
        <time>2017-02-04T16:59:33Z</time>
      </trkpt>
      <trkpt lat="41.62747" lon="2.17535">
        <ele>216</ele>
        <time>2017-02-04T16:59:34Z</time>
      </trkpt>
      <trkpt lat="41.62748" lon="2.17533">
        <ele>216</ele>
        <time>2017-02-04T16:59:35Z</time>
      </trkpt>
      <trkpt lat="41.62748" lon="2.17531">
        <ele>216</ele>
        <time>2017-02-04T16:59:37Z</time>
      </trkpt>
      <trkpt lat="41.62749" lon="2.1753">
        <ele>216</ele>
        <time>2017-02-04T16:59:38Z</time>
      </trkpt>
      <trkpt lat="41.62749" lon="2.17528">
        <ele>216</ele>
        <time>2017-02-04T16:59:39Z</time>
      </trkpt>
      <trkpt lat="41.62751" lon="2.17521">
        <ele>216</ele>
        <time>2017-02-04T16:59:45Z</time>
      </trkpt>
      <trkpt lat="41.62751" lon="2.1752">
        <ele>216</ele>
        <time>2017-02-04T16:59:46Z</time>
      </trkpt>
      <trkpt lat="41.62751" lon="2.17518">
        <ele>216</ele>
        <time>2017-02-04T16:59:47Z</time>
      </trkpt>
      <trkpt lat="41.62752" lon="2.17516">
        <ele>216</ele>
        <time>2017-02-04T16:59:49Z</time>
      </trkpt>
      <trkpt lat="41.62752" lon="2.17515">
        <ele>216</ele>
        <time>2017-02-04T16:59:50Z</time>
      </trkpt>
      <trkpt lat="41.62753" lon="2.17509">
        <ele>215</ele>
        <time>2017-02-04T16:59:54Z</time>
      </trkpt>
      <trkpt lat="41.62754" lon="2.17507">
        <ele>215</ele>
        <time>2017-02-04T16:59:56Z</time>
      </trkpt>
      <trkpt lat="41.62756" lon="2.17496">
        <ele>215</ele>
        <time>2017-02-04T17:00:04Z</time>
      </trkpt>
      <trkpt lat="41.62758" lon="2.17476">
        <ele>213</ele>
        <time>2017-02-04T17:00:20Z</time>
      </trkpt>
      <trkpt lat="41.62758" lon="2.17474">
        <ele>213</ele>
        <time>2017-02-04T17:00:21Z</time>
      </trkpt>
      <trkpt lat="41.62759" lon="2.17464">
        <ele>212</ele>
        <time>2017-02-04T17:00:28Z</time>
      </trkpt>
      <trkpt lat="41.62758" lon="2.17462">
        <ele>212</ele>
        <time>2017-02-04T17:00:30Z</time>
      </trkpt>
      <trkpt lat="41.62758" lon="2.1746">
        <ele>212</ele>
        <time>2017-02-04T17:00:31Z</time>
      </trkpt>
      <trkpt lat="41.62759" lon="2.17457">
        <ele>212</ele>
        <time>2017-02-04T17:00:34Z</time>
      </trkpt>
      <trkpt lat="41.62759" lon="2.17447">
        <ele>211</ele>
        <time>2017-02-04T17:00:41Z</time>
      </trkpt>
      <trkpt lat="41.62756" lon="2.17432">
        <ele>211</ele>
        <time>2017-02-04T17:00:53Z</time>
      </trkpt>
      <trkpt lat="41.62756" lon="2.17416">
        <ele>212</ele>
        <time>2017-02-04T17:01:05Z</time>
      </trkpt>
      <trkpt lat="41.62755" lon="2.1741">
        <ele>212</ele>
        <time>2017-02-04T17:01:10Z</time>
      </trkpt>
      <trkpt lat="41.62755" lon="2.17407">
        <ele>212</ele>
        <time>2017-02-04T17:01:12Z</time>
      </trkpt>
      <trkpt lat="41.62751" lon="2.17395">
        <ele>212</ele>
        <time>2017-02-04T17:01:22Z</time>
      </trkpt>
      <trkpt lat="41.62748" lon="2.17387">
        <ele>212</ele>
        <time>2017-02-04T17:01:28Z</time>
      </trkpt>
      <trkpt lat="41.62738" lon="2.17376">
        <ele>212</ele>
        <time>2017-02-04T17:01:41Z</time>
      </trkpt>
      <trkpt lat="41.62727" lon="2.17357">
        <ele>211</ele>
        <time>2017-02-04T17:01:59Z</time>
      </trkpt>
      <trkpt lat="41.62725" lon="2.17353">
        <ele>210</ele>
        <time>2017-02-04T17:02:03Z</time>
      </trkpt>
      <trkpt lat="41.62722" lon="2.17349">
        <ele>210</ele>
        <time>2017-02-04T17:02:07Z</time>
      </trkpt>
      <trkpt lat="41.62719" lon="2.17343">
        <ele>209</ele>
        <time>2017-02-04T17:02:12Z</time>
      </trkpt>
      <trkpt lat="41.62715" lon="2.17336">
        <ele>208</ele>
        <time>2017-02-04T17:02:19Z</time>
      </trkpt>
      <trkpt lat="41.62706" lon="2.17319">
        <ele>207</ele>
        <time>2017-02-04T17:02:35Z</time>
      </trkpt>
      <trkpt lat="41.627" lon="2.173">
        <ele>206</ele>
        <time>2017-02-04T17:02:50Z</time>
      </trkpt>
      <trkpt lat="41.62697" lon="2.17282">
        <ele>206</ele>
        <time>2017-02-04T17:03:04Z</time>
      </trkpt>
      <trkpt lat="41.62697" lon="2.1728">
        <ele>206</ele>
        <time>2017-02-04T17:03:05Z</time>
      </trkpt>
      <trkpt lat="41.62692" lon="2.1726">
        <ele>205</ele>
        <time>2017-02-04T17:03:21Z</time>
      </trkpt>
      <trkpt lat="41.62687" lon="2.17243">
        <ele>205</ele>
        <time>2017-02-04T17:03:35Z</time>
      </trkpt>
      <trkpt lat="41.6268" lon="2.17233">
        <ele>205</ele>
        <time>2017-02-04T17:03:45Z</time>
      </trkpt>
      <trkpt lat="41.62676" lon="2.17224">
        <ele>204</ele>
        <time>2017-02-04T17:03:53Z</time>
      </trkpt>
      <trkpt lat="41.62673" lon="2.17218">
        <ele>204</ele>
        <time>2017-02-04T17:03:59Z</time>
      </trkpt>
      <trkpt lat="41.6267" lon="2.17209">
        <ele>204</ele>
        <time>2017-02-04T17:04:06Z</time>
      </trkpt>
      <trkpt lat="41.62668" lon="2.17202">
        <ele>204</ele>
        <time>2017-02-04T17:04:11Z</time>
      </trkpt>
      <trkpt lat="41.62661" lon="2.17186">
        <ele>203</ele>
        <time>2017-02-04T17:04:25Z</time>
      </trkpt>
      <trkpt lat="41.62658" lon="2.17182">
        <ele>203</ele>
        <time>2017-02-04T17:04:29Z</time>
      </trkpt>
      <trkpt lat="41.6265" lon="2.17166">
        <ele>202</ele>
        <time>2017-02-04T17:04:44Z</time>
      </trkpt>
      <trkpt lat="41.62646" lon="2.1716">
        <ele>202</ele>
        <time>2017-02-04T17:04:50Z</time>
      </trkpt>
      <trkpt lat="41.62643" lon="2.17151">
        <ele>202</ele>
        <time>2017-02-04T17:04:57Z</time>
      </trkpt>
      <trkpt lat="41.62641" lon="2.17146">
        <ele>202</ele>
        <time>2017-02-04T17:05:01Z</time>
      </trkpt>
      <trkpt lat="41.62635" lon="2.17133">
        <ele>202</ele>
        <time>2017-02-04T17:05:13Z</time>
      </trkpt>
      <trkpt lat="41.62629" lon="2.17123">
        <ele>202</ele>
        <time>2017-02-04T17:05:22Z</time>
      </trkpt>
      <trkpt lat="41.62627" lon="2.17118">
        <ele>202</ele>
        <time>2017-02-04T17:05:27Z</time>
      </trkpt>
      <trkpt lat="41.62614" lon="2.17096">
        <ele>202</ele>
        <time>2017-02-04T17:05:48Z</time>
      </trkpt>
      <trkpt lat="41.62612" lon="2.17092">
        <ele>202</ele>
        <time>2017-02-04T17:05:51Z</time>
      </trkpt>
      <trkpt lat="41.62608" lon="2.17083">
        <ele>201</ele>
        <time>2017-02-04T17:05:59Z</time>
      </trkpt>
      <trkpt lat="41.62602" lon="2.17072">
        <ele>201</ele>
        <time>2017-02-04T17:06:09Z</time>
      </trkpt>
      <trkpt lat="41.62591" lon="2.17054">
        <ele>200</ele>
        <time>2017-02-04T17:06:27Z</time>
      </trkpt>
      <trkpt lat="41.62583" lon="2.17035">
        <ele>200</ele>
        <time>2017-02-04T17:06:43Z</time>
      </trkpt>
      <trkpt lat="41.62581" lon="2.1703">
        <ele>200</ele>
        <time>2017-02-04T17:06:47Z</time>
      </trkpt>
      <trkpt lat="41.6258" lon="2.17029">
        <ele>200</ele>
        <time>2017-02-04T17:06:49Z</time>
      </trkpt>
      <trkpt lat="41.62579" lon="2.17027">
        <ele>200</ele>
        <time>2017-02-04T17:06:50Z</time>
      </trkpt>
      <trkpt lat="41.62578" lon="2.17025">
        <ele>200</ele>
        <time>2017-02-04T17:06:52Z</time>
      </trkpt>
      <trkpt lat="41.62577" lon="2.17024">
        <ele>200</ele>
        <time>2017-02-04T17:06:53Z</time>
      </trkpt>
      <trkpt lat="41.6257" lon="2.17015">
        <ele>200</ele>
        <time>2017-02-04T17:07:03Z</time>
      </trkpt>
      <trkpt lat="41.62569" lon="2.17013">
        <ele>200</ele>
        <time>2017-02-04T17:07:04Z</time>
      </trkpt>
      <trkpt lat="41.62569" lon="2.17011">
        <ele>200</ele>
        <time>2017-02-04T17:07:06Z</time>
      </trkpt>
      <trkpt lat="41.62568" lon="2.17009">
        <ele>200</ele>
        <time>2017-02-04T17:07:07Z</time>
      </trkpt>
      <trkpt lat="41.62568" lon="2.17008">
        <ele>200</ele>
        <time>2017-02-04T17:07:08Z</time>
      </trkpt>
      <trkpt lat="41.62567" lon="2.17006">
        <ele>200</ele>
        <time>2017-02-04T17:07:10Z</time>
      </trkpt>
      <trkpt lat="41.62566" lon="2.17004">
        <ele>200</ele>
        <time>2017-02-04T17:07:11Z</time>
      </trkpt>
      <trkpt lat="41.62564" lon="2.16999">
        <ele>200</ele>
        <time>2017-02-04T17:07:16Z</time>
      </trkpt>
      <trkpt lat="41.62564" lon="2.16998">
        <ele>200</ele>
        <time>2017-02-04T17:07:17Z</time>
      </trkpt>
      <trkpt lat="41.62563" lon="2.16997">
        <ele>200</ele>
        <time>2017-02-04T17:07:18Z</time>
      </trkpt>
      <trkpt lat="41.62555" lon="2.16981">
        <ele>200</ele>
        <time>2017-02-04T17:07:33Z</time>
      </trkpt>
      <trkpt lat="41.62548" lon="2.16978">
        <ele>200</ele>
        <time>2017-02-04T17:07:40Z</time>
      </trkpt>
      <trkpt lat="41.62533" lon="2.16986">
        <ele>200</ele>
        <time>2017-02-04T17:07:55Z</time>
      </trkpt>
      <trkpt lat="41.62526" lon="2.16985">
        <ele>200</ele>
        <time>2017-02-04T17:08:03Z</time>
      </trkpt>
      <trkpt lat="41.62515" lon="2.16993">
        <ele>200</ele>
        <time>2017-02-04T17:08:15Z</time>
      </trkpt>
      <trkpt lat="41.62513" lon="2.17002">
        <ele>199</ele>
        <time>2017-02-04T17:08:23Z</time>
      </trkpt>
    </trkseg>
  </trk>
</gpx>